[[{"header":{"parameterUnit":"m.s-1","parameterCategory":1,"la1":30.6,"la2":28.766,"lo1":-90.7593,"lo2":-88.6598,"dy":0.0162,"dx":0.0183,"nx":116,"ny":114,"refTime":"2023-10-07T12:00:00:Z","depth":0,"parameterNumber":2,"parameterNumberName":"U-component_of_WINDS"},"data":[0.0,0.0,0.0,0.0,0.0,0.0,0.0,0.0,0.0,0.0,0.0,0.0,0.0,0.0,0.0,0.0,0.0,0.0,0.0,0.0,0.0,0.0,0.0,0.0,0.0,0.0,0.0,0.0,0.0,0.0,0.0,0.0,0.0,0.0,0.0,0.0,0.0,0.0,0.0,0.0,0.0,0.0,0.0,0.0,0.0,0.0,0.0,0.0,0.0,0.0,0.0,0.0,0.0,0.0,0.0,0.0,0.0,0.0,0.0,0.0,0.0,0.0,0.0,0.0,0.0,0.0,0.0,0.0,0.0,0.0,0.0,0.0,0.0,0.0,0.0,0.0,0.0,0.0,0.0,0.0,0.0,0.0,0.0,0.0,0.0,0.0,0.0,0.0,0.0,0.0,0.0,0.0,0.0,0.0,0.0,0.0,0.0,0.0,0.0,0.0,0.0,0.0,0.0,0.0,0.0,0.0,0.0,0.0,0.0,0.0,0.0,0.0,0.0,0.0,0.0,0.0,0.0,0.0,0.0,0.0,0.0,0.0,0.0,0.0,0.0,0.0,0.0,0.0,0.0,0.0,0.0,0.0,0.0,0.0,0.0,0.0,0.0,0.0,0.0,0.0,0.0,0.0,0.0,0.0,0.0,0.0,0.0,0.0,0.0,0.0,0.0,0.0,0.0,0.0,0.0,0.0,0.0,0.0,0.0,0.0,0.0,0.0,0.0,0.0,0.0,0.0,0.0,0.0,0.0,0.0,0.0,0.0,0.0,0.0,0.0,0.0,0.0,0.0,0.0,0.0,0.0,0.0,0.0,0.0,0.0,0.0,0.0,0.0,0.0,0.0,0.0,0.0,0.0,0.0,0.0,0.0,0.0,0.0,0.0,0.0,0.0,0.0,0.0,0.0,0.0,0.0,0.0,0.0,0.0,0.0,0.0,0.0,0.0,0.0,0.0,0.0,0.0,0.0,0.0,0.0,0.0,0.0,0.0,0.0,0.0,0.0,0.0,0.0,0.0,0.0,0.0,0.0,0.0,0.0,0.0,0.0,0.0,0.0,0.0,0.0,0.0,0.0,0.0,0.0,0.0,0.0,0.0,0.0,0.0,0.0,0.0,0.0,0.0,0.0,0.0,0.0,0.0,0.0,0.0,0.0,0.0,0.0,0.0,0.0,0.0,0.0,0.0,0.0,0.0,0.0,0.0,0.0,0.0,0.0,0.0,0.0,0.0,0.0,0.0,0.0,0.0,0.0,0.0,0.0,0.0,0.0,0.0,0.0,0.0,0.0,0.0,0.0,0.0,0.0,0.0,0.0,0.0,0.0,0.0,0.0,0.0,0.0,0.0,0.0,0.0,0.0,0.0,0.0,0.0,0.0,0.0,0.0,0.0,0.0,0.0,0.0,0.0,0.0,0.0,0.0,0.0,0.0,0.0,0.0,0.0,0.0,0.0,0.0,0.0,0.0,0.0,0.0,0.0,0.0,0.0,0.0,0.0,0.0,0.0,0.0,0.0,0.0,0.0,0.0,0.0,0.0,0.0,0.0,0.0,0.0,0.0,0.0,0.0,0.0,0.0,0.0,0.0,0.0,0.0,0.0,0.0,0.0,0.0,0.0,0.0,0.0,0.0,0.0,0.0,0.0,0.0,0.0,0.0,0.0,0.0,0.0,0.0,0.0,0.0,0.0,0.0,0.0,0.0,0.0,0.0,0.0,0.0,0.0,0.0,0.0,0.0,0.0,0.0,0.0,0.0,0.0,0.0,0.0,0.0,0.0,0.0,0.0,0.0,0.0,0.0,0.0,0.0,0.0,0.0,0.0,0.0,0.0,0.0,0.0,0.0,0.0,0.0,0.0,0.0,0.0,0.0,0.0,0.0,0.0,0.0,0.0,0.0,0.0,0.0,0.0,0.0,0.0,0.0,0.0,0.0,0.0,0.0,0.0,0.0,0.0,0.0,0.0,0.0,0.0,0.0,0.0,0.0,0.0,0.0,0.0,0.0,0.0,0.0,0.0,0.0,0.0,0.0,0.0,0.0,0.0,0.0,0.0,0.0,0.0,0.0,0.0,0.0,0.0,0.0,0.0,0.0,0.0,0.0,0.0,0.0,0.0,0.0,0.0,0.0,0.0,0.0,0.0,0.0,0.0,0.0,0.0,0.0,0.0,0.0,0.0,0.0,0.0,0.0,0.0,0.0,0.0,0.0,0.0,0.0,0.0,0.0,0.0,0.0,0.0,0.0,0.0,0.0,0.0,0.0,0.0,0.0,0.0,0.0,0.0,0.0,0.0,0.0,0.0,0.0,0.0,0.0,0.0,0.0,0.0,0.0,0.0,0.0,0.0,0.0,0.0,0.0,0.0,0.0,0.0,0.0,0.0,0.0,0.0,0.0,0.0,0.0,0.0,0.0,0.0,0.0,0.0,0.0,0.0,0.0,0.0,0.0,0.0,0.0,0.0,0.0,0.0,0.0,0.0,0.0,0.0,0.0,0.0,0.0,0.0,0.0,0.0,0.0,0.0,0.0,0.0,0.0,0.0,0.0,0.0,0.0,0.0,0.0,0.0,0.0,0.0,0.0,0.0,0.0,0.0,0.0,0.0,0.0,0.0,0.0,0.0,0.0,0.0,0.0,0.0,0.0,0.0,0.0,0.0,0.0,0.0,0.0,0.0,0.0,0.0,0.0,0.0,0.0,0.0,0.0,0.0,0.0,0.0,0.0,0.0,0.0,0.0,0.0,0.0,0.0,0.0,0.0,0.0,0.0,0.0,0.0,0.0,0.0,0.0,0.0,0.0,0.0,0.0,0.0,0.0,0.0,0.0,0.0,0.0,0.0,0.0,0.0,0.0,0.0,0.0,0.0,0.0,0.0,0.0,0.0,0.0,0.0,0.0,0.0,0.0,0.0,0.0,0.0,0.0,0.0,0.0,0.0,0.0,0.0,0.0,0.0,0.0,0.0,0.0,0.0,0.0,0.0,0.0,0.0,0.0,0.0,0.0,0.0,0.0,0.0,0.0,0.0,0.0,0.0,0.0,0.0,0.0,0.0,0.0,0.0,0.0,0.0,0.0,0.0,0.0,0.0,0.0,0.0,0.0,0.0,0.0,0.0,0.0,0.0,0.0,0.0,0.0,0.0,0.0,0.0,0.0,0.0,0.0,0.0,0.0,0.0,0.0,0.0,0.0,0.0,0.0,0.0,0.0,0.0,0.0,0.0,0.0,0.0,0.0,0.0,0.0,0.0,0.0,0.0,0.0,0.0,0.0,0.0,0.0,0.0,0.0,0.0,0.0,0.0,0.0,0.0,0.0,0.0,0.0,0.0,0.0,0.0,0.0,0.0,0.0,0.0,0.0,0.0,0.0,0.0,0.0,0.0,0.0,0.0,0.0,0.0,0.0,0.0,0.0,0.0,0.0,0.0,0.0,0.0,0.0,0.0,0.0,0.0,0.0,0.0,0.0,0.0,0.0,0.0,0.0,0.0,0.0,0.0,0.0,0.0,0.0,0.0,0.0,0.0,0.0,0.0,0.0,0.0,0.0,0.0,0.0,0.0,0.0,0.0,0.0,0.0,0.0,0.0,0.0,0.0,0.0,0.0,0.0,0.0,0.0,0.0,0.0,0.0,0.0,0.0,0.0,0.0,0.0,0.0,0.0,0.0,0.0,0.0,0.0,0.0,0.0,0.0,0.0,0.0,0.0,0.0,0.0,0.0,0.0,0.0,0.0,0.0,0.0,0.0,0.0,0.0,0.0,0.0,0.0,0.0,0.0,0.0,0.0,0.0,0.0,0.0,0.0,0.0,0.0,0.0,0.0,0.0,0.0,0.0,0.0,0.0,0.0,0.0,0.0,0.0,0.0,0.0,0.0,0.0,0.0,0.0,0.0,0.0,0.0,0.0,0.0,0.0,0.0,0.0,0.0,0.0,0.0,0.0,0.0,0.0,0.0,0.0,0.0,0.0,0.0,0.0,0.0,0.0,0.0,0.0,0.0,0.0,0.0,0.0,0.0,0.0,0.0,0.0,0.0,0.0,0.0,0.0,0.0,0.0,0.0,0.0,0.0,0.0,0.0,0.0,0.0,0.0,0.0,0.0,0.0,0.0,0.0,0.0,0.0,0.0,0.0,0.0,0.0,0.0,0.0,0.0,0.0,0.0,0.0,0.0,0.0,0.0,0.0,0.0,0.0,0.0,0.0,0.0,0.0,0.0,0.0,0.0,0.0,0.0,0.0,0.0,0.0,0.0,0.0,0.0,0.0,0.0,0.0,0.0,0.0,0.0,0.0,0.0,0.0,0.0,0.0,0.0,0.0,0.0,0.0,0.0,0.0,0.0,0.0,0.0,0.0,0.0,0.0,0.0,0.0,0.0,0.0,0.0,0.0,0.0,0.0,0.0,0.0,0.0,0.0,0.0,0.0,0.0,0.0,0.0,0.0,0.0,0.0,0.0,0.0,0.0,0.0,0.0,0.0,0.0,0.0,0.0,0.0,0.0,0.0,0.0,0.0,0.0,0.0,0.0,0.0,0.0,0.0,0.0,0.0,0.0,0.0,0.0,0.0,0.0,0.0,0.0,0.0,0.0,0.0,0.0,0.0,0.0,0.0,0.0,0.0,0.0,0.0,0.0,0.0,0.0,0.0,0.0,0.0,0.0,0.0,0.0,0.0,0.0,0.0,0.0,0.0,0.0,0.0,0.0,0.0,0.0,0.0,0.0,0.0,0.0,0.0,0.0,0.0,0.0,0.0,0.0,0.0,0.0,0.0,0.0,0.0,0.0,0.0,0.0,0.0,0.0,0.0,0.0,0.0,0.0,0.0,0.0,0.0,0.0,0.0,0.0,0.0,0.0,0.0,0.0,0.0,0.0,0.0,0.0,0.0,0.0,0.0,0.0,0.0,0.0,0.0,0.0,0.0,0.0,0.0,0.0,0.0,0.0,0.0,0.0,0.0,0.0,0.0,0.0,0.0,0.0,0.0,0.0,0.0,0.0,0.0,0.0,0.0,0.0,0.0,0.0,0.0,0.0,0.0,0.0,0.0,0.0,0.0,0.0,0.0,0.0,0.0,0.0,0.0,0.0,0.0,0.0,0.0,0.0,0.0,0.0,0.0,0.0,0.0,0.0,0.0,0.0,0.0,0.0,0.0,0.0,0.0,0.0,0.0,0.0,0.0,0.0,0.0,0.0,0.0,0.0,0.0,0.0,0.0,0.0,0.0,0.0,0.0,0.0,0.0,0.0,0.0,0.0,0.0,0.0,0.0,0.0,0.0,0.0,0.0,0.0,0.0,0.0,0.0,0.0,0.0,0.0,0.0,0.0,0.0,0.0,0.0,0.0,0.0,0.0,0.0,0.0,0.0,0.0,0.0,0.0,0.0,0.0,0.0,0.0,0.0,0.0,0.0,0.0,0.0,0.0,0.0,0.0,0.0,0.0,0.0,0.0,0.0,0.0,0.0,0.0,0.0,0.0,0.0,0.0,0.0,0.0,0.0,0.0,0.0,0.0,0.0,0.0,0.0,0.0,0.0,0.0,0.0,0.0,0.0,0.0,0.0,0.0,0.0,0.0,0.0,0.0,0.0,0.0,0.0,0.0,0.0,0.0,0.0,0.0,0.0,0.0,0.0,0.0,0.0,0.0,0.0,0.0,0.0,0.0,0.0,0.0,0.0,0.0,0.0,0.0,0.0,0.0,0.0,0.0,0.0,0.0,0.0,0.0,0.0,0.0,0.0,0.0,0.0,0.0,0.0,0.0,0.0,0.0,0.0,0.0,0.0,0.0,0.0,0.0,0.0,0.0,0.0,0.0,0.0,0.0,0.0,0.0,0.0,0.0,0.0,0.0,0.0,0.0,0.0,0.0,0.0,0.0,0.0,0.0,0.0,0.0,0.0,0.0,0.0,0.0,0.0,0.0,0.0,0.0,0.0,0.0,0.0,0.0,0.0,0.0,0.0,0.0,0.0,0.0,0.0,0.0,0.0,0.0,0.0,0.0,0.0,0.0,0.0,0.0,0.0,0.0,0.0,0.0,0.0,0.0,0.0,0.0,0.0,0.0,0.0,0.0,0.0,0.0,0.0,0.0,0.0,0.0,0.0,0.0,0.0,0.0,0.0,0.0,0.0,0.5409,0.0,0.0,0.0,0.0,0.0,0.0,0.0,0.0,0.0,0.0,0.0,0.0,0.0,0.0,0.0,0.0,0.0,0.0,0.0,0.0,0.0,0.0,0.0,0.0,0.0,0.0,0.0,0.0,0.0,0.0,0.0,0.0,0.0,0.0,0.0,0.0,0.0,0.0,1.2501,1.2501,1.2501,1.2501,1.2501,1.2501,1.2501,0.0,0.0,0.0,0.0,0.0,0.0,0.0,0.0,0.0,0.0,0.0,0.0,0.0,0.0,0.0,0.0,0.0,0.0,0.0,0.0,0.0,0.0,0.0,0.0,0.0,0.0,0.0,0.0,0.0,0.0,0.0,0.0,0.0,0.0,0.0,0.0,0.0,0.0,0.0,0.0,0.0,0.0,0.0,0.0,0.0,0.0,0.0,0.0,0.0,0.0,0.0,0.0,0.0,0.0,0.0,0.0,0.0,0.0,0.0,0.0,0.0,0.0,0.0,0.0,0.0,0.0,0.0,0.0,0.0,0.0,0.0,0.5772,0.0,0.0,0.0,0.0,0.0,0.0,0.0,0.0,0.0,0.0,0.0,0.0,0.0,0.0,0.0,0.0,0.0,0.0,0.0,0.0,0.0,0.0,0.0,0.2425,0.3121,0.4773,0.4932,0.5877,0.0,0.0,0.0,0.0,0.0,0.0,1.1953,1.2347,1.2501,1.2501,1.2501,1.2501,1.2501,1.2501,1.2501,1.2501,1.2501,0.0,0.0,0.0,0.0,0.0,0.0,0.0,0.0,0.0,0.0,0.0,0.0,0.0,0.0,0.0,0.0,0.0,0.0,0.0,0.0,0.0,0.0,0.0,0.0,0.0,0.0,0.0,0.0,0.0,0.0,0.0,0.0,0.0,0.0,0.0,0.0,0.0,0.0,0.0,0.0,0.0,0.0,0.0,0.0,0.0,0.0,0.0,0.0,0.0,0.0,0.0,0.0,0.0,0.0,0.0,0.0,0.0,0.0,0.0,0.0,0.0,0.0,0.0,0.6835,0.7008,0.7008,0.7021,0.8326,1.0406,0.8515,0.8766,1.0204,0.6403,0.0,0.0,0.0,0.0,0.0,0.0,0.0,0.0,0.0,0.0,0.0,0.0,0.0,0.0,0.0,0.0,0.0,0.0,0.0,0.0,0.0,0.0385,0.0464,0.0782,0.0783,0.1722,0.3756,0.0,0.0,0.0,0.0,0.0,0.9842,1.156,1.2501,1.2501,1.2501,1.2501,1.2501,1.2501,1.2501,1.2501,1.2501,1.2501,1.2501,0.0,0.0,0.0,0.0,0.0,0.0,0.0,0.0,0.0,0.0,0.0,0.0,0.0,0.0,0.0,0.0,0.0,0.0,0.0,0.0,0.0,0.0,0.0,0.0,0.0,0.0,0.0,0.0,0.0,0.0,0.0,0.0,0.0,0.0,0.0,0.0,0.0,0.0,0.0,0.0,0.0,1.3539,1.3539,0.0,0.0,0.0,0.0,0.0,0.0,0.0,0.0,0.0,0.0,0.0,0.0,0.0,0.6141,0.4064,0.5966,0.5885,0.3899,0.5802,0.6755,0.6755,0.6902,0.8245,1.0529,1.0273,0.0,1.0462,0.9855,0.0,0.0,0.0,0.0,0.0,0.0,0.0,0.0,0.0,0.0,0.0,0.0,0.0,0.0,0.0,0.0,0.0,0.0,0.0,0.0,0.0,0.1011,0.1714,0.1724,0.2819,0.3914,0.4849,0.5786,0.0,0.0,0.0,1.0314,0.9454,1.1405,1.2501,1.2501,1.2501,1.2501,1.2501,1.2501,1.2501,1.2501,1.2501,1.2501,1.2501,1.2501,0.0,0.0,0.0,0.0,0.0,0.0,0.0,0.0,0.0,0.0,0.0,0.0,0.0,0.0,0.0,0.0,0.0,0.0,0.0,0.0,0.0,0.0,0.0,0.0,0.0,0.0,0.0,0.0,0.0,0.0,0.0,0.0,0.0,0.0,0.0,0.0,0.0,0.0,0.0,1.2758,1.2715,1.0053,1.0088,0.9769,0.0,0.0,0.0,0.0,0.0,0.0,0.0,0.0,0.0,0.8544,0.6381,0.5248,0.5603,0.6528,0.6461,0.5475,0.6461,0.6908,0.6912,0.7031,0.7585,0.8668,1.0154,1.0755,1.0743,1.0621,0.9425,0.7483,0.0,0.0,0.0,0.0,0.554,0.5891,0.0,0.0,0.0,0.0,0.0,0.0,0.0,0.0,0.0,0.0,0.0,0.0,0.0706,0.2194,0.3286,0.3834,0.5396,0.6332,0.6332,0.6332,0.602,0.5474,0.7968,0.9138,0.8594,1.1172,1.2501,1.2501,1.2501,1.2501,1.2501,1.2501,1.2501,1.2501,1.2501,1.2501,1.2501,1.2501,1.2501,1.2501,0.0,0.0,0.0,0.0,0.0,0.0,0.0,0.0,0.0,0.0,0.0,0.0,0.0,0.0,0.0,0.0,0.0,0.0,0.0,0.0,0.0,0.0,0.0,0.0,0.0,0.0,0.0,0.0,0.0,0.0,0.0,0.0,0.0,0.0,0.0,0.0,0.0,1.1213,1.0681,0.7216,0.8358,0.8818,0.0,0.0,0.0,0.0,0.0,0.0,0.6145,0.4579,0.4688,0.7024,0.5449,0.5017,0.6198,0.6247,0.5902,0.5257,0.5257,0.5257,0.5257,0.5257,0.5626,0.6362,0.8932,0.994,1.0022,1.1231,1.1341,1.0615,0.8833,0.7744,0.7289,0.7937,0.8177,0.8448,0.0,0.0,0.0,0.0,0.0,0.0,0.0,0.0,0.0,0.0,0.0,0.0784,0.274,0.3052,0.3912,0.5942,0.6254,0.6332,0.6332,0.6332,0.5396,0.3365,0.7189,0.8439,0.6488,1.0469,1.2501,1.2501,1.2501,1.2501,1.2501,1.2501,1.2501,1.2501,1.2501,1.2501,1.2501,1.2501,1.2501,1.2501,1.2501,0.0,0.0,0.0,0.0,0.0,0.0,0.0,0.0,0.0,0.0,0.0,0.0,0.0,0.0,0.0,0.0,0.0,0.0,0.0,0.0,0.0,0.0,0.0,0.0,0.0,0.0,0.0,0.0,0.0,0.0,0.0,0.0,0.0,0.0,0.0,0.0,0.0,0.0,0.6939,0.7092,0.0,0.0,0.0,0.0,0.3954,0.1753,0.1384,0.3685,0.3687,0.4698,0.6997,0.6997,0.5897,0.3783,0.3785,0.2587,0.037,0.037,0.037,0.037,0.037,0.1573,0.3877,0.6448,0.7459,0.7646,1.2512,1.3151,1.112,1.1023,0.9551,0.7808,1.0191,1.1013,1.1292,0.0,0.0,0.0,0.0,0.0,0.0,0.0,0.0,0.0,0.0,0.0,0.0314,0.102,0.3523,0.4927,0.4303,0.6722,0.7111,0.4381,0.4224,0.3288,0.1177,0.3834,0.6251,0.8283,1.1095,1.2501,1.2501,1.2501,1.2501,1.2501,1.2501,1.2501,1.2501,1.2501,1.2501,1.2501,1.2501,1.2501,1.2501,1.2501,1.2501,0.0,0.0,0.0,0.0,0.0,0.0,0.0,0.0,0.0,0.0,0.0,0.0,0.0,0.0,0.0,0.0,0.0,0.0,0.0,0.0,0.0,0.0,0.0,0.0,0.0,0.0,0.0,0.0,0.0,0.0,0.0,0.0,0.0,0.0,0.0,0.0,0.0,0.2968,0.3901,0.0,0.2756,0.3215,0.3587,0.3692,0.4246,0.4981,0.581,0.443,0.3969,0.4799,0.3346,0.2147,0.1308,0.1317,0.0849,0.0,0.0,0.0,0.0,0.0,0.0472,0.1414,0.3952,0.5075,0.5265,0.8731,1.0523,1.114,1.2798,1.2889,1.2243,1.3169,1.3443,1.354,0.0,0.0,0.0,0.0,0.0,0.0,0.0,0.0,0.0,0.0,0.0,0.0235,0.0941,0.3523,0.4927,0.4224,0.6722,0.7189,0.4381,0.3521,0.2506,0.1098,0.3053,0.6173,1.0314,1.1798,1.2501,1.2501,1.2501,1.2501,1.2501,1.2501,1.2501,1.2501,1.2501,1.2501,1.2501,1.2501,1.2501,1.2501,1.2501,1.2501,1.2501,0.0,0.0,0.0,0.0,0.0,0.0,0.0,0.0,0.0,0.0,0.0,0.0,0.0,0.0,0.0,0.0,0.0,0.0,0.0,0.0,0.0,0.0,0.0,0.0,0.0,0.0,0.0,0.0,0.0,0.0,0.0,0.0,0.0,0.0,0.6061,0.5295,0.055,0.2118,0.296,0.1393,0.2693,0.3625,0.3637,0.4289,0.4661,0.4661,0.3267,0.2428,0.2428,0.0847,0.0,0.0,0.0,0.0,0.0,0.0,0.0,0.0,0.0,0.0,0.0095,0.2665,0.3329,0.276,0.6174,0.8004,0.8833,1.2275,1.4145,1.4889,1.4889,1.4889,1.4889,0.0,0.0,0.0,0.0,0.0,0.0,0.0,0.0,0.0,0.0,0.0,0.0785,0.2819,0.3052,0.3912,0.5942,0.6176,0.6176,0.6101,0.4146,0.3052,0.313,0.5162,0.8205,1.2347,1.2501,1.2501,1.2501,1.2501,1.2501,1.2501,1.2501,1.2501,1.2501,1.2501,1.2501,1.2501,1.2501,1.2501,1.2501,1.2501,1.2501,1.2501,0.0,0.0,0.0,0.0,0.0,0.0,0.0,0.0,0.0,0.0,0.0,0.0,0.0,0.0,0.0,0.0,0.0,0.0,0.0,0.0,0.0,0.0,0.0,0.0,0.0,0.0,0.0,0.0,0.0,0.0,0.0,0.0,0.0,0.6816,0.314,0.0093,0.0,0.2035,0.3526,0.3652,0.3563,0.3577,0.3705,0.1429,0.0,0.0,0.0,0.0,0.0,0.0,0.0,0.0,0.0,0.0,0.0,0.0,0.0,0.0,0.0,0.0,0.0095,0.257,0.2285,0.0382,0.5323,0.5984,0.4276,0.9299,1.281,1.4993,1.4993,1.4993,1.5087,0.0,0.0,0.0,0.0,0.0,0.0,0.0,0.0,0.0,0.0,0.0,0.0236,0.0784,0.2194,0.274,0.1803,0.3132,0.3366,0.1803,0.1177,0.149,0.3052,0.5162,0.7501,1.0153,1.1714,1.2501,1.2501,1.2501,1.2501,1.2501,1.2501,1.2501,1.2501,1.2501,1.2501,1.2501,1.2501,1.2501,1.2501,1.2501,1.2501,1.2515,0.0,0.0,0.0,0.0,0.0,0.0,0.0,0.0,0.0,0.0,0.0,0.0,0.0,0.0,0.0,0.0,0.0,0.0,0.0,0.0,0.0,0.0,0.0,0.0,0.0,0.0,0.0,0.0,0.0,0.0,0.0,0.1776,0.1213,0.1943,0.2325,0.1963,0.0187,0.0565,0.1041,0.1044,0.1045,0.1046,0.1048,0.0382,0.0,0.0,0.0,0.0,0.0,0.0,0.0,0.0,0.0,0.0,0.0,0.0,0.0,0.0,0.0,0.0,0.0,0.0763,0.0668,0.0095,0.1525,0.276,0.4086,0.7406,0.9109,0.9677,0.9677,1.0814,1.2145,0.0,0.0,0.0,0.0,0.0,0.0,0.0,0.0,0.0,0.0,0.0,0.0,0.0,0.1098,0.1333,0.0079,0.1098,0.1254,0.0079,0.0,0.0941,0.2974,0.4303,0.6332,0.9299,1.0546,1.1637,1.2501,1.2501,1.2501,1.2501,1.2501,1.2501,1.2501,1.2501,1.2501,1.2508,1.2569,1.2596,1.2525,1.1632,1.1782,1.2532,1.1725,1.1378,1.1311,1.0495,0.9416,0.8315,0.8315,0.0,0.0,0.0,0.0,0.0,0.0,0.0,0.0,0.0,0.0,0.0,0.0,0.0,0.0,0.0,0.0,0.0,0.0,0.0,0.0,0.0,0.0,0.0,0.0,0.0945,0.0,0.0,0.1224,0.1607,0.0189,0.0,0.0,0.0,0.0,0.0,0.0,0.0,0.0,0.0,0.0,0.0,0.0,0.0,0.0,0.0,0.0,0.0,0.0,0.0,0.0,0.0,0.0,0.0,0.0,0.0,0.0,0.0,0.0,0.0869,0.0,0.0,0.0,0.0,0.0,0.9204,1.1197,0.0,0.0,0.0,0.0,0.0,0.0,0.0,0.0,0.0,0.0,0.0,0.0,0.0,0.0,0.0,0.0,0.0,0.0,0.0,0.0,0.0941,0.2974,0.313,0.5003,0.8983,0.9061,0.992,1.1798,1.1798,1.1798,1.1798,1.1798,1.1798,1.1798,1.1798,1.1805,1.183,1.1958,1.1944,1.1805,1.0008,1.0467,1.2134,1.0014,0.9244,0.9002,0.7066,0.6299,0.619,0.619,0.0,0.0,0.0,0.0,0.0,0.0,0.0,0.0,0.0,0.0,0.0,0.0,0.0,0.0,0.0,0.0,0.0,0.0,0.0,0.0,0.0,0.0,0.0,0.0,0.0,0.0,0.0,0.0,0.0,0.0,0.0,0.0,0.0,0.0,0.0,0.0,0.0,0.0,0.0,0.0,0.0,0.0,0.0,0.0,0.0,0.0,0.0,0.0,0.0,0.0,0.0,0.0,0.0,0.0,0.0,0.0,0.0,0.0,0.0,0.0196,0.2499,0.4768,0.6764,0.6764,0.8569,1.0948,0.0,0.0,0.0,0.0,0.0,0.0,0.0,0.0,0.0,0.0,0.0,0.0,0.0,0.0,0.0,0.0,0.0,0.0,0.0,0.0,0.0941,0.2974,0.313,0.4303,0.6878,0.6878,0.7111,0.7501,0.7501,0.7501,0.7501,0.7501,0.7501,0.7501,0.7501,0.7463,0.7532,0.7552,0.7517,0.7504,0.7188,0.8315,0.9933,0.7925,0.714,0.7066,0.6718,0.5505,0.4013,0.4013,0.2767,0.1262,0.1262,0.1015,0.0,0.0,0.0,0.0,0.0,0.0,0.0,0.0,0.0,0.0,0.0,0.0,0.0,0.0,0.0,0.0,0.0,0.0,0.0,0.0,0.0,0.0,0.0,0.0,0.0,0.0,0.0,0.0,0.0,0.0,0.0,0.0,0.0,0.0,0.0,0.0,0.0,0.0,0.0,0.0,0.0,0.0,0.0,0.0,0.0,0.0,0.0,0.0,0.0,0.0,0.0,0.0,0.0,0.0,0.0,0.0,0.0586,0.1073,0.1462,0.1462,0.4475,0.816,0.0,0.0,0.0,0.0,0.0,0.0,0.0,0.0,0.0,0.0,0.0,0.0,0.0,0.0,0.0,0.0,0.0,0.0,0.0,0.0,0.0471,0.149,0.1568,0.2506,0.4615,0.4693,0.524,0.6332,0.6332,0.6332,0.6332,0.6332,0.6332,0.6336,0.6295,0.6332,0.6294,0.6368,0.6418,0.6292,0.5377,0.5551,0.6348,0.5308,0.4904,0.4743,0.3685,0.2603,0.1681,0.1681,0.0929,0.0,0.0,0.0,0.0,0.0,0.0,0.0,0.0,0.0,0.0,0.0,0.0,0.0,0.0,0.0,0.0,0.0,0.0,0.0,0.0,0.0,0.0,0.0,0.0,0.0,0.0,0.0,0.0,0.0,0.0,0.0,0.0,0.0,0.0,0.0,0.0,0.0,0.0,0.0,0.0,0.0,0.0,0.0,0.0,0.0,0.0,0.0,0.0,0.0,0.0,0.0,0.0,0.0,0.0,0.0,0.0,0.0,0.0,0.0,0.0,0.0,0.0,0.0,0.3328,0.7619,0.0,0.0,0.0,0.0,0.0,0.0,0.0,0.0,0.0,0.0,0.0,0.0,0.0,0.0,0.0,0.0,0.0,0.0,0.0,0.0,0.0,0.0,0.0,0.0784,0.2427,0.2506,0.3366,0.5086,0.5086,0.5086,0.5086,0.5086,0.5092,0.5106,0.5076,0.5112,0.5059,0.5153,0.5198,0.5129,0.3428,0.2687,0.2687,0.2687,0.2687,0.2436,0.0673,0.0,0.0,0.0,0.0,0.0,0.0,0.0,0.0,0.0,0.0,0.0,0.0,0.0,0.0,0.0,0.0,0.0,0.0,0.0,0.0,0.0,0.0,0.0,0.0,0.0,0.0,0.0,0.0,0.0,0.0,0.0,0.0,0.0,0.0,0.0,0.0,0.0,0.0,0.0,0.0,0.0,0.0,0.0,0.0,0.0,0.0,0.0,0.0,0.0,0.0,0.0,0.0,0.0,0.0,0.0,0.0,0.0,0.0,0.0,0.0,0.0,0.0,0.0,0.0,0.0,0.0,0.0,0.3347,0.776,0.0,0.0,0.0,0.0,0.0,0.0,0.0,0.0,0.0,0.0,0.0,0.0,0.0,0.0,0.0,0.0,0.0,0.0,0.0,0.0,0.0,0.0,0.0,0.0079,0.0314,0.0314,0.0471,0.0706,0.0706,0.0706,0.0706,0.0706,0.0711,0.0718,0.0719,0.0727,0.0742,0.0744,0.0749,0.0672,0.0505,0.0337,0.0337,0.0337,0.0337,0.0337,0.0084,0.0,0.0,0.0,0.0,0.0,0.0,0.0,0.0,0.0,0.0,0.0,0.0,0.0,0.0,0.0,0.0,0.0,0.0,0.0,0.0,0.0,0.0,0.0,0.0,0.0,0.0,0.0,0.0,0.0,0.0,0.0,0.0,0.0,0.0,0.0,0.0,0.0,0.0,0.0,0.0,0.0,0.0,0.0,0.0,0.0,0.0,0.0,0.0,0.0,0.0,0.0,0.0,0.0,0.0,0.0,0.0,0.0,0.0,0.0,0.0,0.0,0.0,0.0,0.0,0.0,0.0,0.0,0.3414,0.7614,0.0,0.0,0.0,0.0,0.0,0.0,0.0,0.0,0.0,0.0,0.0,0.0,0.0,0.0,0.0,0.0,0.0,0.0,0.0,0.0,0.0,0.0,0.0,0.0,0.0,0.0,0.0,0.0,0.0,0.0,0.0,0.0,0.0,0.0,0.0,0.0,0.0,0.0,0.0,0.0,0.0,0.0,0.0,0.0,0.0,0.0,0.0,0.0,0.0,0.0,0.0,0.0,0.0,0.0,0.0,0.0,0.0,0.0,0.0,0.0,0.0,0.0,0.0,0.0,0.0,0.0,0.0,0.0,0.0,0.0,0.0,0.0,0.0,0.0,0.0,0.0,0.0,0.0,0.0,0.0,0.0,0.0,0.0,0.0,0.0,0.0,0.0,0.0,0.0,0.0,0.0,0.0,0.0,0.0,0.0,0.0,0.0,0.0,0.0,0.0,0.0,0.0,0.0,0.0,0.0,0.0,0.0,0.0,0.0,0.0,0.0,0.0,0.0207,0.185,0.4909,0.8269,0.0,0.0,0.0,0.0,0.0,0.0,0.0,0.0,0.0,0.0,0.0,0.0,0.0,0.0,0.0,0.0,0.0,0.0,0.0,0.0,0.0,0.0,0.0,0.0,0.0,0.0,0.0,0.0,0.0,0.0,0.0,0.0,0.0,0.0,0.0,0.0,0.0,0.0,0.0,0.0,0.0,0.0,0.0,0.0,0.0,0.0,0.0,0.0,0.0,0.0,0.0,0.0,0.0,0.0,0.0,0.0,0.0,0.0,0.0,0.0,0.0,0.0,0.0,0.0,0.0,0.0,0.0,0.0,0.0,0.0,0.0,0.0,0.0,0.0,0.0,0.0,0.0,0.0,0.0,0.0,0.0,0.0,0.0,0.0,0.0,0.0,0.0,0.0,0.0,0.0,0.0,0.0,0.0,0.0,0.0,0.0,0.0,0.0,0.0,0.0,0.0,0.0,0.0,0.0,0.0,0.0,0.0,0.0,0.0,0.0,0.0,0.0,0.0418,0.4067,0.664,0.8568,0.0,0.0,0.0,0.0,0.0,0.0,0.0,0.0,0.0,0.0,0.0,0.0,0.0,0.0,0.0,0.0,0.0,0.0,0.0,0.0,0.0,0.0,0.0,0.0,0.0,0.0,0.0,0.0,0.0,0.0,0.0,0.0,0.0,0.0,0.0,0.0,0.0,0.0,0.0,0.0,0.0,0.0,0.0,0.0,0.0,0.0,0.0,0.0,0.0,0.0,0.0,0.0,0.0,0.0,0.0,0.0,0.0,0.0,0.0,0.0,0.0,0.0,0.0,0.0,0.0,0.0,0.0,0.0,0.0,0.0,0.0,0.0,0.0,0.0,0.0,0.0,0.0,0.0,0.0,0.0,0.0,0.0,0.0,0.0,0.0,0.0,0.0,0.0,0.0,0.0,0.0,0.0,0.0,0.0,0.0,0.0,0.0,0.0,0.0,0.0,0.0,0.0,0.0,0.0,0.0,0.0,0.0,0.0,0.0,0.0,0.0,0.0,0.0639,0.6258,0.8385,0.8362,0.0,0.0,0.0,0.0,0.0,0.0,0.0,0.0,0.0,0.0,0.0,0.0,0.0,0.0,0.0,0.0,0.0,0.0,0.0,0.0,0.0,0.0,0.0,0.0,0.0,0.0,0.0,0.0,0.0,0.0,0.0,0.0,0.0,0.0,0.0,0.0,0.0,0.0,0.0,0.0,0.0,0.0,0.0,0.0,0.0,0.0,0.0,0.0,0.0,0.0,0.0,0.0,0.0,0.0,0.0,0.0,0.0,0.0,0.0,0.0,0.0,0.0,0.0,0.0,0.0,0.0,0.0,0.0,0.0,0.0,0.0,0.0,0.0,0.0,0.0,0.0,0.0,0.0,0.0,0.0,0.0,0.0,0.0,0.0,0.0,0.0,0.0,0.0,0.0,0.0,0.0,0.0,0.0,0.0,0.0,0.0,0.0,0.0,0.0,0.0,0.0,0.0,0.0,0.0,0.0,0.0,0.0,0.0,0.0,0.0,0.0,0.0,0.0426,0.4251,0.6874,0.8724,0.0,0.0,0.0,0.0,0.0,0.0,0.0,0.0,0.0,0.0,0.0,0.0,0.0,0.0,0.0,0.0,0.0,0.0,0.0,0.0,0.0,0.0,0.0,0.0,0.0,0.0,0.0,0.0,0.0,0.0,0.0,0.0,0.0,0.0,0.0,0.0,0.0,0.0,0.0,0.0,0.0,0.0,0.0,0.0,0.0,0.0,0.0,0.0,0.0,0.0,0.0,0.0,0.0,0.0,0.0,0.0,0.0,0.0,0.0,0.0,0.0,0.0,0.0,0.0,0.0,0.0,0.0,0.0,0.0,0.0,0.0,0.0,0.0,0.0,0.0,0.0,0.0,0.0,0.0,0.0,0.0,0.0,0.0,0.0,0.0,0.0,0.0,0.0,0.0,0.0,0.0,0.0,0.0,0.0,0.0,0.0,0.0,0.0,0.0,0.0,0.0,0.0,0.0,0.0,0.0,0.0,0.0,0.0,0.0,0.0,0.0,0.0,0.032,0.3191,0.6054,0.8911,0.0,0.0,0.0,0.0,0.0,0.0,0.0,0.0,0.0,0.0,0.0,0.0,0.0,0.0,0.0,0.0,0.0,0.0,0.0,0.0,0.0,0.0,0.0,0.0,0.0,0.0,0.0,0.0,0.0,0.0,0.0,0.0,0.0,0.0,0.0,0.0,0.0,0.0,0.0,0.0,0.0,0.0,0.0,0.0,0.0,0.0,0.0,0.0,0.0,0.0,0.0,0.0,0.0,0.0,0.0,0.0,0.0,0.0,0.0,0.0,0.0,0.0,0.0,0.0,0.0,0.0,0.0,0.0,0.0,0.0,0.0,0.0,0.0,0.0,0.0,0.0,0.0,0.0,0.0,0.0,0.0,0.0,0.0,0.0,0.0,0.0,0.0,0.0,0.0,0.0,0.0,0.0,0.0,0.0,0.0,0.0,0.0,0.0,0.0,0.0,0.0,0.0,0.0,0.0,0.0,0.0,0.0,0.0,0.0,0.0,0.0,0.0,0.032,0.3191,0.6054,0.8911,0.0,0.0,0.0,0.0,0.0,0.0,0.0,0.0,0.0,0.0,0.0,0.0,0.0,0.0,0.0,0.0,0.0,0.0,0.0,0.0,0.0,0.0,0.0,0.0,0.0,0.0,0.0,0.0,0.0,0.0,0.0,0.0,0.0,0.0,0.0,0.0,0.0,0.0,0.0,0.0,0.0,0.0,0.0,0.0,0.0,0.0,0.0,0.0,0.0,0.0,0.0,0.0,0.0,0.0,0.0,0.0,0.0,0.0,0.0,0.0,0.0,0.0,0.0,0.0,0.0,0.0,0.0,0.0,0.0,0.0,0.0,0.0,0.0,0.0,0.0,0.0,0.0,0.0,0.0,0.0,0.0,0.0,0.0,0.0,0.0,0.0,0.0,0.0,0.0,0.0,0.0,0.0,0.0,0.0,0.0,0.0,0.0,0.0,0.0,0.0,0.0,0.0,0.0,0.0,0.0,0.0,0.0,0.0,0.0,0.0,0.0,0.0,0.032,0.3191,0.6054,0.8911,0.0,0.0,0.0,0.0,0.0,0.0,0.0,0.0,0.0,0.0,0.0,0.0,0.0,0.0,0.0,0.0,0.0,0.0,0.0,0.0,0.0,0.0,0.0,0.0,0.0,0.0,0.0,0.0,0.0,0.0,0.0,0.0,0.0,0.0,0.0,0.0,0.0,0.0,0.0,0.0,0.0,0.0,0.0,0.0,0.0,0.0,0.0,0.0,0.0,0.0,0.0,0.0,0.0,0.0,0.0,0.0,0.0,0.0,0.0,0.0,0.0,0.0,0.0,0.0,0.0,0.0,0.0,0.0,0.0,0.0,0.0,0.0,0.0,0.0,0.0,0.0,0.0,0.0,0.0,0.0,0.0,0.0,0.0,0.0,0.0,0.0,0.0,0.0,0.0,0.0,0.0,0.0,0.0,0.0,0.0,0.0,0.0,0.0,0.0,0.0,0.0,0.0,0.0,0.0,0.0,0.0,0.0,0.0,0.0,0.0,0.0,0.0746,0.2022,0.3615,0.6793,1.0602,0.0,0.0,0.0,0.0,0.0,0.0,0.0,0.0,0.0,0.0,0.0,0.0,0.0,0.0,0.0,0.0,0.0,0.0,0.0,0.0,0.0,0.0,0.0,0.0,0.0,0.0,0.0,0.0,0.0,0.0,0.0,0.0,0.0,0.0,0.0,0.0,0.0,0.0,0.0,0.0,0.0,0.0,0.0,0.0,0.0,0.0,0.0,0.0,0.0,0.0,0.0,0.0,0.0,0.0,0.0,0.0,0.0,0.0,0.0,0.0,0.0,0.0,0.0,0.0,0.0,0.0,0.0,0.0,0.0,0.0,0.0,0.0,0.0,0.0,0.0,0.0,0.0,0.0,0.0,0.0,0.0,0.0,0.0,0.0,0.0,0.0,0.0,0.0,0.0,0.0,0.0,0.0,0.0,0.0,0.0,0.0,0.0,0.0,0.0,0.0,0.0,0.0,0.0,0.0,0.0,0.0,0.0,0.0,0.0213,0.0533,0.0533,0.2342,0.4792,0.5215,0.8508,1.2868,0.0,0.0,0.0,0.0,0.0,0.0,0.0,0.0,0.0,0.0,0.0,0.0,0.0,0.0,0.0,0.0,0.0,0.0,0.0,0.0,0.0,0.0,0.0,0.0,0.0,0.0,0.0,0.0,0.0,0.0,0.0,0.0,0.0,0.0,0.0,0.0,0.0,0.0,0.0,0.0,0.0,0.0,0.0,0.0,0.0,0.0,0.0,0.0,0.0,0.0,0.0,0.0,0.0,0.0,0.0,0.0,0.0,0.0,0.0,0.0,0.0,0.0,0.0,0.0,0.0,0.0,0.0,0.0,0.0,0.0,0.0,0.0,0.0,0.0,0.0,0.0,0.0,0.0,0.0,0.0,0.0,0.0,0.0,0.0,0.0,0.0,0.0,0.0,0.0,0.0,0.0,0.0,0.0,0.0,0.0,0.0,0.0,0.0,0.0,0.0,0.0,0.0,0.0,0.0,0.0,0.0,0.0,0.0,0.1384,0.3509,0.3509,0.5336,0.8262,1.0614,1.2165,1.3438,0.0,0.0,0.0,0.0,0.0,0.0,0.0,0.0,0.0,0.0,0.0,0.0,0.0,0.0,0.0,0.0,0.0,0.0,0.0,0.0,0.0,0.0,0.0,0.0,0.0,0.0,0.0,0.0,0.0,0.0,0.0,0.0,0.0,0.0,0.0,0.0,0.0,0.0,0.0,0.0,0.0,0.0,0.0,0.0,0.0,0.0,0.0,0.0,0.0,0.0,0.0,0.0,0.0,0.0,0.0,0.0,0.0,0.0,0.0,0.0,0.0,0.0,0.0,0.0,0.0,0.0,0.0,0.0,0.0,0.0,0.0,0.0,0.0,0.0,0.0,0.0,0.0,0.0,0.0,0.0,0.0,0.0,0.0,0.0,0.0,0.0,0.0,0.0,0.0,0.0,0.0,0.0,0.0,0.0,0.0,0.0,0.0,0.0,0.0,0.0,0.0,0.0,0.0,0.0,0.0,0.0852,0.2235,0.2235,0.3944,0.6522,0.6522,0.8379,1.125,1.2546,1.41,1.5566,0.0,0.0,0.0,0.0,0.0,0.0,0.0,0.0,0.0,0.0,0.0,0.0,0.0,0.0,0.0,0.0,0.0,0.0,0.0,0.0,0.0,0.0,0.0,0.0,0.0,0.0,0.0,0.0,0.0,0.0,0.0,0.0,0.0,0.0,0.0,0.0,0.0,0.0,0.0,0.0,0.0,0.0,0.0,0.0,0.0,0.0,0.0,0.0,0.0,0.0,0.0,0.0,0.0,0.0,0.0,0.0,0.0,0.0,0.0,0.0,0.0,0.0,0.0,0.0,0.0,0.0,0.0,0.0,0.0,0.0,0.0,0.0,0.0,0.0,0.0,0.0,0.0,0.0,0.0,0.0,0.0,0.0,0.0,0.0,0.0,0.0,0.0,0.0,0.0,0.0,0.0,0.0,0.0,0.0,0.0,0.0,0.0,0.0,0.0,0.0,0.0,0.0,0.0,0.0,0.0639,0.2129,0.4253,0.4888,0.6938,0.9672,0.9672,1.1465,1.4188,1.4188,1.5518,1.7514,0.0,0.0,0.0,0.0,0.0,0.0,0.0,0.0,0.0,0.0,0.0,0.0,0.0,0.0,0.0,0.0,0.0,0.0,0.0,0.0,0.0,0.0,0.0,0.0,0.0,0.0,0.0,0.0,0.0,0.0,0.0,0.0,0.0,0.0,0.0,0.0,0.0,0.0,0.0,0.0,0.0,0.0,0.0,0.0,0.0,0.0,0.0,0.0,0.0,0.0,0.0,0.0,0.0,0.0,0.0,0.0,0.0,0.0,0.0,0.0,0.0,0.0,0.0,0.0,0.0,0.0,0.0,0.0,0.0,0.0,0.0,0.0,0.0,0.0,0.0,0.0,0.0,0.0,0.0,0.0,0.0,0.0,0.0,0.0,0.0,0.0,0.0,0.0,0.0,0.0,0.0,0.0,0.0,0.0,0.0,0.0,0.0,0.0,0.0,0.0,0.0,0.0,0.0,0.0107,0.266,0.3934,0.0,0.7005,0.9914,1.2569,1.2569,1.4542,1.7186,1.7186,1.7492,1.7826,0.0,0.0,0.0,0.0,0.0,0.0,0.0,0.0,0.0,0.0,0.0,0.0,0.0,0.0,0.0,0.0,0.0,0.0,0.0,0.0,0.0,0.0,0.0,0.0,0.0,0.0,0.0,0.0,0.0,0.0,0.0,0.0,0.0,0.0,0.0,0.0,0.0,0.0,0.0,0.0,0.0,0.0,0.0,0.0,0.0,0.0,0.0,0.0,0.0,0.0,0.0,0.0,0.0,0.0,0.0,0.0,0.0,0.0,0.0,0.0,0.0,0.0,0.0,0.0,0.0,0.0,0.0,0.0,0.0,0.0,0.0,0.0,0.0,0.0,0.0,0.0,0.0,0.0,0.0,0.0,0.0,0.0,0.0,0.0,0.0,0.0,0.0,0.0,0.0,0.0,0.0,0.0,0.0,0.0,0.0,0.0,0.0,0.0,0.0,0.0,0.0,0.0,0.0958,0.2553,0.3722,0.616,0.0,1.0602,1.2787,1.5585,1.5671,1.6474,1.7554,1.7738,1.7812,1.786,0.0,0.0,0.0,0.0,0.0,0.0,0.0,0.0,0.0,0.0,0.0,0.0,0.0,0.0,0.0,0.0,0.0,0.0,0.0,0.0,0.0,0.0,0.0,0.0,0.0,0.0,0.0,0.0,0.0,0.0,0.0,0.0,0.0,0.0,0.0,0.0,0.0,0.0,0.0,0.0,0.0,0.0,0.0,0.0,0.0,0.0,0.0,0.0,0.0,0.0,0.0,0.0,0.0,0.0,0.0,0.0,0.0,0.0,0.0,0.0,0.0,0.0,0.0,0.0,0.0,0.0,0.0,0.0,0.0,0.0,0.0,0.0,0.0,0.0,0.0,0.0,0.0,0.0,0.0,0.0,0.0,0.0,0.0,0.0,0.0,0.0,0.0,0.0,0.0,0.0,0.0,0.0,0.0,0.0,0.0,0.0,0.0,0.0,0.0,0.0,0.0,0.0852,0.2341,0.4253,0.5947,0.9016,0.0,1.3569,1.5238,1.7202,1.7311,1.7473,1.7663,1.7758,1.7826,1.786,0.0,0.0,0.0,0.0,0.0,0.0,0.0,0.0,0.0,0.0,0.0,0.0,0.0,0.0,0.0,0.0,0.0,0.0,0.0,0.0,0.0,0.0,0.0,0.0,0.0,0.0,0.0,0.0,0.0,0.0,0.0,0.0,0.0,0.0,0.0,0.0,0.0,0.0,0.0,0.0,0.0,0.0,0.0,0.0,0.0,0.0,0.0,0.0,0.0,0.0,0.0,0.0,0.0,0.0,0.0,0.0,0.0,0.0,0.0,0.0,0.0,0.0,0.0,0.0,0.0,0.0,0.0,0.0,0.0,0.0,0.0,0.0,0.0,0.0,0.0,0.0,0.0,0.0,0.0,0.0,0.0,0.0,0.0,0.0,0.0,0.0,0.0,0.0,0.0,0.0,0.0,0.0,0.0,0.0,0.0,0.0,0.0,0.0,0.0,0.0,0.0107,0.2872,0.4147,0.4464,1.0179,1.2611,0.0,1.5803,1.7066,1.7195,1.7195,1.7378,1.765,1.765,1.7738,1.786,0.0,0.0,0.0,0.0,0.0,0.0,0.0,0.0,0.0,0.0,0.0,0.0,0.0,0.0,0.0,0.0,0.0,0.0,0.0,0.0,0.0,0.0,0.0,0.0,0.0,0.0,0.0,0.0,0.0,0.0,0.0,0.0,0.0,0.0,0.0,0.0,0.0,0.0,0.0,0.0,0.0,0.0,0.0,0.0,0.0,0.0,0.0,0.0,0.0,0.0,0.0,0.0,0.0,0.0,0.0,0.0,0.0,0.0,0.0,0.0,0.0,0.0,0.0,0.0,0.0,0.0,0.0,0.0,0.0,0.0,0.0,0.0,0.0,0.0,0.0,0.0,0.0,0.0,0.0,0.0,0.0,0.0,0.0,0.0,0.0,0.0,0.0,0.0,0.0,0.0,0.0,0.0,0.0,0.0,0.0,0.0,0.0,0.0,0.1932,0.2872,0.2979,0.5841,0.817,1.0074,1.1868,1.378,1.5697,1.6656,1.7005,1.706,1.7154,1.7317,1.7507,1.7609,1.7738,1.786,0.0,0.0,0.0,0.0,0.0,0.0,0.0,0.0,0.0,0.0,0.0,0.0,0.0,0.0,0.0,0.0,0.0,0.0,0.0,0.0,0.0,0.0,0.0,0.0,0.0,0.0,0.0,0.0,0.0,0.0,0.0,0.0,0.0,0.0,0.0,0.0,0.0,0.0,0.0,0.0,0.0,0.0,0.0,0.0,0.0,0.0,0.0,0.0,0.0,0.0,0.0,0.0,0.0,0.0,0.0,0.0,0.0,0.0,0.0,0.0,0.0,0.0,0.0,0.0,0.0,0.0,0.0,0.0,0.0,0.0,0.0,0.0,0.0,0.0,0.0,0.0,0.0,0.0,0.0,0.0,0.0,0.0,0.0,0.0,0.0,0.0,0.0,0.0,0.0,0.0,0.0,0.0,0.0,0.0,0.0,0.0,0.0546,0.1631,0.332,0.4782,0.5947,0.8805,1.1024,1.2716,1.3885,1.5376,0.0,1.6978,1.6978,1.6992,1.708,1.7202,1.7351,1.7507,1.765,1.7792,0.0,0.0,0.0,0.0,0.0,0.0,0.0,0.0,0.0,0.0,0.0,0.0,0.0,0.0,0.0,0.0,0.0,0.0,0.0,0.0,0.0,0.0,0.0,0.0,0.0,0.0,0.0,0.0,0.0,0.0,0.0,0.0,0.0,0.0,0.0,0.0,0.0,0.0,0.0,0.0,0.0,0.0,0.0,0.0,0.0,0.0,0.0,0.0,0.0,0.0,0.0,0.0,0.0,0.0,0.0,0.0,0.0,0.0,0.0,0.0,0.0,0.0,0.0,0.0,0.0,0.0,0.0,0.0,0.0,0.0,0.0,0.0,0.0,0.0,0.0,0.0,0.0,0.0,0.0,0.0,0.0,0.0,0.0,0.0,0.0,0.0,0.0,0.0,0.0,0.0,0.0,0.0,0.0,0.0,0.0,0.022,0.1631,0.4201,0.459,0.616,0.8911,1.1767,1.3037,0.0,1.5803,1.6978,1.6978,1.6978,1.6978,1.6978,1.6978,1.7066,1.7209,1.7365,1.7514,1.767,0.0,0.0,0.0,0.0,0.0,0.0,0.0,0.0,0.0,0.0,0.0,0.0,0.0,0.0,0.0,0.0,0.0,0.0,0.0,0.0,0.0,0.0,0.0,0.0,0.0,0.0,0.0,0.0,0.0,0.0,0.0,0.0,0.0,0.0,0.0,0.0,0.0,0.0,0.0,0.0,0.0,0.0,0.0,0.0,0.0,0.0,0.0,0.0,0.0,0.0,0.0,0.0,0.0,0.0,0.0,0.0,0.0,0.0,0.0,0.0,0.0,0.0,0.0,0.0,0.0,0.0,0.0,0.0,0.0,0.0,0.0,0.0,0.0,0.0,0.0,0.0,0.0,0.0,0.0,0.0,0.0,0.0,0.0,0.0,0.0,0.0,0.0,0.0,0.0,0.0,0.0,0.0,0.0,0.0,0.0,0.2181,0.3564,0.4201,0.8628,1.1024,1.1767,1.4633,1.6019,1.6019,1.6663,1.6978,1.6978,1.6978,1.6978,1.6978,1.6978,1.7066,1.7209,1.7365,1.7514,1.767,0.0,0.0,0.0,0.0,0.0,0.0,0.0,0.0,0.0,0.0,0.0,0.0,0.0,0.0,0.0,0.0,0.0,0.0,0.0,0.0,0.0,0.0,0.0,0.0,0.0,0.0,0.0,0.0,0.0,0.0,0.0,0.0,0.0,0.0,0.0,0.0,0.0,0.0,0.0,0.0,0.0,0.0,0.0,0.0,0.0,0.0,0.0,0.0,0.0,0.0,0.0,0.0,0.0,0.0,0.0,0.0,0.0,0.0,0.0,0.0,0.0,0.0,0.0,0.0,0.0,0.0,0.0,0.0,0.0,0.0,0.0,0.0,0.0,0.0,0.0,0.0,0.0,0.0,0.0,0.0,0.0,0.0,0.0,0.0,0.0,0.0,0.0,0.0,0.0,0.0,0.0,0.0,0.1213,0.1976,0.197,0.3465,0.5478,0.8122,1.1262,1.3353,1.4739,1.6341,1.6978,1.6978,1.6978,1.6978,1.6978,1.6978,1.6978,1.6978,1.6978,1.7026,1.7114,1.7263,1.7412,1.7561,0.0,0.0,0.0,0.0,0.0,0.0,0.0,0.0,0.0,0.0,0.0,0.0,0.0,0.0,0.0,0.0,0.0,0.0,0.0,0.0,0.0,0.0,0.0,0.0,0.0,0.0,0.0,0.0,0.0,0.0,0.0,0.0,0.0,0.0,0.0,0.0,0.0,0.0,0.0,0.0,0.0,0.0,0.0,0.0,0.0,0.0,0.0,0.0,0.0,0.0,0.0,0.0,0.0,0.0,0.0,0.0,0.0,0.0,0.0,0.0,0.0,0.0,0.0,0.0,0.0,0.0,0.0,0.0,0.0,0.0,0.0,0.0,0.0,0.0,0.0,0.0,0.0,0.0,0.0,0.0,0.0,0.0,0.0,0.0,0.0,0.0,0.0,0.0,0.0,0.0,0.0223,0.0664,0.2955,0.4661,0.548,0.5478,0.7909,1.2716,1.3143,1.4633,1.6978,1.6978,1.6978,1.6978,1.6978,1.6978,1.6978,1.6978,1.6978,1.6978,1.6978,1.6978,1.6998,1.7141,1.7277,1.7412,0.0,0.0,0.0,0.0,0.0,0.0,0.0,0.0,0.0,0.0,0.0,0.0,0.0,0.0,0.0,0.0,0.0,0.0,0.0,0.0,0.0,0.0,0.0,0.0,0.0,0.0,0.0,0.0,0.0,0.0,0.0,0.0,0.0,0.0,0.0,0.0,0.0,0.0,0.0,0.0,0.0,0.0,0.0,0.0,0.0,0.0,0.0,0.0,0.0,0.0,0.0,0.0,0.0,0.0,0.0,0.0,0.0,0.0,0.0,0.0,0.0,0.0,0.0,0.0,0.0,0.0,0.0,0.0,0.0,0.0,0.0,0.0,0.0,0.0,0.0,0.0,0.0,0.0,0.0,0.0,0.0,0.0,0.0,0.0,0.0,0.0,0.0,0.0,0.0,0.0,0.1105,0.3499,0.4011,0.6548,1.1368,1.1363,1.1781,1.2716,1.5165,1.6551,1.6978,1.6978,1.6978,1.6978,1.6978,1.6978,1.6978,1.6978,1.6978,1.6978,1.6978,1.6978,1.6998,1.7141,1.7209,1.727,0.0,0.0,0.0,0.0,0.0,0.0,0.0,0.0,0.0,0.0,0.0,0.0,0.0,0.0,0.0,0.0,0.0,0.0,0.0,0.0,0.0,0.0,0.0,0.0,0.0,0.0,0.0,0.0,0.0,0.0,0.0,0.0,0.0,0.0,0.0,0.0,0.0,0.0,0.0,0.0,0.0,0.0,0.0,0.0,0.0,0.0,0.0,0.0,0.0,0.0,0.0,0.0,0.0,0.0,0.0,0.0,0.0,0.0,0.0,0.0,0.0,0.0,0.0,0.0,0.0,0.0,0.0,0.0,0.0,0.0,0.0,0.0,0.0,0.0,0.0,0.0,0.0,0.0,0.0,0.0,0.0,0.0,0.0,0.0,0.0,0.0,0.0,0.0673,0.2353,0.2334,0.3634,0.654,0.7991,1.0056,1.2716,1.4207,1.506,1.506,1.6341,1.6978,1.6978,1.6978,1.6978,1.6978,1.6978,1.6978,1.6978,1.6978,1.6978,1.6978,1.6978,1.6978,1.6998,1.7141,1.7243,1.7344,0.0,0.0,0.0,0.0,0.0,0.0,0.0,0.0,0.0,0.0,0.0,0.0,0.0,0.0,0.0,0.0,0.0,0.0,0.0,0.0,0.0,0.0,0.0,0.0,0.0,0.0,0.0,0.0,0.0,0.0,0.0,0.0,0.0,0.0,0.0,0.0,0.0,0.0,0.0,0.0,0.0,0.0,0.0,0.0,0.0,0.0,0.0,0.0,0.0,0.0,0.0,0.0,0.0,0.0,0.0,0.0,0.0,0.0,0.0,0.0,0.0,0.0,0.0,0.0,0.0,0.0,0.0,0.0,0.0,0.0,0.0,0.0,0.0,0.0,0.0,0.0,0.0,0.0,0.0,0.0,0.0,0.0,0.0,0.0,0.0,0.0,0.0,0.1346,0.4363,0.4329,0.5938,0.9585,1.1653,1.3046,1.3675,1.5914,1.6978,1.6978,1.6978,1.6978,1.6978,1.6978,1.6978,1.6978,1.6978,1.6978,1.6978,1.6978,1.6978,1.6978,1.6978,1.6978,1.6992,1.71,1.7263,1.7439,0.0,0.0,0.0,0.0,0.0,0.0,0.0,0.0,0.0,0.0,0.0,0.0,0.0,0.0,0.0,0.0,0.0,0.0,0.0,0.0,0.0,0.0,0.0,0.0,0.0,0.0,0.0,0.0,0.0,0.0,0.0,0.0,0.0,0.0,0.0,0.0,0.0,0.0,0.0,0.0,0.0,0.0,0.0,0.0,0.0,0.0,0.0,0.0,0.0,0.0,0.0,0.0,0.0,0.0,0.0,0.0,0.0,0.0,0.0,0.0,0.0,0.0,0.0,0.0,0.0,0.0,0.0,0.0,0.0,0.0,0.0,0.0,0.0,0.0,0.0,0.0,0.0,0.0,0.0,0.0,0.0,0.0,0.0,0.0,0.0,0.0,0.0,0.1346,0.4363,0.444,0.7036,1.2517,1.2843,1.4119,1.6663,1.6873,1.6978,1.6978,1.6978,1.6978,1.6978,1.6978,1.6978,1.6978,1.6978,1.6978,1.6978,1.6978,1.6978,1.6978,1.6978,1.6978,1.6985,1.6992,1.7175,1.7419,0.0,0.0,0.0,0.0,0.0,0.0,0.0,0.0,0.0,0.0,0.0,0.0,0.0,0.0,0.0,0.0,0.0,0.0,0.0,0.0,0.0,0.0,0.0,0.0,0.0,0.0,0.0,0.0,0.0,0.0,0.0,0.0,0.0,0.0,0.0,0.0,0.0,0.0,0.0,0.0,0.0,0.0,0.0,0.0,0.0,0.0,0.0,0.0,0.0,0.0,0.0,0.0,0.0,0.0,0.0,0.0,0.0,0.0,0.0,0.0,0.0,0.0,0.0,0.0,0.0,0.0,0.0,0.0,0.0,0.0,0.0,0.0,0.0,0.0,0.0,0.0,0.0,0.0,0.0,0.0,0.0,0.0,0.0,0.0,0.0785,0.2689,0.2801,0.4923,0.982,0.9966,1.175,1.5566,1.5647,1.6054,1.6985,1.6978,1.6978,1.6978,1.6978,1.6978,1.6978,1.6978,1.6978,1.6978,1.6978,1.6978,1.6978,1.6978,1.6978,1.6978,1.6978,1.6978,1.6978,1.6978,1.7107,1.729,0.0,0.0,0.0,0.0,0.0,0.0,0.0,0.0,0.0,0.0,0.0,0.0,0.0,0.0,0.0,0.0,0.0,0.0,0.1009,0.1009,0.1346,0.21,0.2191,0.2203,0.222,0.1463,0.0777,0.0,0.0,0.0,0.0,0.0,0.0,0.0,0.0,0.0,0.0,0.0,0.0,0.0,0.0,0.0,0.0,0.0,0.0,0.0,0.0,0.0,0.0,0.0,0.0,0.0,0.0,0.0,0.0,0.0,0.0,0.0,0.0,0.0,0.0,0.0,0.0,0.0,0.0,0.0,0.0,0.0,0.0,0.0,0.0,0.0,0.0,0.0,0.0,0.0,0.0,0.0,0.0,0.0,0.0,0.0,0.0,0.0897,0.2241,0.4363,0.5366,0.8042,1.3162,1.3308,1.4529,1.7318,1.7317,1.7175,1.6985,1.6978,1.6978,1.6978,1.6978,1.6978,1.6978,1.6978,1.6978,1.6978,1.6978,1.6978,1.6978,1.6978,1.6978,1.6978,1.6978,1.6978,1.6978,1.6978,1.7073,1.7216,0.0,0.0,0.0,0.0,0.0,0.0,0.0,0.0,0.0,0.0,0.0,0.0,0.0,0.0,0.0,0.0,0.0,0.0,0.3357,0.3357,0.4363,0.662,0.6856,0.6894,0.6894,0.4787,0.2456,0.0,0.0,0.0,0.0,0.0,0.0,0.0,0.0,0.0,0.0,0.0,0.0,0.0,0.0,0.0,0.0,0.0,0.0,0.0,0.0,0.0,0.0,0.0,0.0,0.0,0.0,0.0,0.0,0.0,0.0,0.0,0.0,0.0,0.0,0.0,0.0,0.0,0.0,0.0,0.0,0.0,0.0,0.0,0.0,0.0,0.0,0.0,0.0,0.0,0.0,0.0,0.0,0.0,0.0,0.0,0.0,0.2801,0.4476,0.4588,0.7259,1.0269,1.3278,1.3389,1.4618,1.7318,1.7419,1.7277,1.6985,1.6978,1.6978,1.6978,1.6978,1.6978,1.6978,1.6978,1.6978,1.6978,1.6978,1.6978,1.6978,1.6978,1.6978,1.6978,1.6978,1.6978,1.6978,1.6978,1.7066,1.7209,0.0,0.0,0.0,0.0,0.0,0.0,0.0,0.0,0.0,0.0,0.0,0.0,0.0,0.0,0.0,0.0,0.0,0.0,0.57,0.5738,0.6099,0.6775,0.6932,0.6997,0.7052,0.6359,0.4089,0.0,0.1693,0.1698,0.0,0.0,0.0,0.0,0.0,0.0,0.0,0.0,0.0,0.0,0.0,0.0,0.0,0.0,0.0,0.0,0.0,0.0,0.0,0.0,0.0,0.0,0.0,0.0,0.0,0.0,0.0,0.0,0.0,0.0,0.0,0.0,0.0,0.0,0.0,0.0,0.0,0.0,0.0,0.0,0.0,0.0,0.0,0.0,0.0,0.0,0.0,0.0,0.0,0.0,0.0,0.0785,0.2911,0.4027,0.6257,1.0496,1.1608,1.3389,1.6403,1.6514,1.6834,1.7433,1.7419,1.7277,1.6985,1.6978,1.6978,1.6978,1.6978,1.6978,1.6978,1.6978,1.6978,1.6978,1.6978,1.6978,1.6978,1.6978,1.6978,1.6978,1.6978,1.6978,1.6978,1.6978,1.7005,1.708,0.0,0.0,0.0,0.0,0.0,0.0,0.0,0.0,0.0,0.0,0.6951,0.7873,0.0,0.0,0.0,0.0,0.0,0.0,0.0,0.8226,0.8696,0.9588,0.9779,0.9449,0.8581,0.9437,0.7595,0.2866,0.4295,0.3768,0.1444,0.1453,0.0915,0.0,0.0,0.0,0.0,0.0,0.0,0.0,0.0,0.0,0.0,0.0,0.0,0.0,0.0,0.0,0.0,0.0,0.0,0.0,0.0,0.0,0.0,0.0,0.0,0.0,0.0,0.0,0.0,0.0,0.0,0.0,0.0,0.0,0.0,0.0,0.0,0.0,0.0,0.0,0.0,0.0,0.0,0.0,0.0,0.0,0.0449,0.1682,0.1793,0.2911,0.5927,0.737,0.9487,1.3162,1.4503,1.596,1.7749,1.786,1.7724,1.7433,1.7419,1.7277,1.6985,1.6978,1.6978,1.6978,1.6978,1.6978,1.6978,1.6978,1.6978,1.6978,1.6978,1.6978,1.6978,1.6978,1.6978,1.6978,1.6978,1.6978,1.6978,1.6978,1.6978,1.7026,0.0,0.0,0.0,0.0,0.0,0.0,0.0,0.0,0.0,0.0,0.7285,0.8207,0.0,0.0,0.0,0.0,0.0,0.0,0.0,1.0667,1.1578,1.3765,1.4007,1.3179,1.1072,1.3224,1.2154,0.7781,0.7513,0.6207,0.3909,0.3734,0.2488,0.0376,0.0094,0.0,0.0,0.0,0.0,0.0,0.0,0.0,0.0,0.0,0.0,0.0,0.0,0.0,0.0,0.0,0.0,0.0,0.0,0.0,0.0,0.0,0.0,0.0,0.0,0.0,0.0,0.0,0.0,0.0,0.0,0.0,0.0,0.0,0.0,0.0,0.0,0.0,0.0,0.0,0.0,0.0,0.0,0.0224,0.1458,0.4139,0.47,0.6039,0.9045,1.1821,1.35,1.3838,1.6397,1.786,1.786,1.786,1.7724,1.7433,1.7419,1.7277,1.6985,1.6978,1.6978,1.6978,1.6978,1.6978,1.6978,1.6978,1.6978,1.6978,1.6978,1.6978,1.6978,1.6978,1.6978,1.6978,1.6978,1.6978,1.6978,1.6978,1.6978,1.7026,0.0,0.0,0.0,0.0,0.0,0.0,0.0,0.0,0.0,0.0,0.0,0.0,0.0,0.0,0.0,0.0,0.0,0.0,0.0,1.321,1.3547,1.4021,1.417,1.4,1.3578,1.4033,1.3813,1.292,1.1019,0.8869,0.654,0.4617,0.3452,0.2907,0.0852,0.0,0.0,0.0,0.0,0.0,0.0,0.0,0.0,0.0,0.0,0.0,0.0,0.0,0.0,0.0,0.0,0.0,0.0,0.0,0.0,0.0,0.0,0.0,0.0,0.0,0.0,0.0,0.0,0.0,0.0,0.0,0.0,0.0,0.0,0.0,0.0,0.0,0.0,0.0,0.0,0.0,0.0,0.2017,0.3806,0.4474,0.6592,0.9156,1.2163,1.3051,1.4392,1.6741,1.7522,1.786,1.786,1.786,1.7724,1.7433,1.7419,1.7277,1.6985,1.6978,1.6978,1.6978,1.6978,1.6978,1.6978,1.6978,1.6978,1.6978,1.6978,1.6978,1.6978,1.6978,1.6978,1.6978,1.6978,1.6978,1.6978,1.6978,1.6978,1.7026,0.0,0.0,0.0,0.0,0.0,0.0,0.0,0.0,0.0,0.0,0.0,0.0,0.0,0.0,0.0,0.0,0.0,0.0,0.0,0.0,1.4102,1.4177,1.4258,1.4333,1.4401,1.4401,1.4475,1.4618,1.2204,0.9752,0.7367,0.6145,0.4224,0.1891,0.0571,0.0,0.0,0.0,0.0,0.0,0.0,0.0,0.0,0.0,0.0,0.0,0.0,0.0,0.0,0.0,0.0,0.0,0.0,0.0,0.0,0.0,0.0,0.0,0.0,0.0,0.0,0.0,0.0,0.0,0.0,0.0,0.0,0.0,0.0,0.0,0.0,0.0,0.0,0.0,0.1234,0.2129,0.2129,0.47,0.7153,0.8596,1.0158,1.2274,1.5284,1.5512,1.6188,1.7749,1.786,1.786,1.786,1.786,1.7724,1.7433,1.7419,1.7277,1.6985,1.6978,1.6978,1.6978,1.6978,1.6978,1.6978,1.6978,1.6978,1.6978,1.6978,1.6978,1.6978,1.6978,1.6978,1.6978,1.6978,1.6978,1.6978,1.6978,1.6978,1.7026,0.0,0.0,0.0,0.0,0.0,0.0,0.0,0.0,0.0,0.0,0.0,0.0,0.0,0.0,0.0,0.0,0.0,0.0,0.0,0.0,0.0,1.4292,1.4326,1.4394,1.4509,1.4536,1.4353,1.4127,1.2194,0.9728,0.6752,0.6752,0.462,0.0668,0.0191,0.0,0.0,0.0,0.0,0.0,0.0,0.0,0.0,0.0,0.0,0.0,0.0,0.0,0.0,0.0,0.0,0.0,0.0,0.0,0.0,0.0,0.0,0.0,0.0,0.0,0.0,0.0,0.032,0.0746,0.0747,0.0757,0.0766,0.0767,0.0333,0.0112,0.0673,0.0785,0.0897,0.1458,0.3583,0.5255,0.5255,0.7819,1.0599,1.3051,1.3843,1.5168,1.7632,1.786,1.786,1.786,1.786,1.786,1.786,1.786,1.7738,1.7467,1.7433,1.729,1.7019,1.6992,1.6978,1.6978,1.6978,1.6978,1.6978,1.6978,1.6978,1.6978,1.6978,1.6978,1.6978,1.6978,1.6978,1.6978,1.6978,1.6978,1.6978,1.6978,1.6978,1.7026,0.0,0.0,0.0,0.0,0.0,0.0,0.0,0.0,0.0,0.0,0.6707,0.7588,0.0,0.0,0.0,0.0,0.0,0.0,1.4258,0.0,0.0,1.4299,1.4421,1.4489,1.4509,1.4638,1.3669,1.166,1.1398,0.8828,0.4268,0.4268,0.3893,0.3234,0.0954,0.0,0.0,0.0,0.0,0.0,0.0,0.0,0.0,0.0,0.0,0.0,0.0,0.0,0.0,0.0,0.0,0.0,0.0,0.0,0.0,0.0,0.0,0.0,0.0,0.0,0.0,0.0,0.1809,0.3729,0.3863,0.379,0.3718,0.3854,0.1782,0.0785,0.3471,0.3918,0.47,0.7259,0.8042,0.8268,0.8268,1.0937,1.294,1.3389,1.5733,1.7411,1.786,1.786,1.786,1.786,1.786,1.786,1.786,1.786,1.7792,1.7623,1.7487,1.7338,1.7168,1.7039,1.6978,1.6978,1.6978,1.6978,1.6978,1.6978,1.6978,1.6978,1.6978,1.6978,1.6978,1.6978,1.6978,1.6978,1.6978,1.6978,1.6978,1.6978,1.6978,1.7026,0.0,0.0,0.0,0.0,0.0,0.0,0.0,0.0,0.0,0.0,0.0,0.7847,0.0,0.0,0.0,1.4096,1.4197,1.4231,1.4292,1.4373,1.4421,1.4421,1.4563,1.4679,1.4767,1.4835,1.3721,1.1314,0.9897,0.7373,0.3803,0.238,0.1715,0.162,0.0477,0.0,0.0,0.0,0.0,0.0,0.0,0.0,0.0,0.0,0.0,0.0,0.0,0.0,0.0,0.0,0.0,0.0,0.0,0.0,0.0,0.0,0.0,0.0314,0.1901,0.2335,0.2766,0.4357,0.5735,0.6703,0.6869,0.5523,0.4698,0.6607,0.456,0.2911,0.4251,0.4476,0.5478,0.8373,1.0273,1.1385,1.1385,1.4054,1.596,1.596,1.708,1.786,1.786,1.786,1.786,1.786,1.786,1.786,1.786,1.786,1.7792,1.765,1.75,1.7344,1.7195,1.7053,1.6978,1.6978,1.6978,1.6978,1.6978,1.6978,1.6978,1.6978,1.6978,1.6978,1.6978,1.6978,1.6978,1.6978,1.6978,1.6978,1.6978,1.6978,1.6978,1.7026,0.0,0.0,0.0,0.0,0.0,0.0,0.0,0.0,0.0,0.0,0.0,0.0,0.0,0.0,0.0,0.0,1.4299,1.4319,1.4353,1.4489,1.457,1.457,1.4719,1.4855,1.497,1.5004,1.3566,1.0437,0.8542,0.5984,0.276,0.0858,0.0,0.0,0.0,0.0,0.0,0.0,0.0,0.0,0.0,0.0,0.0,0.0,0.0,0.0,0.0,0.0,0.0,0.0,0.0,0.0,0.0,0.0,0.0,0.0,0.0,0.0423,0.2549,0.3085,0.3828,0.6687,0.7958,0.872,0.9545,0.801,0.7096,0.9466,0.7661,0.5815,0.6592,0.6818,0.7708,1.071,1.3051,1.4503,1.4503,1.6514,1.786,1.786,1.786,1.786,1.786,1.786,1.786,1.786,1.786,1.786,1.786,1.786,1.7812,1.7704,1.7521,1.7365,1.7249,1.7073,1.6978,1.6978,1.6978,1.6978,1.6978,1.6978,1.6978,1.6978,1.6978,1.6978,1.6978,1.6978,1.6978,1.6978,1.6978,1.6978,1.6978,1.6978,1.6978,1.7026,0.0,0.0,0.0,0.0,0.0,0.0,0.0,0.0,0.0,0.0,0.0,0.0,0.0,1.4197,1.4292,1.4299,1.4299,1.4353,1.4489,1.4645,1.4726,1.4726,1.4875,0.0,1.497,1.5106,1.2799,0.7785,0.7687,0.5038,0.0191,0.0095,0.0,0.0,0.0,0.0,0.0,0.0,0.0,0.0,0.0,0.0,0.0,0.0,0.0,0.0,0.0,0.0,0.0,0.0,0.0,0.0,0.0,0.0,0.0,0.0,0.0,0.0,0.0213,0.0213,0.0852,0.3722,0.6478,0.925,1.2113,1.2653,1.2654,1.2872,1.0657,0.9598,1.2385,1.294,1.3954,1.6969,1.7522,1.7632,1.7632,1.7749,1.786,1.786,1.786,1.786,1.786,1.786,1.786,1.786,1.786,1.786,1.786,1.786,1.786,1.7846,1.7568,1.7419,1.7405,1.7121,1.6978,1.6978,1.6978,1.6978,1.6978,1.6978,1.6978,1.6978,1.6978,1.6978,1.6978,1.6978,1.6978,1.6978,1.6978,1.6978,1.6978,1.6978,1.6978,1.7026,0.0,0.0,0.0,0.0,0.0,0.0,0.0,0.0,0.0,0.0,0.0,0.0,0.0,1.4299,1.434,1.4428,1.4523,1.4604,1.4658,1.4801,1.4889,1.4889,1.5031,1.5106,1.5106,1.3545,1.1097,0.7595,0.5984,0.3424,0.0,0.0,0.0,0.0,0.0,0.0,0.0,0.0,0.0,0.0,0.0,0.0,0.0,0.0,0.0,0.0,0.0,0.0,0.0,0.0,0.0,0.0,0.0,0.0,0.0,0.0,0.0,0.0426,0.2235,0.266,0.3403,0.6263,0.9122,1.1474,1.2757,1.2976,1.3527,1.5633,1.3759,1.2723,1.5733,1.473,1.4392,1.7405,1.786,1.786,1.786,1.786,1.786,1.786,1.786,1.786,1.786,1.786,1.786,1.786,1.786,1.786,1.786,1.786,1.786,1.786,1.767,1.7473,1.7277,1.708,1.6978,1.6978,1.6978,1.6978,1.6978,1.6978,1.6978,1.6978,1.6978,1.6978,1.6978,1.6978,1.6978,1.6978,1.6978,1.6978,1.6978,1.6978,1.7039,1.7148,0.0,0.0,0.0,0.0,0.0,0.0,0.0,0.0,0.0,0.0,0.0,0.0,0.0,0.0,1.4482,1.4577,1.4726,1.4821,1.4821,1.4957,1.5038,1.5038,1.4371,1.3946,1.3946,1.1385,0.892,0.6364,0.4656,0.2475,0.0,0.0,0.0,0.0,0.0,0.0,0.0,0.0,0.0,0.0,0.0,0.0,0.0,0.0,0.0,0.0,0.0,0.0,0.0,0.0,0.0,0.0,0.0,0.0,0.0,0.0,0.0,0.0426,0.2235,0.2766,0.3509,0.6372,0.8487,1.0407,1.2388,1.2951,1.3955,1.689,1.6175,1.5512,1.7522,1.6286,1.5622,1.7522,1.786,1.786,1.786,1.786,1.786,1.786,1.786,1.786,1.786,1.786,1.786,1.786,1.786,1.786,1.786,1.786,1.7846,1.7792,1.7704,1.75,1.7195,1.71,1.7026,1.6978,1.6978,1.6978,1.6978,1.6978,1.6978,1.6978,1.6978,1.6978,1.6978,1.6978,1.6978,1.6978,1.6978,1.6978,1.6978,1.6978,1.7073,1.7216,0.0,0.0,0.0,0.0,0.0,0.0,0.0,0.0,0.0,0.0,0.0,0.0,0.0,0.0,0.0,1.4746,1.4889,1.4977,1.4977,1.5106,1.5181,1.5087,1.2716,1.1385,1.1291,0.8826,0.6266,0.3803,0.371,0.2381,0.0,0.0,0.0,0.0,0.0,0.0,0.0,0.0,0.0,0.0,0.0,0.0,0.0,0.0,0.0,0.0,0.0,0.0,0.0,0.0,0.0,0.0,0.0,0.0,0.0,0.0,0.0,0.0,0.0,0.0,0.0,0.3403,0.4147,0.5629,1.1235,1.2788,1.3825,1.6658,1.754,1.7749,1.786,1.786,1.786,1.786,1.786,1.786,1.786,1.786,1.786,1.786,1.786,1.786,1.786,1.786,1.786,1.786,1.786,1.786,1.786,1.786,1.7792,1.7663,1.765,1.7507,1.7209,1.7202,1.7127,1.6985,1.6985,1.6985,1.6978,1.6978,1.6978,1.6978,1.6978,1.6978,1.6978,1.6978,1.6978,1.6978,1.6978,1.6978,1.6978,1.6985,1.708,1.7222,0.0,0.0,0.0,0.0,0.0,0.0,0.3346,0.5246,0.7519,0.0,0.0,0.0,0.0,0.0,1.4909,1.4909,1.5038,1.5126,1.5126,1.516,1.4422,1.2522,1.1768,1.0536,0.8731,0.6171,0.4466,0.3803,0.1917,0.0674,0.0,0.0,0.0,0.0,0.0,0.0,0.0,0.0,0.0,0.0,0.0,0.0,0.0,0.0,0.0,0.0,0.0,0.0,0.0,0.0,0.0,0.0,0.0,0.0,0.0,0.0,0.0,0.0,0.0,0.0,0.0,0.0,0.0,0.0,0.616,0.8285,1.0778,1.3712,1.4557,1.5284,1.7522,1.786,1.786,1.786,1.786,1.786,1.786,1.786,1.786,1.786,1.786,1.786,1.786,1.786,1.786,1.786,1.786,1.786,1.786,1.786,1.7846,1.7812,1.7704,1.7609,1.7521,1.7412,1.7283,1.7134,1.7134,1.708,1.6978,1.6978,1.6978,1.6978,1.6978,1.6978,1.6978,1.6978,1.6978,1.6978,1.6978,1.6978,1.6992,1.7093,1.7229,1.7378,0.0,0.0,0.0,0.0,0.0,0.2456,0.4933,0.7397,0.988,0.0,0.0,0.0,0.0,0.0,0.0,1.5059,1.5133,1.5181,1.5181,1.4228,1.2904,1.148,0.9393,0.7501,0.6079,0.3532,0.2203,0.2203,0.0774,0.0,0.0,0.0,0.0,0.0,0.0,0.0,0.0,0.0,0.0,0.0,0.0,0.0,0.0,0.0,0.0,0.0,0.0,0.0,0.0,0.0,0.0,0.0,0.0,0.0,0.0,0.0,0.0,0.0,0.0,0.0,0.0,0.0,0.0,0.0,0.5417,0.7405,0.9864,1.4139,1.5069,1.5673,1.7522,1.786,1.786,1.786,1.786,1.786,1.786,1.786,1.786,1.786,1.786,1.786,1.786,1.786,1.786,1.786,1.786,1.786,1.786,1.786,1.786,1.786,1.7772,1.7704,1.765,1.7561,1.7439,1.729,1.729,1.7243,1.7161,1.7161,1.7161,1.7161,1.7161,1.7161,1.7161,1.7161,1.7093,1.6978,1.6978,1.7019,1.708,1.7161,1.7331,1.7528,0.0,0.0,0.0091,0.0365,0.2296,0.4707,0.747,0.9499,1.1716,0.0,1.4909,1.5045,0.0,0.0,0.0,0.0,1.5181,1.5181,1.5181,1.281,1.1291,1.1008,0.6369,0.3715,0.3429,0.1156,0.0,0.0,0.0,0.0,0.0,0.0,0.0,0.0,0.0,0.0,0.0,0.0,0.0,0.0,0.0,0.0,0.0,0.0,0.0,0.0,0.0,0.0,0.0,0.0,0.0,0.0,0.0,0.0,0.0,0.0,0.0,0.0,0.0,0.0,0.0,0.0,0.0,0.0,0.6369,0.7693,0.9372,1.5189,1.6532,1.6898,1.7696,1.7846,1.7846,1.786,1.786,1.786,1.786,1.786,1.786,1.786,1.786,1.786,1.786,1.786,1.786,1.786,1.786,1.786,1.786,1.786,1.786,1.786,1.786,1.7806,1.767,1.767,1.7595,1.7446,1.7446,1.7439,1.7419,1.7419,1.7419,1.7419,1.7419,1.7419,1.7419,1.7419,1.7263,1.7032,1.7032,1.7107,1.7222,1.7236,1.7412,1.765,0.0,0.0,0.0646,0.2672,0.3505,0.5364,0.9962,0.9322,0.9906,1.4512,1.512,1.5153,0.0,0.0,0.0,0.0,1.5181,1.5181,1.5181,1.281,1.0437,0.8447,0.5456,0.2888,0.0771,0.0292,0.0,0.0,0.0,0.0,0.0,0.0,0.0,0.0,0.0,0.0,0.0,0.0,0.0,0.0,0.0,0.0,0.0,0.0,0.0,0.0,0.0,0.0,0.0,0.0,0.0,0.0,0.0,0.0,0.0,0.0,0.0,0.0,0.0,0.0,0.0,0.0,0.0,0.0,0.1384,0.1715,0.3341,0.9157,1.0416,1.1927,1.6782,1.7684,1.7717,1.7846,1.786,1.786,1.786,1.786,1.786,1.786,1.786,1.786,1.786,1.786,1.786,1.786,1.786,1.786,1.786,1.786,1.786,1.786,1.786,1.7846,1.7826,1.7826,1.7758,1.7602,1.7602,1.7541,1.7419,1.7419,1.7419,1.7419,1.7419,1.7419,1.7419,1.7419,1.7385,1.7331,1.7331,1.7351,1.7392,1.7514,1.7595,1.7663,0.0,0.0,0.0373,0.1677,0.2991,0.4691,0.7249,0.7632,0.8962,1.2799,1.4422,1.5181,1.5181,0.0,0.0,0.0,0.0,0.0,0.0,1.0962,0.8413,0.5836,0.3288,0.1266,0.0,0.0,0.0,0.0,0.0,0.0,0.0,0.0,0.0,0.0,0.0,0.0,0.0,0.0,0.0,0.0,0.0,0.0,0.0,0.0,0.0,0.0,0.0,0.0,0.0,0.0,0.0,0.0,0.0,0.0,0.0,0.0,0.0,0.0,0.0,0.0,0.0,0.0,0.0,0.0,0.0,0.3095,0.4178,1.1482,1.1858,1.2252,1.6627,1.7534,1.7555,1.7629,1.7704,1.7724,1.765,1.7772,1.786,1.786,1.786,1.786,1.786,1.786,1.786,1.786,1.786,1.786,1.786,1.786,1.786,1.786,1.786,1.786,1.786,1.786,1.7826,1.7758,1.7758,1.7717,1.7636,1.7636,1.7636,1.7636,1.7636,1.7636,1.7636,1.7636,1.7636,1.7623,1.748,1.7467,1.7541,1.7623,1.7704,1.7772,0.0,0.0,0.0189,0.0659,0.2461,0.3993,0.4466,0.5889,0.7785,1.0342,1.2904,1.4704,1.5181,0.0,0.0,0.0,0.0,0.0,0.0,0.0,0.6475,0.387,0.137,0.0,0.0,0.0,0.0,0.0,0.0,0.0,0.0,0.0,0.0,0.0,0.0,0.0,0.0,0.0,0.0,0.0,0.0,0.0,0.0,0.0,0.0,0.0,0.0,0.0,0.0,0.0,0.0,0.0,0.0,0.0,0.0,0.0,0.0,0.0,0.0,0.0,0.0,0.0,0.0,0.1916,0.0,0.0,0.0,1.4013,1.3716,1.3215,1.6694,1.7378,1.7378,1.7378,1.7507,1.7555,1.7399,1.7609,1.7772,1.7772,1.7826,1.7846,1.7826,1.7846,1.786,1.786,1.786,1.786,1.786,1.786,1.786,1.786,1.786,1.786,1.786,1.786,1.786,1.786,1.786,1.786,1.786,1.786,1.786,1.786,1.786,1.786,1.786,1.786,1.786,1.7846,1.7602,1.7582,1.7684,1.7684,1.7758,1.786,0.0,0.0,0.0666,0.2945,0.361,0.4561,0.6835,0.551,0.513,0.769,1.0248,1.2716,0.0,0.0,0.0,0.0,0.0,0.0,1.1768,0.0,0.0,0.3909,0.1383,0.0,0.0,0.0,0.0,0.0,0.0,0.0,0.0,0.0,0.0,0.0,0.0,0.0,0.0,0.0,0.0,0.0,0.0,0.0,0.0,0.0,0.0,0.0,0.0,0.0,0.0,0.0,0.0,0.0,0.0,0.0,0.0,0.0,0.0,0.0,0.0,0.0,0.0,0.0,0.1916,0.0,0.0,0.0,0.5207,0.871,0.0,1.0649,1.6218,0.0,0.0,1.7216,1.7344,1.7392,1.7243,1.7365,1.7473,1.7473,1.7704,1.7812,1.7684,1.7792,1.786,1.786,1.786,1.786,1.786,1.786,1.786,1.786,1.786,1.786,1.786,1.786,1.786,1.786,1.786,1.786,1.786,1.786,1.786,1.786,1.786,1.786,1.786,1.786,1.786,1.786,1.7826,1.7826,1.7846,1.7846,1.7846,1.786,0.0,0.0,0.0,0.1429,0.162,0.2,0.3046,0.352,0.4183,0.5225,0.892,1.1222,0.0,0.0,0.0,0.0,0.0,1.0404,0.0,0.0,0.0,0.0,0.0599,0.0,0.0,0.0,0.0,0.0,0.0,0.0,0.0,0.0,0.0,0.0,0.0,0.0,0.0,0.0,0.0,0.0,0.0,0.0,0.0,0.0,0.0,0.0,0.0,0.0,0.0,0.0,0.0,0.0,0.0,0.0,0.0,0.0,0.0,0.0,0.0,0.0,0.0,0.0,0.0,0.0,0.4464,0.0,0.5947,0.0,0.0,0.0,0.0,0.0,0.0,0.0,1.7195,1.7236,1.7087,1.727,1.7419,1.7419,1.7528,1.7616,1.765,1.7772,1.786,1.786,1.786,1.786,1.786,1.786,1.786,1.786,1.786,1.786,1.786,1.786,1.786,1.786,1.786,1.786,1.786,1.786,1.786,1.786,1.786,1.786,1.786,1.786,1.786,1.786,1.786,1.786,1.786,1.786,1.786,1.786,0.0,0.0,0.0,0.0,0.0,0.0,0.0,0.1528,0.3056,0.3723,0.6976,0.0,0.7732,0.9955,0.0,0.0,0.9416,0.8151,0.0,0.0,0.2704,0.0,0.0,0.0,0.0,0.0,0.0,0.0,0.0,0.0,0.0,0.0,0.0,0.0,0.0,0.0,0.0,0.0,0.0,0.0,0.0,0.0,0.0,0.0,0.0,0.0,0.0,0.0,0.0,0.0,0.0,0.0,0.0,0.0,0.0,0.0,0.0,0.0,0.0,0.0,0.0,0.0,0.0,0.0,0.0,0.0,0.0,0.0,0.0,0.0,0.0,0.0,0.0,1.6924,0.0,1.708,1.6937,1.7141,1.7297,1.7297,1.7331,1.7419,1.7568,1.7717,1.7812,1.7812,1.7846,1.786,1.786,1.786,1.786,1.786,1.786,1.786,1.786,1.786,1.786,1.786,1.786,1.786,1.786,1.786,1.786,1.786,1.786,1.786,1.786,1.786,1.786,1.786,1.786,1.786,1.786,1.786,1.786,1.786,0.0,0.0,0.0,0.0,0.0,0.0,0.0,0.0096,0.0966,0.3472,0.3987,0.0,0.0,0.0,0.0,0.0,0.0,0.9542,0.4421,0.0,0.2756,0.0,0.0,0.0,0.0,0.0,0.0,0.0,0.0,0.0,0.0,0.0,0.0,0.0,0.0,0.0,0.0,0.0,0.0,0.0,0.0,0.0,0.0,0.0,0.0,0.0,0.0,0.0,0.0,0.0,0.0,0.0,0.0,0.0,0.0,0.0,0.0,0.0,0.0,0.0,0.0,0.0,0.0,0.0,0.0,0.0,1.2505,0.0,0.0,0.0,0.0,0.0,0.0,0.0,0.0,0.0,0.0,1.6897,1.6992,1.6992,1.7114,1.7256,1.7412,1.7568,1.765,1.765,1.7792,1.786,1.786,1.786,1.786,1.786,1.786,1.786,1.786,1.786,1.786,1.786,1.786,1.786,1.786,1.786,1.786,1.786,1.786,1.786,1.786,1.786,1.786,1.786,1.786,1.786,1.786,1.786,1.786,1.786,0.0,0.0,0.0,0.0,0.0,0.0,0.0,0.0,0.0976,0.3606,0.5368,0.0,0.0,0.7498,0.8018,0.0,0.0,0.4025,0.3959,0.2346,0.0,0.0,0.0,0.0,0.0,0.0,0.0,0.0,0.0,0.0,0.0,0.0,0.0,0.0,0.0,0.0,0.0,0.0,0.0,0.0,0.0,0.0,0.0,0.0,0.0,0.0,0.0,0.0,0.0,0.0,0.0,0.0,0.0,0.0,0.0,0.0,0.0,0.0,0.0,0.1414,0.2932,0.3031,0.0,0.0,0.0,0.0,0.0,0.0,0.0,0.0,0.0,0.0,0.0,0.0,0.0,0.0,0.0,1.6944,1.6978,1.6978,1.7107,1.7216,1.7263,1.75,1.765,1.765,1.7772,1.786,1.786,1.786,1.786,1.786,1.786,1.786,1.786,1.786,1.786,1.786,1.786,1.786,1.786,1.786,1.786,1.786,1.786,1.786,1.786,1.786,1.786,1.786,1.786,1.786,1.786,1.786,1.786,1.786,0.0,0.0,0.0,0.0,0.0,0.0,0.0,0.0784,0.1675,0.0,0.4831,0.0,0.2895,0.0,0.5423,0.0,0.1829,0.1736,0.2566,0.0928,0.0,0.0,0.0,0.0,0.0,0.0,0.0,0.0,0.0,0.0,0.0,0.0,0.0,0.0,0.0,0.0,0.0,0.0,0.0,0.0,0.0,0.0,0.0,0.0,0.0,0.0,0.0,0.0,0.0,0.0,0.0,0.0,0.0,0.0,0.0,0.0,0.0,0.0222,0.1321,0.3071,0.4709,0.578,0.8242,0.0,1.2629,0.0,0.0,0.0,0.0,0.0,0.0,0.0,0.0,0.0,0.0,0.0,0.0,1.6978,1.6978,1.6978,1.706,1.7141,1.7188,1.7419,1.7589,1.765,1.7772,1.786,1.786,1.786,1.786,1.786,1.786,1.786,1.786,1.786,1.786,1.786,1.786,1.786,1.786,1.786,1.786,1.786,1.786,1.786,1.786,1.786,1.786,1.786,1.786,1.786,1.786,1.786,1.786,1.786,0.0,0.0,0.0,0.0,0.0,0.0,0.0,0.2176,0.2983,0.0,0.2406,0.3024,0.0505,0.2441,0.2964,0.0205,0.2371,0.0,0.0208,0.0,0.0,0.0,0.0,0.0,0.0,0.0,0.0,0.0,0.0,0.0,0.0,0.0,0.0,0.0,0.0,0.0,0.0,0.0,0.0,0.0,0.0,0.0,0.0,0.0,0.0,0.0,0.0,0.0,0.0,0.0,0.0,0.0,0.0,0.0,0.0,0.0,0.0112,0.0895,0.377,0.4751,0.5626,0.8409,1.1329,0.0,0.0,0.0,1.7419,0.0,0.0,0.0,0.0,0.0,0.0,0.0,0.0,0.0,0.0,1.6978,1.6978,1.6978,1.6985,1.7046,1.7182,1.7331,1.7487,1.7629,1.7772,1.786,1.786,1.786,1.786,1.786,1.786,1.786,1.786,1.786,1.786,1.786,1.786,1.786,1.786,1.786,1.786,1.786,1.786,1.786,1.786,1.786,1.786,1.786,1.786,1.786,1.786,1.786,1.786,1.786,0.0,0.0,0.0,0.0,0.0,0.0,0.0,0.06,0.1508,0.281,0.354,0.3764,0.3053,0.359,0.2889,0.0207,0.0622,0.0,0.0,0.0,0.0,0.0,0.0,0.0,0.0,0.0,0.0,0.0,0.0,0.0,0.0,0.0,0.0,0.0,0.0,0.0,0.0,0.0,0.0,0.0,0.0,0.0,0.0,0.0,0.0,0.0,0.0,0.0,0.0,0.0,0.0,0.0,0.0,0.0,0.0,0.0,0.157,0.3468,0.4239,0.7684,1.1338,1.2089,1.4349,1.6487,1.6487,0.0,0.0,0.0,0.0,0.0,0.0,0.0,0.0,0.0,0.0,0.0,0.0,0.0,1.6978,1.6978,1.7073,1.7154,1.7188,1.7331,1.7487,1.7629,1.7772,1.786,1.786,1.786,1.786,1.786,1.786,1.786,1.786,1.786,1.786,1.786,1.786,1.786,1.786,1.786,1.786,1.786,1.786,1.786,1.786,1.786,1.786,1.786,1.786,1.786,1.786,1.786,1.786,1.786,0.0,0.0,0.0,0.0,0.0,0.0,0.0,0.1009,0.1826,0.2231,0.3269,0.0,0.2365,0.2281,0.1669,0.0104,0.0,0.0,0.0,0.0,0.0,0.0,0.0,0.0,0.0,0.0,0.0,0.0,0.0,0.0,0.0,0.0,0.0,0.0,0.0,0.0,0.0,0.0,0.0,0.0,0.0,0.0,0.0,0.0,0.0,0.0,0.0,0.0,0.0,0.0,0.0,0.0,0.0,0.0,0.0224,0.157,0.3135,0.5031,0.7708,1.0821,1.3727,1.5068,1.658,1.7738,1.7738,1.767,1.7616,0.0,1.7561,1.7541,0.0,0.0,0.0,0.0,0.0,0.0,0.0,0.0,0.0,1.7175,1.7243,1.7317,1.7385,1.7467,1.7582,1.7738,1.7812,1.786,1.786,1.786,1.786,1.786,1.786,1.786,1.786,1.786,1.786,1.786,1.786,1.786,1.786,1.786,1.786,1.786,1.786,1.786,1.786,1.786,1.786,1.786,1.786,1.786,1.786,1.786,1.786,1.788,0.0,0.0,0.0,0.0,0.0,0.0,0.0,0.1936,0.2661,0.0308,0.2065,0.2595,0.0208,0.0,0.0,0.0,0.0,0.0,0.0,0.0,0.0,0.0,0.0,0.0,0.0,0.0,0.0,0.0,0.0,0.0,0.0,0.0,0.0,0.0,0.0,0.0,0.0,0.0,0.0,0.0,0.0,0.0,0.0,0.0,0.0,0.0,0.0,0.0,0.0,0.0,0.0,0.0,0.0,0.0224,0.1121,0.3695,0.5035,0.6818,1.1937,1.3727,1.462,1.7197,1.786,1.786,1.786,1.786,1.786,1.786,1.7758,1.7717,1.7846,0.0,0.0,0.0,0.0,0.0,0.0,0.0,0.0,0.0,1.7439,0.0,1.7629,1.765,1.7704,1.7846,1.786,1.786,1.786,1.786,1.786,1.786,1.786,1.786,1.786,1.786,1.786,1.786,1.786,1.786,1.786,1.786,1.786,1.786,1.786,1.786,1.786,1.786,1.786,1.786,1.786,1.786,1.786,1.786,1.788,1.7914,0.0,0.0,0.0,0.0,0.0,0.0,0.0,0.0414,0.0518,0.0104,0.0418,0.0525,0.0,0.0,0.0,0.0,0.0,0.0,0.0,0.0,0.0,0.0,0.0,0.0,0.0,0.0,0.0,0.0,0.0,0.0,0.0,0.0,0.0,0.0,0.0,0.0,0.0,0.0,0.0,0.0,0.0,0.0,0.0,0.0,0.0,0.0,0.0,0.0,0.0,0.0,0.0,0.0,0.0,0.168,0.3806,0.4363,0.7931,1.2048,1.3162,1.5168,1.7197,1.7749,1.786,1.786,1.786,1.786,1.786,1.786,1.7846,1.7826,1.786,0.0,0.0,0.0,0.0,0.0,0.0,0.0,0.0,0.0,0.0,1.7616,1.765,1.765,1.7704,1.7846,1.786,1.786,1.786,1.786,1.786,1.786,1.786,1.786,1.786,1.786,1.786,1.786,1.786,1.786,1.786,1.786,1.786,1.786,1.786,1.786,1.786,1.786,1.786,1.786,1.786,1.786,1.786,1.786,1.7948,1.8057,0.0,0.0,0.0,0.0,0.0,0.0,0.0,0.0,0.0,0.0,0.0,0.0,0.0,0.0,0.0,0.0,0.0,0.0,0.0,0.0,0.0,0.0,0.0,0.0,0.0,0.0,0.0,0.0,0.0,0.0,0.0,0.0,0.0,0.0,0.0,0.0,0.0,0.0,0.0,0.0,0.0,0.0,0.0,0.0,0.0,0.0,0.0,0.0,0.0,0.0,0.0,0.0,0.0,0.2017,0.4812,0.6369,0.9935,1.3727,1.5284,1.6741,1.786,1.786,1.786,1.786,1.786,1.786,1.786,1.786,1.786,1.786,1.786,1.786,0.0,0.0,0.0,0.0,0.0,0.0,0.0,0.0,0.0,0.0,1.7758,1.7758,1.7792,1.786,1.786,1.786,1.786,1.786,1.786,1.786,1.786,1.786,1.786,1.786,1.786,1.786,1.786,1.786,1.786,1.786,1.786,1.786,1.786,1.8736,2.0145,2.0145,1.9287,1.786,1.786,1.786,1.788,1.7948,1.8077,1.8213,0.0,0.0,0.0,0.0,0.0,0.0,0.0,0.0,0.0,0.0,0.0,0.0,0.0,0.0,0.0,0.0,0.0,0.0,0.0,0.0,0.0,0.0,0.0,0.0,0.0,0.0,0.0,0.0,0.0,0.0,0.0,0.0,0.0,0.0,0.0,0.0,0.0,0.0,0.0,0.0,0.0,0.0,0.0,0.0,0.0,0.0112,0.0673,0.1009,0.1009,0.168,0.1458,0.1121,0.168,0.3915,0.6818,0.9156,1.1937,1.4847,1.7197,1.786,1.786,1.786,1.786,1.786,1.786,1.786,1.786,1.786,1.786,1.786,1.786,1.786,0.0,0.0,0.0,0.0,0.0,0.0,0.0,0.0,0.0,0.0,1.786,1.786,1.786,1.786,1.786,1.786,1.786,1.786,1.786,1.786,1.786,1.786,1.786,1.786,1.786,1.786,1.786,1.786,1.786,1.786,1.786,1.7977,1.8508,2.0466,2.3075,2.3075,2.1781,1.9705,1.906,1.8853,1.8757,1.8253,1.8199,1.8321,0.0,0.0,0.0,0.0,0.0,0.0,0.0,0.0,0.0,0.0,0.0,0.0,0.0,0.0,0.0,0.0,0.0,0.0,0.0,0.0,0.0,0.0,0.0,0.0,0.0,0.0,0.0,0.0,0.0,0.0,0.0,0.0,0.0,0.0,0.0,0.0,0.0,0.0,0.0,0.0,0.0,0.0,0.0,0.0,0.0,0.0337,0.3135,0.4027,0.4476,0.7153,0.6257,0.4588,0.7264,1.0158,1.2612,1.2935,1.5168,1.7522,1.786,1.786,1.786,1.786,1.786,1.786,1.786,1.786,1.786,1.786,1.786,1.786,1.786,1.786,1.786,0.0,0.0,0.0,0.0,0.0,0.0,0.0,0.0,0.0,1.786,1.786,1.786,1.786,1.786,1.786,1.786,1.786,1.786,1.786,1.786,1.786,1.786,1.786,1.786,1.786,1.786,1.786,1.786,1.786,1.786,1.8088,2.0694,2.3402,2.6097,2.6097,2.5988,2.5447,2.2857,2.1781,2.1477,1.9018,1.8199,1.8335,0.0,0.0,0.0,0.0,0.0,0.0,0.0,0.0,0.0,0.0,0.0,0.0,0.0,0.0,0.0,0.0,0.0,0.0,0.0,0.0,0.0,0.0,0.0,0.0,0.0,0.0,0.0,0.0,0.0,0.0,0.0,0.0,0.0,0.0,0.0,0.0,0.0,0.0,0.0,0.0,0.0,0.1139,0.2842,0.2842,0.3977,0.5786,0.703,0.735,0.7766,1.068,0.9645,0.737,0.8485,1.0937,1.3389,1.3389,1.5512,1.786,1.786,1.786,1.786,1.786,1.786,1.786,1.786,1.786,1.786,1.786,1.786,1.786,1.786,1.786,1.786,1.786,0.0,0.0,0.0,0.0,0.0,0.0,0.0,0.0,1.786,1.786,1.786,1.786,1.786,1.786,1.786,1.786,1.786,1.786,1.7948,1.8002,1.8002,1.8091,1.8145,1.8145,1.8145,1.8145,1.8145,1.8145,1.9133,2.1215,2.5835,2.758,2.7142,2.8902,2.8564,2.6933,2.5716,2.4182,2.2454,2.143,1.9957,1.8464,0.0,0.0,0.0,0.0,0.0,0.0,0.0,0.0,0.0,0.0,0.0,0.0,0.0,0.0,0.0,0.0,0.0,0.0,0.0,0.0,0.0,0.0,0.0,0.0,0.0,0.0,0.0,0.0,0.0,0.0,0.0,0.0,0.0,0.0,0.0,0.057,0.1368,0.0344,0.1035,0.264,0.1723,0.3214,0.6078,0.6078,0.7444,0.9497,1.0406,1.0598,1.1003,1.3947,1.3445,1.1678,1.1621,1.3051,1.473,1.473,1.6176,1.786,1.786,1.786,1.786,1.786,1.786,1.786,1.786,1.786,1.786,1.786,1.786,1.786,1.786,1.786,1.786,1.786,0.0,0.0,0.0,0.0,0.0,0.0,1.7901,1.7935,1.7935,1.7968,1.8002,1.8002,1.8002,1.7989,1.7935,1.7935,1.7948,1.8002,1.8111,1.8158,1.8158,1.8267,1.8321,1.8321,1.8321,1.8321,1.8321,1.9206,2.1759,2.5754,2.9866,3.1085,3.0075,3.2191,3.1754,2.9833,2.8963,2.6864,2.4111,2.3302,2.1123,1.8552,0.0,0.0,0.0,0.0,0.0,0.0,0.0,0.0,0.0,0.0,0.0,0.0,0.0,0.0,0.0,0.0,0.0,0.0,0.0,0.0,0.0,0.0,0.0,0.0,0.0,0.0,0.0,0.0,0.0,0.0,0.0,0.0,0.0,0.0,0.0,0.1723,0.4474,0.1265,0.3559,0.9037,0.5847,0.6532,0.938,0.938,0.938,0.9725,1.2692,1.3721,1.418,1.7287,1.8201,1.8154,1.7851,1.786,1.786,1.786,1.786,1.786,1.786,1.786,1.786,1.786,1.786,1.786,1.786,1.786,1.786,1.786,1.786,1.786,1.786,1.786,1.786,1.786,0.0,0.0,0.0,0.0,0.0,0.0,1.8002,1.8091,1.8091,1.8233,1.8321,1.8321,1.8321,1.8247,1.8091,1.8091,0.0,1.8301,1.8321,0.0,1.8321,1.8321,1.8321,1.8321,1.8321,1.8321,1.8435,2.1422,2.6087,3.1621,3.1633,3.3295,3.5964,3.6072,3.6072,3.5735,3.2737,2.9855,2.6783,2.4082,2.1123,1.8552,0.0,0.0,0.0,0.0,0.0,0.0,0.0,0.0,0.0,0.0,0.0,0.0,0.0,0.0,0.0,0.0,0.0,0.0,0.0,0.0,0.0,0.0,0.0,0.0,0.0,0.0,0.0,0.0,0.0,0.0,0.0,0.0,0.0,0.0,0.0,0.058,0.1622,0.2677,0.4312,0.6287,0.7455,0.9776,1.2557,1.2557,1.3955,1.593,1.6859,1.7148,1.7187,1.8108,1.8409,1.8301,1.8199,1.8179,1.8158,1.8057,1.8023,1.8002,1.7901,1.786,1.786,1.786,1.786,1.786,1.786,1.786,1.786,1.786,1.786,1.786,1.786,1.7948,1.8023,1.8023,1.8111,0.0,0.0,0.0,0.0,0.0,1.8213,1.8247,1.8247,1.8287,1.8321,1.8321,1.8321,1.8301,1.8247,1.8247,1.8267,0.0,1.8409,0.0,1.8464,1.8565,1.862,1.862,2.0766,2.2807,2.494,2.7989,3.0455,3.2249,3.4306,3.5767,3.6647,3.6647,3.6647,3.6317,3.3371,3.0354,2.7313,2.434,2.1302,1.8694,0.0,0.0,0.0,0.0,0.0,0.0,0.0,0.0,0.0,0.0,0.0,0.0,0.0,0.0,0.0,0.0,0.0,0.0,0.0,0.0,0.0,0.0,0.0,0.0,0.0,0.0,0.0,0.0,0.0,0.0,0.0,0.0,0.0,0.0,0.0,0.1285,0.3616,0.4338,0.6804,1.0077,1.0903,1.3008,1.5814,1.5814,1.7104,1.8762,1.8762,1.8708,1.862,1.862,1.8565,1.8477,1.8477,1.8477,1.8443,1.8233,1.8179,1.8158,1.8057,1.8036,1.8036,1.8036,1.8036,1.8036,1.8036,1.8036,1.8036,1.8036,1.8036,1.8036,1.8036,1.8111,1.8179,1.8179,1.8247,1.8321,1.8321,0.0,0.0,0.0,0.0,1.8409,1.8409,1.8443,1.8477,1.8477,1.8477,1.8477,1.8477,1.8423,1.8423,1.8477,1.8565,1.862,1.862,1.8708,1.9328,2.0586,2.3539,2.6614,2.9674,3.1576,3.3056,3.4197,3.6139,3.6941,3.6941,3.6941,3.6941,3.6608,3.3527,3.0565,2.7533,2.4455,2.1387,1.8762,0.0,0.0,0.0,0.0,0.0,0.0,0.0,0.0,0.0,0.0,0.0,0.0,0.0,0.0,0.0,0.0,0.0,0.0,0.0,0.0,0.0,0.0,0.0,0.0,0.0,0.0,0.0,0.0,0.0,0.0,0.0,0.0,0.0,0.0,0.0236,0.3526,0.8908,0.6457,1.0431,1.8284,1.547,1.6168,1.8762,1.8762,1.8762,1.8762,1.8762,1.8762,1.8762,1.8762,1.8762,1.8762,1.8762,1.8762,1.8708,1.8423,1.8335,1.8335,1.8321,1.8321,1.8321,1.8321,1.8321,1.8321,1.8321,1.8321,1.8321,1.8321,1.8321,1.8321,1.8321,1.8321,1.8335,1.8335,1.8335,1.8355,1.8355,0.0,0.0,0.0,1.8464,0.0,1.8552,1.8674,1.8762,1.8762,1.8762,1.8762,1.8762,1.862,1.862,1.8762,1.8762,1.8762,1.8762,1.898,2.0702,2.3997,2.6851,2.9798,3.272,3.272,3.4197,3.6941,3.6941,3.6941,3.6941,3.6941,3.6941,3.6595,3.3304,3.0351,2.7523,2.4235,2.1164,1.8762,0.0,0.0,0.0,0.0,0.0,0.0,0.0,0.0,0.0,0.0,0.0,0.0,0.0,0.0,0.0,0.0,0.0,0.0,0.0,0.0,0.0,0.0,0.0,0.0,0.0,0.0,0.0,0.0,0.0,0.0,0.0,0.0,0.0,0.0118,0.2469,0.4463,0.6103,1.0194,1.3125,1.5354,1.7006,1.8181,1.8762,1.8762,1.8762,1.8762,1.8762,1.8762,1.8762,1.8762,1.8762,1.8762,1.8762,1.8762,1.8728,1.8531,1.8477,1.8464,1.8355,1.8321,1.8321,1.8321,1.8321,1.8321,1.8321,1.8321,1.8321,1.8321,1.8321,1.8321,1.8321,1.8409,1.8477,1.8477,1.8586,1.8654,1.8654,1.8654,1.8654,1.8654,1.8694,1.8708,1.8708,1.8742,1.8762,0.0,1.8762,1.8762,1.8762,1.8728,1.8728,1.8762,1.8762,1.8762,1.8762,2.1048,2.4894,3.0238,3.1026,3.2956,3.5806,3.5806,3.6263,3.6941,3.6941,3.6941,3.6941,3.6941,3.6941,3.636,3.1026,2.8543,2.7192,2.1848,1.9444,1.8762,0.0,0.0,0.0,0.0,0.0,0.0,0.0,0.0,0.0,0.0,0.0,0.0,0.0,0.0,0.0,0.0,0.0,0.0,0.0,0.0,0.0,0.0,0.0,0.0,0.0,0.0,0.0,0.0,0.0,0.0,0.0,0.0,0.0824,0.2234,0.3879,0.634,0.9259,1.2654,1.4877,1.6407,1.8065,1.8762,1.8762,1.8762,1.8762,1.8762,1.8762,1.8762,1.8762,1.8762,1.8762,1.8762,1.8762,1.8762,1.8742,1.8654,1.864,1.862,1.8552,1.8518,1.8518,1.8518,1.8518,1.8518,1.8518,1.8518,1.8518,1.8518,1.8518,1.8518,1.8518,1.8586,1.864,1.864,1.8708,1.8762,1.8762,1.8762,1.8762,1.8762,1.8762,1.8762,1.8762,1.8762,1.8762,1.8762,1.8762,1.8762,1.8762,1.8762,1.8762,1.8762,1.8762,1.9444,2.0825,2.5255,2.9099,3.2385,3.385,3.5335,3.6941,3.6941,3.6941,3.6941,3.6941,3.6941,3.6941,3.6941,3.6941,3.6263,3.0238,2.7874,2.7192,2.1048,1.8762,1.8762,0.0,0.0,0.0,0.0,0.0,0.0,0.0,0.0,0.0,0.0,0.0,0.0,0.0,0.0,0.0,0.0,0.0,0.0,0.0,0.0,0.0,0.0,0.0,0.0,0.0,0.0,0.0,0.0,0.0,0.0,0.0,0.0471,0.2117,0.4698,0.5752,0.9142,1.4179,1.4655,1.6407,1.8762,1.8762,1.8762,1.8762,1.8762,1.8762,1.8762,1.8762,1.8762,1.8762,1.8762,1.8762,1.8762,1.8762,1.8762,1.8762,1.8762,1.8762,1.8762,1.8762,1.8762,1.8762,1.8762,1.8762,1.8762,1.8762,1.8762,1.8762,1.8762,1.8762,1.8762,1.8762,1.8762,1.9001,1.9444,1.9103,1.9001,1.9444,0.0,1.8762,1.8762,1.8762,1.8762,1.8762,1.8762,1.8762,1.8762,1.8762,1.8762,1.8762,1.9219,1.9444,1.9444,1.9444,2.1164,2.4675,2.9776,3.2597,3.3068,3.5682,3.6941,3.6941,3.6941,3.6941,3.6941,3.6941,3.6941,3.6941,3.6941,3.6608,3.5669,3.0136,2.7647,2.6519,2.0825,1.8762,1.8762,0.0,0.0,0.0,0.0,0.0,0.0,0.0,0.0,0.0,0.0,0.0,0.0,0.0,0.0,0.0,0.0,0.0,0.0,0.0,0.0,0.0,0.0,0.0,0.0,0.0,0.0,0.0,0.0,0.0,0.0,0.0,0.2706,0.4228,0.4932,1.0311,1.3125,1.4295,1.6884,1.84,1.8762,1.8762,1.8762,1.8762,1.8762,1.8762,1.8762,1.8762,1.8762,1.8762,1.8762,1.8762,1.8762,1.8762,1.8762,1.8762,1.8762,1.8762,1.8762,1.8762,1.8762,1.8762,1.8762,1.8762,1.8762,1.8762,1.8762,1.8762,1.8762,1.8762,1.8762,1.8762,1.8762,1.9683,2.2185,2.0486,1.9683,2.2185,0.0,1.8762,1.8762,1.8762,1.8762,1.8762,1.8762,1.8762,1.8762,1.8762,1.8762,1.8762,2.1164,2.2645,2.2645,2.2645,2.5351,3.0914,3.1924,3.3651,3.6263,3.6719,3.6941,3.6941,3.6941,3.6941,3.6941,3.6941,3.6941,3.6941,3.6941,3.5459,3.272,2.9222,2.6272,2.3547,2.0139,1.8762,1.8762,0.0,0.0,0.0,0.0,0.0,0.0,0.0,0.0,0.0,0.0,0.0,0.0,0.0,0.0,0.0,0.0,0.0,0.0,0.0,0.0,0.0,0.0,0.0,0.0,0.0,0.0,0.0,0.0,0.0,0.0824,0.2587,0.3996,0.6567,0.9851,1.277,1.4999,1.6762,1.8181,1.8762,1.8762,1.8762,1.8762,1.8762,1.8762,1.8762,1.8762,1.8762,1.8762,1.8762,1.8762,1.8762,1.8762,1.8762,1.8762,1.8762,1.8762,1.8762,1.8762,1.8762,1.8762,1.8762,1.8762,1.8762,1.8762,1.8762,1.8762,1.8762,1.8762,1.8762,1.8762,1.8762,1.8762,1.9226,2.0702,1.9683,1.9342,2.0702,1.9683,1.8762,1.8762,1.8762,1.8762,1.8762,1.8762,1.8762,1.8762,1.8762,1.956,2.1164,2.2522,2.4798,2.808,2.8204,2.955,3.2385,3.3986,3.5472,3.6941,3.6941,3.6941,3.6941,3.6941,3.6941,3.6941,3.6941,3.6941,3.6941,3.6941,3.5126,3.2048,2.912,2.6054,2.2982,1.9907,1.8762,1.8762,0.0,0.0,0.0,0.0,0.0,0.0,0.0,0.0,0.0,0.0,0.0,0.0,0.0,0.0,0.0,0.0,0.0,0.0,0.0,0.0,0.0,0.0,0.0,0.0,0.0,0.0,0.0353,0.1059,0.1059,0.2706,0.5752,0.657,0.9496,1.4179,1.4877,1.6529,1.8762,1.8762,1.8762,1.8762,1.8762,1.8762,1.8762,1.8762,1.8762,1.8762,1.8762,1.8762,1.8762,1.8762,1.8762,1.8762,1.8762,1.8762,1.8762,1.8762,1.8762,1.8762,1.8762,1.8762,1.8762,1.8762,1.8762,1.8762,1.8762,1.8762,1.8762,1.8762,1.9342,1.99,1.99,2.0486,2.1164,2.1848,0.0,2.1164,2.1848,2.1387,2.0702,1.9907,2.0486,2.0586,1.9907,1.99,1.99,1.99,1.99,2.0825,2.3203,2.4675,2.7843,3.3304,3.3403,3.3403,3.3403,3.5793,3.6941,3.6941,3.6941,3.6941,3.6941,3.6941,3.6941,3.6941,3.6941,3.6941,3.6817,3.6139,3.4098,3.1026,2.7967,2.4921,2.1963,1.9683,1.8762,1.8762,0.0,0.0,0.0,0.0,0.0,0.0,0.0,0.0,0.0,0.0,0.0,0.0,0.0,0.0,0.0,0.0,0.0,0.0,0.0,0.0,0.0,0.0,0.0,0.0,0.0,0.0,0.1412,0.4345,0.4345,0.5986,0.9142,1.207,1.3703,1.4179,1.711,1.8523,1.8762,1.8762,1.8762,1.8762,1.8762,1.8762,1.8762,1.8762,1.8762,1.8762,1.8762,1.8762,1.8762,1.8762,1.8762,1.8762,1.8762,1.8762,1.8762,1.8762,1.8762,1.8762,1.8762,1.8762,1.8762,1.8762,1.8762,1.8762,1.8762,1.8762,1.8762,1.8762,2.1041,2.2982,2.2982,2.5255,2.809,3.0914,0.0,0.0,3.1026,2.9007,2.6177,2.3318,2.5474,2.6054,2.3203,2.2982,2.2982,2.2982,2.2982,2.3105,2.3318,2.8636,3.318,3.6471,3.6595,3.6595,3.6595,3.6817,3.6941,3.6941,3.6941,3.6941,3.6941,3.6941,3.6941,3.6941,3.6941,3.6941,3.6719,3.3862,3.0914,2.7987,2.4798,2.184,1.9103,1.8878,1.8762,1.8762,0.0,0.0,0.0,0.0,0.0,0.0,0.0,0.0,0.0,0.0,0.0,0.0,0.0,0.0,0.0,0.0,0.0,0.0,0.0,0.0,0.0,0.0,0.0,0.0942,0.2823,0.2941,0.4463,0.7627,0.7627,0.9259,1.2299,1.3586,1.5116,1.7104,1.8284,1.8762,1.8762,1.8762,1.8762,1.8762,1.8762,1.8762,1.8762,1.8762,1.8762,1.8762,1.8762,1.8762,1.8762,1.8762,1.8762,1.8762,1.8762,1.8762,1.8762,1.8762,1.8762,1.8762,1.8762,1.8762,1.9226,2.1164,2.1625,2.2062,2.3997,2.4455,2.4455,2.4455,2.5379,2.6177,2.6177,2.7069,2.8327,2.9459,0.0,2.8327,2.9459,2.8657,2.7523,2.6272,2.7192,2.7409,2.6272,2.6177,2.6177,2.6177,2.6177,2.6945,2.8872,3.2956,3.5682,3.6817,3.6941,3.6941,3.6941,3.6941,3.6941,3.6941,3.6941,3.6941,3.6941,3.6941,3.6941,3.6817,3.4878,3.4073,3.3862,3.0812,2.7863,2.4921,2.3777,2.1502,1.8762,1.8762,1.8762,1.8762,0.0,0.0,0.0,0.0,0.0,0.0,0.0,0.0,0.0,0.0,0.0,0.0,0.0,0.0,0.0,0.0,0.0,0.0,0.0,0.0942,0.153,0.153,0.153,0.2938,0.6103,0.6223,0.7738,1.0903,1.0903,1.2532,1.5587,1.5587,1.6762,1.8762,1.8762,1.8762,1.8762,1.8762,1.8762,1.8762,1.8762,1.8762,1.8762,1.8762,1.8762,1.8762,1.8762,1.8762,1.8762,1.8762,1.8762,1.8762,1.8762,1.8762,1.8762,1.8762,1.9444,2.024,2.024,2.0925,2.1963,2.2982,2.3997,2.5255,2.7409,2.7874,2.7874,2.7874,2.8667,2.9335,2.9335,3.0136,3.07,3.07,3.07,3.07,3.07,3.07,3.0351,2.9459,3.0136,3.0351,2.9346,2.9335,2.9335,2.9335,2.9335,3.0576,3.3639,3.5793,3.6941,3.6941,3.6941,3.6941,3.6941,3.6941,3.6941,3.6941,3.6941,3.6941,3.6941,3.6941,3.636,3.5335,3.3304,3.1835,3.07,2.774,2.5255,2.3203,2.23,2.0549,1.8694,1.8694,1.8654,1.862,0.0,0.0,0.0,0.0,0.0,0.0,0.0,0.0,0.0,0.0,0.0,0.0,0.0,0.0,0.0,0.0,0.0,0.0,0.0118,0.3055,0.4698,0.4815,0.4698,0.6223,0.9379,0.9379,1.102,1.4179,1.4179,1.5709,1.8762,1.8762,1.8762,1.8762,1.8762,1.8762,1.8762,1.8762,1.8762,1.8762,1.8762,1.8762,1.8762,1.8762,1.8762,1.8762,1.8762,1.8762,1.8762,1.8762,1.8762,1.8762,1.8762,1.8762,1.8762,1.8878,2.0925,2.3318,2.3326,2.5598,2.7192,2.412,2.5712,2.7987,2.7987,2.7987,2.7987,2.7987,3.0351,3.2385,3.2385,3.4878,3.6941,3.6941,3.6941,3.6941,3.6941,3.6941,3.5793,3.2832,3.5113,3.5682,3.272,3.2385,3.2385,3.2385,3.2385,3.3738,3.6693,3.6941,3.6941,3.6941,3.6941,3.6941,3.6941,3.6941,3.6941,3.6941,3.6941,3.6941,3.6941,3.683,3.5211,3.2385,3.2373,3.0576,2.7647,2.4578,2.3203,2.2982,2.0023,1.8674,1.8531,1.8531,1.8443,1.8321,0.0,0.0,0.0,0.0,0.0,0.0,0.0,0.0,0.0,0.0,0.0,0.0,0.0,0.0,0.0942,0.3055,0.329,0.4228,0.6457,0.751,0.9025,1.1245,0.9142,0.9496,1.2654,1.2654,1.4295,1.7349,1.7349,1.7826,1.8762,1.8762,1.8762,1.8762,1.8762,1.8762,1.8762,1.8762,1.8762,1.8762,1.8762,1.8762,1.8762,1.8762,1.8762,1.8762,1.8762,1.8762,1.8762,1.8762,1.8762,1.8762,1.8762,1.8762,1.9219,2.1387,2.2645,2.3785,2.593,2.8759,3.079,2.99,3.0351,3.1588,3.3763,3.4197,3.4197,3.4197,3.4878,3.5583,3.5583,3.6263,3.6941,3.6941,3.6941,3.6941,3.6941,3.6941,3.6595,3.5669,3.6347,3.6595,3.5669,3.5583,3.5583,3.5583,3.5583,3.593,3.6817,3.6941,3.6941,3.6941,3.6941,3.6941,3.6941,3.6941,3.6941,3.6941,3.6941,3.6941,3.6817,3.4668,3.3304,3.216,2.7843,2.5474,2.4455,2.1387,2.0124,2.0009,1.8979,1.8565,1.8511,1.8423,1.8355,1.8321,0.0,0.0,0.0,0.0,0.0,0.0,0.0,0.0,0.0,0.0,0.0,0.0471,0.1766,0.1882,0.3173,0.634,0.657,0.7855,1.102,1.1245,1.2654,1.5825,1.4179,1.4062,1.593,1.593,1.6884,1.8762,1.8762,1.8762,1.8762,1.8762,1.8762,1.8762,1.8762,1.8762,1.8762,1.8762,1.8762,1.8762,1.8762,1.8762,1.8762,1.8762,1.8762,1.8762,1.8762,1.8762,1.8762,1.8762,1.8762,1.898,2.024,2.0586,2.1164,2.4244,2.594,2.7286,2.9212,3.1835,3.4197,3.4197,3.4197,3.4655,3.6484,3.6941,3.6941,3.6941,3.6941,3.6941,3.6941,3.6941,3.6941,3.6941,3.6941,3.6941,3.6941,3.6941,3.6941,3.6941,3.6941,3.6941,3.6941,3.6941,3.6941,3.6941,3.6941,3.6941,3.6941,3.6941,3.6941,3.6941,3.6941,3.6941,3.6941,3.6941,3.6941,3.6941,3.6941,3.6263,3.5113,3.318,3.1037,2.8636,2.4921,2.2645,2.1387,1.956,1.8728,1.8654,1.8565,1.8464,1.8355,1.8267,1.8199,1.7914,0.0,0.0,0.0,0.0,0.0,0.0,0.0,0.0,0.0,0.0,0.0236,0.153,0.4345,0.4932,0.634,0.9496,1.0077,1.1483,1.43,1.4533,1.5825,1.8639,1.8762,1.8762,1.8762,1.8762,1.8762,1.8762,1.8762,1.8762,1.8762,1.8762,1.8762,1.8762,1.8762,1.8762,1.8762,1.8762,1.8762,1.8762,1.8762,1.8762,1.8762,1.8762,1.8762,1.8762,1.8762,1.8762,1.8762,1.8762,1.8762,1.9342,2.2308,2.3318,2.3997,2.7286,3.0238,3.2497,3.272,3.4779,3.6941,3.6941,3.6941,3.6941,3.6941,3.6941,3.6941,3.6941,3.6941,3.6941,3.6941,3.6941,3.6941,3.6941,3.6941,3.6941,3.6941,3.6941,3.6941,3.6941,3.6941,3.6941,3.6941,3.6941,3.6941,3.6941,3.6941,3.6941,3.6941,3.6941,3.6941,3.6941,3.6941,3.6941,3.6941,3.6941,3.6941,3.6941,3.6608,3.5113,3.2385,3.1824,2.8543,2.3318,2.2982,2.1379,1.8742,1.8742,1.8654,1.8511,1.8498,1.8321,1.8091,1.7728,1.7642,1.708,0.0,0.0,0.0,0.0,0.0,0.0,0.0,0.0,0.0,0.0,0.2117,0.3996,0.458,0.6921,0.9613,1.277,1.5354,1.7104,1.7704,1.782,1.8059,1.8762,1.8762,1.8762,1.8762,1.8762,1.8762,1.8762,1.8762,1.8762,1.8762,1.8762,1.8762,1.8762,1.8762,1.8762,1.8762,1.8762,1.8762,1.8762,1.8762,1.8762,1.8762,1.8762,1.8762,1.8762,1.8762,1.8762,1.8762,1.8762,1.8762,1.9342,2.2308,2.3318,2.4341,2.9776,3.1913,3.2956,3.5335,3.636,3.6941,3.6941,3.6941,3.6941,3.6941,3.6941,3.6941,3.6941,3.6941,3.6941,3.6941,3.6941,3.6941,3.6941,3.6941,3.6941,3.6941,3.6941,3.6941,3.6941,3.6941,3.6941,3.6941,3.6941,3.6941,3.6941,3.6941,3.6941,3.6941,3.6941,3.6941,3.6941,3.6941,3.6941,3.6941,3.6941,3.6941,3.683,3.4531,3.3056,3.2261,2.7409,2.4578,2.3203,2.0825,1.9272,1.8586,1.8586,1.8498,1.8355,1.8233,1.8145,1.784,1.5372,1.442,1.3954,0.0,0.0,0.0,0.0,0.0,0.0,0.0,0.1295,0.2234,0.2234,0.4934,0.751,0.9025,1.0665,1.2891,1.6052,1.782,1.8762,1.8762,1.8762,1.8762,1.8762,1.8762,1.8762,1.8762,1.8762,1.8762,1.8762,1.8762,1.8762,1.8762,1.8762,1.8762,1.8762,1.8762,1.8762,1.8762,1.8762,1.8762,1.8762,1.8762,1.8762,1.8762,1.8762,1.8762,1.8762,1.8762,1.8762,1.8762,1.8762,1.8762,1.9567,2.412,2.5474,2.6727,3.272,3.4531,3.4878,3.6471,3.6941,3.6941,3.6941,3.6941,3.6941,3.6941,3.6941,3.6941,3.6941,3.6941,3.6941,3.6941,3.6941,3.6941,3.6941,3.6941,3.6941,3.6941,3.6941,3.6941,3.6941,3.6941,3.6941,3.6941,3.6941,3.6941,3.6941,3.6941,3.6941,3.6941,3.6941,3.6941,3.6941,3.6941,3.6941,3.6941,3.6941,3.6941,3.683,3.5335,3.3056,3.0114,2.6945,2.3883,2.1048,1.9374,1.8599,1.8531,1.8464,1.8335,1.808,1.6528,1.5889,1.5489,1.2409,1.0384,0.8933,0.0,0.0,0.0,0.0,0.0471,0.0824,0.0824,0.3526,0.5517,0.5517,0.8209,1.1245,1.3824,1.4533,1.593,1.8523,1.8762,1.8762,1.8762,1.8762,1.8762,1.8762,1.8762,1.8762,1.8762,1.8762,1.8762,1.8762,1.8762,1.8762,1.8762,1.8762,1.8762,1.8762,1.8762,1.8762,1.8762,1.8762,1.8762,1.8762,1.8762,1.8762,1.8762,1.8762,1.8762,1.8762,1.8762,1.8762,1.8878,1.9444,1.956,2.0586,2.6727,2.8667,2.9798,3.5335,3.6941,3.6941,3.6941,3.6941,3.6941,3.6941,3.6941,3.6941,3.6941,3.6941,3.6941,3.6941,3.6941,3.6941,3.6941,3.6941,3.6941,3.6941,3.6941,3.6941,3.6941,3.6941,3.6941,3.6941,3.6941,3.6941,3.6941,3.6941,3.6941,3.6941,3.6941,3.6941,3.6941,3.6941,3.6941,3.6941,3.6941,3.6941,3.6941,3.6941,3.6941,3.6941,3.636,3.3192,2.7863,2.6851,2.3539,1.8708,1.8586,1.8498,1.8443,1.8335,1.7848,1.7038,1.4546,1.3141,1.2274,0.9268,0.6257,0.3695,0.0,0.0,0.0,0.0,0.2234,0.4114,0.4114,0.6687,0.8798,0.8798,1.1483,1.3586,1.4062,1.6529,1.8284,1.8762,1.8762,1.8762,1.8762,1.8762,1.8762,1.8762,1.8762,1.8762,1.8762,1.8762,1.8762,1.8762,1.8762,1.8762,1.8762,1.8762,1.8762,1.8762,1.8762,1.8762,1.8762,1.8762,1.8762,1.8762,1.8762,1.8762,1.8762,1.8762,1.8762,1.8762,1.8762,1.8762,1.9219,2.184,2.2645,2.3777,2.9889,3.1824,3.2497,3.5917,3.6941,3.6941,3.6941,3.6941,3.6941,3.6941,3.6941,3.6941,3.6941,3.6941,3.6941,3.6941,3.6941,3.6941,3.6941,3.6941,3.6941,3.6941,3.6941,3.6941,3.6941,3.6941,3.6941,3.6941,3.6941,3.6941,3.6941,3.6941,3.6941,3.6941,3.6941,3.6941,3.6941,3.6941,3.6941,3.6941,3.6941,3.6941,3.6941,3.6941,3.6941,3.683,3.4308,3.1161,2.774,2.2407,1.9489,1.8565,1.8545,1.8389,1.8145,1.8124,1.6559,1.397,1.3642,1.1834,0.9156,0.6146,0.3247,0.0561,0.0,0.0,0.0589,0.2352,0.3761,0.5281,0.7038,0.996,1.207,1.207,1.4761,1.6762,1.6762,1.7943,1.8762,1.8762,1.8762,1.8762,1.8762,1.8762,1.8762,1.8762,1.8762,1.8762,1.8762,1.8762,1.8762,1.8762,1.8762,1.8762,1.8762,1.8762,1.8762,1.8762,1.8762,1.8762,1.8762,1.8762,1.8762,1.8762,1.8762,1.8762,1.8762,1.8762,1.8762,1.8762,1.8762,1.99,2.1502,2.2859,2.4455,2.6614,3.1026,3.2385,3.2944,3.6015,3.6941,3.6941,3.6941,3.6941,3.6941,3.6941,3.6941,3.6941,3.6941,3.6941,3.6941,3.6941,3.6941,3.6941,3.6941,3.6941,3.6941,3.6941,3.6941,3.6941,3.6941,3.6941,3.6941,3.6941,3.6941,3.6941,3.6941,3.6941,3.6941,3.6941,3.6941,3.6941,3.6941,3.6941,3.6941,3.6941,3.6941,3.6941,3.6941,3.6941,3.6941,3.6817,3.216,2.9212,2.775,2.3216,2.0171,1.8511,1.8355,1.8213,1.8091,1.8002,1.6126,1.3273,1.1497,0.8042,0.3806,0.2465,0.1121,0.0]},{"header":{"parameterUnit":"m.s-1","parameterCategory":1,"la1":30.6,"la2":28.766,"lo1":-90.7593,"lo2":-88.6598,"dy":0.0162,"dx":0.0183,"nx":116,"ny":114,"refTime":"2023-10-07T12:00:00:Z","depth":0,"parameterNumber":3,"parameterNumberName":"V-component_of_WINDS"},"data":[0.0,0.0,0.0,0.0,0.0,0.0,0.0,0.0,0.0,0.0,0.0,0.0,0.0,0.0,0.0,0.0,0.0,0.0,0.0,0.0,0.0,0.0,0.0,0.0,0.0,0.0,0.0,0.0,0.0,0.0,0.0,0.0,0.0,0.0,0.0,0.0,0.0,0.0,0.0,0.0,0.0,0.0,0.0,0.0,0.0,0.0,0.0,0.0,0.0,0.0,0.0,0.0,0.0,0.0,0.0,0.0,0.0,0.0,0.0,0.0,0.0,0.0,0.0,0.0,0.0,0.0,0.0,0.0,0.0,0.0,0.0,0.0,0.0,0.0,0.0,0.0,0.0,0.0,0.0,0.0,0.0,0.0,0.0,0.0,0.0,0.0,0.0,0.0,0.0,0.0,0.0,0.0,0.0,0.0,0.0,0.0,0.0,0.0,0.0,0.0,0.0,0.0,0.0,0.0,0.0,0.0,0.0,0.0,0.0,0.0,0.0,0.0,0.0,0.0,0.0,0.0,0.0,0.0,0.0,0.0,0.0,0.0,0.0,0.0,0.0,0.0,0.0,0.0,0.0,0.0,0.0,0.0,0.0,0.0,0.0,0.0,0.0,0.0,0.0,0.0,0.0,0.0,0.0,0.0,0.0,0.0,0.0,0.0,0.0,0.0,0.0,0.0,0.0,0.0,0.0,0.0,0.0,0.0,0.0,0.0,0.0,0.0,0.0,0.0,0.0,0.0,0.0,0.0,0.0,0.0,0.0,0.0,0.0,0.0,0.0,0.0,0.0,0.0,0.0,0.0,0.0,0.0,0.0,0.0,0.0,0.0,0.0,0.0,0.0,0.0,0.0,0.0,0.0,0.0,0.0,0.0,0.0,0.0,0.0,0.0,0.0,0.0,0.0,0.0,0.0,0.0,0.0,0.0,0.0,0.0,0.0,0.0,0.0,0.0,0.0,0.0,0.0,0.0,0.0,0.0,0.0,0.0,0.0,0.0,0.0,0.0,0.0,0.0,0.0,0.0,0.0,0.0,0.0,0.0,0.0,0.0,0.0,0.0,0.0,0.0,0.0,0.0,0.0,0.0,0.0,0.0,0.0,0.0,0.0,0.0,0.0,0.0,0.0,0.0,0.0,0.0,0.0,0.0,0.0,0.0,0.0,0.0,0.0,0.0,0.0,0.0,0.0,0.0,0.0,0.0,0.0,0.0,0.0,0.0,0.0,0.0,0.0,0.0,0.0,0.0,0.0,0.0,0.0,0.0,0.0,0.0,0.0,0.0,0.0,0.0,0.0,0.0,0.0,0.0,0.0,0.0,0.0,0.0,0.0,0.0,0.0,0.0,0.0,0.0,0.0,0.0,0.0,0.0,0.0,0.0,0.0,0.0,0.0,0.0,0.0,0.0,0.0,0.0,0.0,0.0,0.0,0.0,0.0,0.0,0.0,0.0,0.0,0.0,0.0,0.0,0.0,0.0,0.0,0.0,0.0,0.0,0.0,0.0,0.0,0.0,0.0,0.0,0.0,0.0,0.0,0.0,0.0,0.0,0.0,0.0,0.0,0.0,0.0,0.0,0.0,0.0,0.0,0.0,0.0,0.0,0.0,0.0,0.0,0.0,0.0,0.0,0.0,0.0,0.0,0.0,0.0,0.0,0.0,0.0,0.0,0.0,0.0,0.0,0.0,0.0,0.0,0.0,0.0,0.0,0.0,0.0,0.0,0.0,0.0,0.0,0.0,0.0,0.0,0.0,0.0,0.0,0.0,0.0,0.0,0.0,0.0,0.0,0.0,0.0,0.0,0.0,0.0,0.0,0.0,0.0,0.0,0.0,0.0,0.0,0.0,0.0,0.0,0.0,0.0,0.0,0.0,0.0,0.0,0.0,0.0,0.0,0.0,0.0,0.0,0.0,0.0,0.0,0.0,0.0,0.0,0.0,0.0,0.0,0.0,0.0,0.0,0.0,0.0,0.0,0.0,0.0,0.0,0.0,0.0,0.0,0.0,0.0,0.0,0.0,0.0,0.0,0.0,0.0,0.0,0.0,0.0,0.0,0.0,0.0,0.0,0.0,0.0,0.0,0.0,0.0,0.0,0.0,0.0,0.0,0.0,0.0,0.0,0.0,0.0,0.0,0.0,0.0,0.0,0.0,0.0,0.0,0.0,0.0,0.0,0.0,0.0,0.0,0.0,0.0,0.0,0.0,0.0,0.0,0.0,0.0,0.0,0.0,0.0,0.0,0.0,0.0,0.0,0.0,0.0,0.0,0.0,0.0,0.0,0.0,0.0,0.0,0.0,0.0,0.0,0.0,0.0,0.0,0.0,0.0,0.0,0.0,0.0,0.0,0.0,0.0,0.0,0.0,0.0,0.0,0.0,0.0,0.0,0.0,0.0,0.0,0.0,0.0,0.0,0.0,0.0,0.0,0.0,0.0,0.0,0.0,0.0,0.0,0.0,0.0,0.0,0.0,0.0,0.0,0.0,0.0,0.0,0.0,0.0,0.0,0.0,0.0,0.0,0.0,0.0,0.0,0.0,0.0,0.0,0.0,0.0,0.0,0.0,0.0,0.0,0.0,0.0,0.0,0.0,0.0,0.0,0.0,0.0,0.0,0.0,0.0,0.0,0.0,0.0,0.0,0.0,0.0,0.0,0.0,0.0,0.0,0.0,0.0,0.0,0.0,0.0,0.0,0.0,0.0,0.0,0.0,0.0,0.0,0.0,0.0,0.0,0.0,0.0,0.0,0.0,0.0,0.0,0.0,0.0,0.0,0.0,0.0,0.0,0.0,0.0,0.0,0.0,0.0,0.0,0.0,0.0,0.0,0.0,0.0,0.0,0.0,0.0,0.0,0.0,0.0,0.0,0.0,0.0,0.0,0.0,0.0,0.0,0.0,0.0,0.0,0.0,0.0,0.0,0.0,0.0,0.0,0.0,0.0,0.0,0.0,0.0,0.0,0.0,0.0,0.0,0.0,0.0,0.0,0.0,0.0,0.0,0.0,0.0,0.0,0.0,0.0,0.0,0.0,0.0,0.0,0.0,0.0,0.0,0.0,0.0,0.0,0.0,0.0,0.0,0.0,0.0,0.0,0.0,0.0,0.0,0.0,0.0,0.0,0.0,0.0,0.0,0.0,0.0,0.0,0.0,0.0,0.0,0.0,0.0,0.0,0.0,0.0,0.0,0.0,0.0,0.0,0.0,0.0,0.0,0.0,0.0,0.0,0.0,0.0,0.0,0.0,0.0,0.0,0.0,0.0,0.0,0.0,0.0,0.0,0.0,0.0,0.0,0.0,0.0,0.0,0.0,0.0,0.0,0.0,0.0,0.0,0.0,0.0,0.0,0.0,0.0,0.0,0.0,0.0,0.0,0.0,0.0,0.0,0.0,0.0,0.0,0.0,0.0,0.0,0.0,0.0,0.0,0.0,0.0,0.0,0.0,0.0,0.0,0.0,0.0,0.0,0.0,0.0,0.0,0.0,0.0,0.0,0.0,0.0,0.0,0.0,0.0,0.0,0.0,0.0,0.0,0.0,0.0,0.0,0.0,0.0,0.0,0.0,0.0,0.0,0.0,0.0,0.0,0.0,0.0,0.0,0.0,0.0,0.0,0.0,0.0,0.0,0.0,0.0,0.0,0.0,0.0,0.0,0.0,0.0,0.0,0.0,0.0,0.0,0.0,0.0,0.0,0.0,0.0,0.0,0.0,0.0,0.0,0.0,0.0,0.0,0.0,0.0,0.0,0.0,0.0,0.0,0.0,0.0,0.0,0.0,0.0,0.0,0.0,0.0,0.0,0.0,0.0,0.0,0.0,0.0,0.0,0.0,0.0,0.0,0.0,0.0,0.0,0.0,0.0,0.0,0.0,0.0,0.0,0.0,0.0,0.0,0.0,0.0,0.0,0.0,0.0,0.0,0.0,0.0,0.0,0.0,0.0,0.0,0.0,0.0,0.0,0.0,0.0,0.0,0.0,0.0,0.0,0.0,0.0,0.0,0.0,0.0,0.0,0.0,0.0,0.0,0.0,0.0,0.0,0.0,0.0,0.0,0.0,0.0,0.0,0.0,0.0,0.0,0.0,0.0,0.0,0.0,0.0,0.0,0.0,0.0,0.0,0.0,0.0,0.0,0.0,0.0,0.0,0.0,0.0,0.0,0.0,0.0,0.0,0.0,0.0,0.0,0.0,0.0,0.0,0.0,0.0,0.0,0.0,0.0,0.0,0.0,0.0,0.0,0.0,0.0,0.0,0.0,0.0,0.0,0.0,0.0,0.0,0.0,0.0,0.0,0.0,0.0,0.0,0.0,0.0,0.0,0.0,0.0,0.0,0.0,0.0,0.0,0.0,0.0,0.0,0.0,0.0,0.0,0.0,0.0,0.0,0.0,0.0,0.0,0.0,0.0,0.0,0.0,0.0,0.0,0.0,0.0,0.0,0.0,0.0,0.0,0.0,0.0,0.0,0.0,0.0,0.0,0.0,0.0,0.0,0.0,0.0,0.0,0.0,0.0,0.0,0.0,0.0,0.0,0.0,0.0,0.0,0.0,0.0,0.0,0.0,0.0,0.0,0.0,0.0,0.0,0.0,0.0,0.0,0.0,0.0,0.0,0.0,0.0,0.0,0.0,0.0,0.0,0.0,0.0,0.0,0.0,0.0,0.0,0.0,0.0,0.0,0.0,0.0,0.0,0.0,0.0,0.0,0.0,0.0,0.0,0.0,0.0,0.0,0.0,0.0,0.0,0.0,0.0,0.0,0.0,0.0,0.0,0.0,0.0,0.0,0.0,0.0,0.0,0.0,0.0,0.0,0.0,0.0,0.0,0.0,0.0,0.0,0.0,0.0,0.0,0.0,0.0,0.0,0.0,0.0,0.0,0.0,0.0,0.0,0.0,0.0,0.0,0.0,0.0,0.0,0.0,0.0,0.0,0.0,0.0,0.0,0.0,0.0,0.0,0.0,0.0,0.0,0.0,0.0,0.0,0.0,0.0,0.0,0.0,0.0,0.0,0.0,0.0,0.0,0.0,0.0,0.0,0.0,0.0,0.0,0.0,0.0,0.0,0.0,0.0,0.0,0.0,0.0,0.0,0.0,0.0,0.0,0.0,0.0,0.0,0.0,0.0,0.0,0.0,0.0,0.0,0.0,0.0,0.0,0.0,0.0,0.0,0.0,0.0,0.0,0.0,0.0,0.0,0.0,0.0,0.0,0.0,0.0,0.0,0.0,0.0,0.0,0.0,0.0,0.0,0.0,0.0,0.0,0.0,0.0,0.0,0.0,0.0,0.0,0.0,0.0,0.0,0.0,0.0,0.0,0.0,0.0,0.0,0.0,0.0,0.0,0.0,0.0,0.0,0.0,0.0,0.0,0.0,0.0,0.0,0.0,0.0,0.0,0.0,0.0,0.0,0.0,0.0,0.0,0.0,0.0,0.0,0.0,0.0,0.0,0.0,0.0,0.0,0.0,0.0,0.0,0.0,0.0,0.0,0.0,0.0,0.0,0.0,0.0,0.0,0.0,0.0,0.0,0.0,0.0,0.0,0.0,0.0,0.0,0.0,0.0,0.0,0.0,0.0,0.0,0.0,0.0,0.0,0.0,0.0,0.0,0.0,0.0,0.0,0.0,0.0,0.0,0.0,0.0,0.0,0.0,0.0,0.0,0.0,0.0,0.0,0.0,0.0,0.0,0.0,0.0,0.0,0.0,0.0,0.0,0.0,0.0,0.0,0.0,0.0,0.0,0.0,0.0,0.0,0.0,0.0,0.0,0.0,0.0,0.0,0.0,0.0,0.0,0.0,0.0,0.0,0.0,0.0,0.0,0.0,0.0,0.0,0.0,0.0,0.0,0.0,0.0,0.0,0.0,0.0,0.0,0.0,0.0,0.0,0.0,0.0,0.0,0.0,0.0,0.0,0.0,0.0,0.0,0.0,0.0,0.0,0.0,0.0,0.0,0.0,0.0,0.0,0.0,0.0,0.0,0.0,0.0,0.0,0.0,0.0,0.0,0.0,0.0,0.0,0.0,0.0,0.0,0.0,0.0,0.0,0.0,0.0,0.0,0.0,0.0,0.0,0.0,0.0,0.0,0.0,0.0,0.0,0.0,0.0,0.0,0.0,0.0,0.0,7.5,0.0,0.0,0.0,0.0,0.0,0.0,0.0,0.0,0.0,0.0,0.0,0.0,0.0,0.0,0.0,0.0,0.0,0.0,0.0,0.0,0.0,0.0,0.0,0.0,0.0,0.0,0.0,0.0,0.0,0.0,0.0,0.0,0.0,0.0,0.0,0.0,0.0,0.0,7.0898,7.0898,7.0898,7.0898,7.0898,7.0898,7.0898,0.0,0.0,0.0,0.0,0.0,0.0,0.0,0.0,0.0,0.0,0.0,0.0,0.0,0.0,0.0,0.0,0.0,0.0,0.0,0.0,0.0,0.0,0.0,0.0,0.0,0.0,0.0,0.0,0.0,0.0,0.0,0.0,0.0,0.0,0.0,0.0,0.0,0.0,0.0,0.0,0.0,0.0,0.0,0.0,0.0,0.0,0.0,0.0,0.0,0.0,0.0,0.0,0.0,0.0,0.0,0.0,0.0,0.0,0.0,0.0,0.0,0.0,0.0,0.0,0.0,0.0,0.0,0.0,0.0,0.0,0.0,7.654,0.0,0.0,0.0,0.0,0.0,0.0,0.0,0.0,0.0,0.0,0.0,0.0,0.0,0.0,0.0,0.0,0.0,0.0,0.0,0.0,0.0,0.0,0.0,6.945,6.9735,7.0463,7.0531,7.0733,0.0,0.0,0.0,0.0,0.0,0.0,7.0953,7.0925,7.0898,7.0898,7.0898,7.0898,7.0898,7.0898,7.0898,7.0898,7.0898,0.0,0.0,0.0,0.0,0.0,0.0,0.0,0.0,0.0,0.0,0.0,0.0,0.0,0.0,0.0,0.0,0.0,0.0,0.0,0.0,0.0,0.0,0.0,0.0,0.0,0.0,0.0,0.0,0.0,0.0,0.0,0.0,0.0,0.0,0.0,0.0,0.0,0.0,0.0,0.0,0.0,0.0,0.0,0.0,0.0,0.0,0.0,0.0,0.0,0.0,0.0,0.0,0.0,0.0,0.0,0.0,0.0,0.0,0.0,0.0,0.0,0.0,0.0,7.9119,7.9104,7.9104,7.926,7.9212,7.9044,7.9349,7.9243,7.8834,7.9155,0.0,0.0,0.0,0.0,0.0,0.0,0.0,0.0,0.0,0.0,0.0,0.0,0.0,0.0,0.0,0.0,0.0,0.0,0.0,0.0,0.0,7.0507,7.0858,7.1675,7.1753,7.1737,7.1659,0.0,0.0,0.0,0.0,0.0,7.1158,7.0979,7.0898,7.0898,7.0898,7.0898,7.0898,7.0898,7.0898,7.0898,7.0898,7.0898,7.0898,0.0,0.0,0.0,0.0,0.0,0.0,0.0,0.0,0.0,0.0,0.0,0.0,0.0,0.0,0.0,0.0,0.0,0.0,0.0,0.0,0.0,0.0,0.0,0.0,0.0,0.0,0.0,0.0,0.0,0.0,0.0,0.0,0.0,0.0,0.0,0.0,0.0,0.0,0.0,0.0,0.0,7.6784,7.6784,0.0,0.0,0.0,0.0,0.0,0.0,0.0,0.0,0.0,0.0,0.0,0.0,0.0,7.9137,7.9192,7.9111,7.9196,7.9357,7.9241,7.9204,7.9204,7.9898,8.0124,7.9974,8.0755,0.0,7.8801,7.8839,0.0,0.0,0.0,0.0,0.0,0.0,0.0,0.0,0.0,0.0,0.0,0.0,0.0,0.0,0.0,0.0,0.0,0.0,0.0,0.0,0.0,7.1321,7.1425,7.1815,7.1741,7.169,7.1594,7.1524,0.0,0.0,0.0,7.1131,7.1211,7.1004,7.0898,7.0898,7.0898,7.0898,7.0898,7.0898,7.0898,7.0898,7.0898,7.0898,7.0898,7.0898,0.0,0.0,0.0,0.0,0.0,0.0,0.0,0.0,0.0,0.0,0.0,0.0,0.0,0.0,0.0,0.0,0.0,0.0,0.0,0.0,0.0,0.0,0.0,0.0,0.0,0.0,0.0,0.0,0.0,0.0,0.0,0.0,0.0,0.0,0.0,0.0,0.0,0.0,0.0,7.7274,7.8073,7.8342,7.8613,7.885,0.0,0.0,0.0,0.0,0.0,0.0,0.0,0.0,0.0,8.0446,8.1077,8.1432,8.1409,8.181,8.209,8.2161,8.209,8.2053,8.2092,8.2435,8.2543,8.2475,8.2699,8.2387,8.16,8.0671,8.0387,8.0473,0.0,0.0,0.0,0.0,7.922,7.9273,0.0,0.0,0.0,0.0,0.0,0.0,0.0,0.0,0.0,0.0,0.0,0.0,7.1871,7.1802,7.1682,7.1655,7.1554,7.1478,7.1478,7.1478,7.1505,7.1549,7.1314,7.1213,7.128,7.1041,7.0898,7.0898,7.0898,7.0898,7.0898,7.0898,7.0898,7.0898,7.0898,7.0898,7.0898,7.0898,7.0898,7.0898,0.0,0.0,0.0,0.0,0.0,0.0,0.0,0.0,0.0,0.0,0.0,0.0,0.0,0.0,0.0,0.0,0.0,0.0,0.0,0.0,0.0,0.0,0.0,0.0,0.0,0.0,0.0,0.0,0.0,0.0,0.0,0.0,0.0,0.0,0.0,0.0,0.0,7.8539,7.9126,7.9478,7.9523,7.9709,0.0,0.0,0.0,0.0,0.0,0.0,8.1487,8.2216,8.2562,8.2357,8.3142,8.3521,8.3403,8.4065,8.4403,8.4446,8.4446,8.4446,8.4446,8.4446,8.4422,8.437,8.4097,8.3984,8.3895,8.252,8.1993,8.2011,8.1476,8.1351,8.1275,8.0586,8.0327,8.0377,0.0,0.0,0.0,0.0,0.0,0.0,0.0,0.0,0.0,0.0,0.0,7.1871,7.1744,7.1693,7.1651,7.1511,7.1485,7.1478,7.1478,7.1478,7.1554,7.1679,7.1397,7.1299,7.1464,7.1108,7.0898,7.0898,7.0898,7.0898,7.0898,7.0898,7.0898,7.0898,7.0898,7.0898,7.0898,7.0898,7.0898,7.0898,7.0898,0.0,0.0,0.0,0.0,0.0,0.0,0.0,0.0,0.0,0.0,0.0,0.0,0.0,0.0,0.0,0.0,0.0,0.0,0.0,0.0,0.0,0.0,0.0,0.0,0.0,0.0,0.0,0.0,0.0,0.0,0.0,0.0,0.0,0.0,0.0,0.0,0.0,0.0,8.0326,8.1057,0.0,0.0,0.0,0.0,8.4243,8.4552,8.4598,8.4412,8.4451,8.4361,8.4202,8.4202,8.4325,8.4525,8.4564,8.4687,8.4882,8.4882,8.4882,8.4882,8.4882,8.479,8.4559,8.4285,8.4201,8.4224,8.3718,8.362,8.3757,8.373,8.3832,8.3973,8.3757,8.3653,8.3655,0.0,0.0,0.0,0.0,0.0,0.0,0.0,0.0,7.164,7.1953,7.1992,7.1952,7.1907,7.171,7.1588,7.1629,7.1442,7.1404,7.1624,7.1633,7.1721,7.1904,7.1655,7.1446,7.1317,7.1053,7.0898,7.0898,7.0898,7.0898,7.0898,7.0898,7.0898,7.0898,7.0898,7.0898,7.0898,7.0898,7.0898,7.0898,7.0898,7.0898,0.0,0.0,0.0,0.0,0.0,0.0,0.0,0.0,0.0,0.0,0.0,0.0,0.0,0.0,0.0,0.0,0.0,0.0,0.0,0.0,0.0,0.0,0.0,0.0,0.0,0.0,0.0,0.0,0.0,0.0,0.0,0.0,0.0,0.0,0.0,0.0,0.0,8.2407,8.3111,0.0,8.4173,8.4157,8.4259,8.4568,8.4542,8.4462,8.4409,8.4532,8.4555,8.4512,8.5168,8.5559,8.5615,8.6201,8.6519,8.6562,8.6562,8.6562,8.6562,8.6562,8.6522,8.6434,8.6198,8.6061,8.6089,8.5767,8.4936,8.3912,8.3754,8.374,8.3798,8.3736,8.3693,8.3717,0.0,0.0,0.0,0.0,0.0,0.0,0.0,0.0,7.1992,7.1992,7.1992,7.1953,7.1908,7.171,7.1588,7.1633,7.1442,7.1397,7.1624,7.1671,7.1753,7.1906,7.1732,7.1452,7.1131,7.0979,7.0898,7.0898,7.0898,7.0898,7.0898,7.0898,7.0898,7.0898,7.0898,7.0898,7.0898,7.0898,7.0898,7.0898,7.0898,7.0898,7.0898,0.0,0.0,0.0,0.0,0.0,0.0,0.0,0.0,0.0,0.0,0.0,0.0,0.0,0.0,0.0,0.0,0.0,0.0,0.0,0.0,0.0,0.0,0.0,0.0,0.0,0.0,0.0,0.0,0.0,0.0,0.0,0.0,0.0,0.0,8.2786,8.3582,8.3982,8.4387,8.4753,8.5145,8.5113,8.5157,8.543,8.54,8.538,8.538,8.5523,8.559,8.559,8.6285,8.664,8.664,8.7226,8.75,8.75,8.75,8.75,8.75,8.75,8.75,8.75,8.7225,8.7163,8.7222,8.6929,8.6074,8.4932,8.4661,8.4528,8.4439,8.4439,8.4439,8.4439,0.0,0.0,0.0,0.0,0.0,0.0,0.0,7.1992,7.1992,7.1992,7.1992,7.1949,7.1741,7.1693,7.1651,7.1511,7.1491,7.1491,7.1537,7.1638,7.1693,7.1689,7.1572,7.1326,7.0925,7.0898,7.0898,7.0898,7.0898,7.0898,7.0898,7.0898,7.0898,7.0898,7.0898,7.0898,7.0898,7.0898,7.0898,7.0898,7.0898,7.0898,7.0898,0.0,0.0,0.0,0.0,0.0,0.0,0.0,0.0,0.0,0.0,0.0,0.0,0.0,0.0,0.0,0.0,0.0,0.0,0.0,0.0,0.0,0.0,0.0,0.0,0.0,0.0,0.0,0.0,0.0,0.0,0.0,0.0,0.0,8.4256,8.4629,8.4922,8.4922,8.478,8.5005,8.5781,8.5903,8.6254,8.703,8.7332,8.75,8.75,8.75,8.75,8.75,8.75,8.75,8.75,8.75,8.75,8.75,8.75,8.75,8.75,8.75,8.75,8.75,8.7228,8.7275,8.746,8.7025,8.6943,8.7043,8.6651,8.636,8.6126,8.6126,8.6126,8.611,0.0,0.0,0.0,0.0,0.0,0.0,0.0,7.1992,7.1992,7.1992,7.1992,7.1992,7.191,7.1802,7.1744,7.1852,7.1728,7.1718,7.1852,7.1904,7.1859,7.1693,7.1572,7.1365,7.1115,7.0953,7.0898,7.0898,7.0898,7.0898,7.0898,7.0898,7.0898,7.0898,7.0898,7.0898,7.0898,7.0898,7.0898,7.0898,7.0898,7.0898,7.0975,0.0,0.0,0.0,0.0,0.0,0.0,0.0,0.0,0.0,0.0,0.0,0.0,0.0,0.0,0.0,0.0,0.0,0.0,0.0,0.0,0.0,0.0,0.0,0.0,0.0,0.0,0.0,0.0,0.0,0.0,0.0,8.5685,8.5499,8.4821,8.5242,8.568,8.582,8.6365,8.679,8.7025,8.7064,8.7142,8.7376,8.746,8.75,8.75,8.75,8.75,8.75,8.75,8.75,8.75,8.75,8.75,8.75,8.75,8.75,8.75,8.75,8.75,8.75,8.7418,8.7419,8.75,8.7369,8.7222,8.7052,8.6833,8.6671,8.6609,8.6609,8.6514,8.6416,0.0,0.0,0.0,0.0,0.0,0.0,0.0,7.1992,7.1992,7.1992,7.1992,7.1992,7.1992,7.1906,7.1862,7.1992,7.1906,7.1864,7.1992,7.1992,7.1908,7.1696,7.1629,7.1478,7.1231,7.1097,7.0966,7.0898,7.0898,7.0898,7.0898,7.0898,7.0898,7.0898,7.0898,7.0898,7.0937,7.1283,7.1437,7.1489,7.1917,7.1853,7.1528,7.2495,7.2867,7.2956,7.3512,7.4013,7.442,7.442,0.0,0.0,0.0,0.0,0.0,0.0,0.0,0.0,0.0,0.0,0.0,0.0,0.0,0.0,0.0,0.0,0.0,0.0,0.0,0.0,0.0,0.0,0.0,0.0,8.6635,8.6562,8.6054,8.6319,8.6626,8.6718,8.7187,8.75,8.75,8.75,8.75,8.75,8.75,8.75,8.75,8.7812,8.8008,8.8008,8.8359,8.8554,8.8554,8.8554,8.8554,8.8554,8.8554,8.8554,8.8554,8.8554,8.8554,8.8554,8.8554,8.8554,8.8554,8.8554,8.8472,0.0,0.0,0.0,0.0,0.0,8.6661,8.6505,0.0,0.0,0.0,0.0,0.0,0.0,0.0,7.1992,7.1992,7.1992,7.1992,7.1992,7.1992,7.1992,7.1992,7.1992,7.1992,7.1992,7.1992,7.1992,7.1908,7.1696,7.1689,7.1544,7.1233,7.1223,7.1148,7.0979,7.0979,7.0979,7.0979,7.0979,7.0979,7.0979,7.0979,7.1018,7.1172,7.1942,7.2341,7.2482,7.3541,7.3319,7.2507,7.3579,7.3956,7.3985,7.4235,7.4813,7.5489,7.5489,0.0,0.0,0.0,0.0,0.0,0.0,0.0,0.0,0.0,0.0,0.0,0.0,0.0,0.0,0.0,0.0,0.0,0.0,0.0,0.0,0.0,0.0,0.0,0.0,8.75,8.75,8.75,8.75,8.75,8.75,8.75,8.75,8.75,8.75,8.7539,8.7617,8.7656,8.7695,8.7773,8.8476,0.0,0.0,0.0,9.0,9.0,9.0,9.0,9.0,9.0,9.0,9.0,9.0,9.0,9.0,9.0,9.0,9.0,9.0,9.0,8.9843,8.8089,8.7331,8.716,8.716,8.7001,8.6812,0.0,0.0,0.0,0.0,0.0,0.0,0.0,7.1992,7.1992,7.1992,7.1992,7.1992,7.1992,7.1992,7.1992,7.1992,7.1992,7.1992,7.1992,7.1992,7.1908,7.1696,7.1689,7.1629,7.1427,7.1427,7.1404,7.1365,7.1365,7.1365,7.1365,7.1365,7.1365,7.1365,7.1365,7.1761,7.2422,7.2616,7.3052,7.372,7.4655,7.442,7.359,7.4619,7.5012,7.5098,7.5836,7.6325,7.6574,7.6574,7.6825,7.7099,7.7099,7.7571,0.0,0.0,0.0,0.0,0.0,0.0,0.0,0.0,0.0,0.0,0.0,0.0,0.0,0.0,0.0,0.0,0.0,0.0,0.0,8.7461,8.75,8.75,8.75,8.75,8.75,8.75,8.75,8.75,8.75,8.75,8.7773,8.8437,8.8476,8.8789,8.9492,8.9648,8.9765,8.9765,8.9922,9.0,9.0,9.0,9.0,9.0,0.0,0.0,9.0,9.0,9.0,9.0,9.0,9.0,9.0,9.0,9.0,8.9961,8.9607,8.9407,8.9363,8.9363,8.9106,8.8805,0.0,0.0,0.0,0.0,0.0,0.0,0.0,7.1992,7.1992,7.1992,7.1992,7.1992,7.1992,7.1992,7.1992,7.1992,7.1992,7.1992,7.1992,7.1992,7.1951,7.1859,7.1858,7.1753,7.1609,7.1604,7.1566,7.1478,7.1478,7.1478,7.1478,7.1478,7.1478,7.1517,7.1952,7.238,7.2853,7.371,7.4293,7.4735,7.5708,7.5813,7.5397,7.5908,7.6092,7.618,7.6708,7.6948,7.7052,7.7052,7.7416,7.7851,7.7851,7.8437,7.9101,0.0,0.0,0.0,0.0,0.0,0.0,0.0,0.0,0.0,0.0,0.0,0.0,0.0,0.0,8.6992,8.7422,0.0,8.75,8.75,8.75,8.75,8.75,8.7851,8.7969,8.7539,8.7851,8.8086,8.8086,8.8515,8.8906,8.9336,8.9336,8.9531,8.9961,9.039,9.0664,9.0664,9.1054,9.1289,9.1289,9.1289,9.1289,9.1289,9.1289,9.1289,9.1289,9.1289,9.1289,9.1289,9.1289,9.1289,9.1289,9.1289,9.1289,9.1289,9.1289,9.0781,9.0,9.0,8.9704,8.9324,0.0,0.0,0.0,0.0,0.0,0.0,0.0,7.1992,7.1992,7.1992,7.1992,7.1992,7.1992,7.1992,7.1992,7.1992,7.1992,7.1992,7.1992,7.1992,7.1992,7.1992,7.1992,7.191,7.1756,7.1753,7.1718,7.1616,7.1616,7.1616,7.1616,7.1616,7.1694,7.1889,7.2596,7.3103,7.3498,7.4862,7.5524,7.5725,7.6603,7.6945,7.6945,7.6945,7.6945,7.6993,7.7145,7.7187,7.7226,7.7383,7.793,7.8515,7.8672,7.9297,7.9961,7.9961,8.0586,0.0,0.0,0.0,0.0,0.0,0.0,0.0,0.0,8.6445,8.664,8.7344,8.75,8.75,8.75,8.75,8.75,8.75,8.7617,8.7734,8.7734,8.8437,8.8711,8.8047,8.8554,8.8945,8.8945,8.9609,9.0078,9.0234,9.0234,9.0312,9.0508,9.1172,9.1562,9.1562,9.2383,9.2851,9.2851,9.3008,9.3125,9.3125,9.3125,9.3125,9.3125,9.3125,9.3125,9.3125,9.3125,9.3125,9.3125,9.3125,9.3125,9.3125,9.3125,9.2265,9.0976,9.0625,9.0211,8.9821,0.0,0.0,0.0,0.0,0.0,0.0,0.0,0.0,7.1992,7.1992,7.1992,7.1992,7.1992,7.1992,7.1992,7.1992,7.1992,7.1992,7.1992,7.1992,7.1992,7.1992,7.1992,7.1992,7.1952,7.1952,7.1951,7.1949,7.1949,7.1949,7.1949,7.1949,7.2379,7.3082,7.3199,7.4098,7.5582,7.5738,7.6285,7.6989,7.7108,7.7187,7.7187,7.7187,7.7187,7.7187,7.7187,7.7187,7.7305,7.8086,7.8437,7.8633,7.9336,8.0156,8.0859,8.0859,8.1484,8.2304,8.3086,8.3945,8.4804,8.5703,8.5976,8.6289,0.0,8.7344,8.7383,8.7461,8.75,8.75,8.75,8.75,8.75,8.75,8.8086,8.8554,8.8554,8.9297,8.9804,8.9726,8.9804,8.9844,8.9844,8.9922,9.0312,9.1094,9.1133,9.1484,9.2265,9.2383,9.2461,9.2461,9.3281,9.375,9.375,9.4531,9.4922,9.4922,9.4922,9.4922,9.4922,9.4922,9.4922,9.4922,9.4922,9.4922,9.4922,9.4922,9.4922,9.4922,9.4922,9.4804,9.4414,9.289,9.2007,9.1637,0.0,0.0,0.0,0.0,0.0,0.0,0.0,0.0,0.0,7.1992,7.1992,7.1992,7.1992,7.1992,7.1992,7.1992,7.1992,7.1992,7.1992,7.1992,7.1992,7.1992,7.1992,7.1992,7.1992,7.1992,7.1992,7.1992,7.1992,7.1992,7.1992,7.1992,7.2461,7.332,7.3828,7.4726,7.5937,7.6445,7.6875,7.7187,7.7187,7.7187,7.7187,7.7187,7.7187,7.7187,7.7187,7.7539,0.0,7.8398,7.914,8.0,8.0351,8.1054,8.1758,8.1758,8.2383,8.3242,8.4101,8.5,8.5742,8.6094,8.6562,8.7031,8.7422,8.75,8.75,8.75,8.75,8.75,8.75,8.789,8.8203,8.8203,8.8906,8.9453,8.9453,9.0195,9.0742,9.0742,9.1211,9.1328,9.082,9.1211,9.164,9.2031,9.207,9.2422,9.332,9.3359,9.3594,9.4101,9.4453,9.4648,9.4648,9.5039,9.5195,9.5195,9.5195,9.5195,9.5195,9.5195,9.5195,9.5195,9.5195,9.5195,9.5195,9.5195,9.5195,9.5195,9.5195,9.5195,9.5078,9.42,9.366,9.3345,0.0,0.0,0.0,0.0,0.0,0.0,0.0,0.0,0.0,0.0,7.1992,7.1992,7.1992,7.1992,7.1992,7.1992,7.1992,7.1992,7.1992,7.1992,7.1992,7.1992,7.1992,7.1992,7.1992,7.1992,7.1992,7.1992,7.1992,7.1992,7.1992,7.2265,7.2812,7.3711,7.457,7.543,7.6289,7.6914,7.7187,7.7187,7.7187,7.7187,7.7187,7.7187,7.7187,7.7226,7.7461,7.7969,7.8555,7.9023,8.0,8.1054,8.1289,8.1953,8.2656,8.2656,8.3437,8.4453,8.5078,8.5898,8.6562,8.6562,8.7031,8.75,8.75,8.75,8.75,8.75,8.75,8.7578,8.7773,8.832,8.8789,8.9023,8.9804,9.0351,9.0351,9.1094,9.164,9.164,9.2226,9.2461,9.207,9.2383,9.2695,9.2929,9.2969,9.3359,9.4219,9.4258,9.4531,9.5195,9.5429,9.5547,9.5547,9.5781,9.5898,9.5898,9.5898,9.5898,9.5898,9.5898,9.5898,9.5898,9.5898,9.5898,9.5898,9.5898,9.5898,9.5898,9.5898,9.5898,9.5858,9.5538,9.4963,9.4377,0.0,0.0,0.0,0.0,0.0,0.0,0.0,0.0,0.0,0.0,0.0,0.0,0.0,7.1992,7.1992,7.1992,7.1992,7.1992,7.1992,7.1992,7.1992,7.1992,7.1992,7.1992,7.1992,7.1992,7.1992,7.1992,7.1992,7.1992,7.2031,7.2851,7.3711,7.4609,7.5469,7.6328,7.7148,7.7187,7.7187,7.7187,7.7187,7.7187,7.7187,7.7187,7.7187,7.7305,7.8164,7.8476,7.875,8.039,8.0976,8.1133,8.1992,8.2851,8.3554,8.3554,8.4765,8.6133,8.6133,8.6797,8.7461,8.7461,8.7461,8.75,8.75,8.75,8.75,8.75,8.75,8.7734,8.8515,8.8672,8.8984,8.9804,9.0703,9.125,9.125,9.1992,9.2578,9.2578,9.2578,9.2929,9.375,9.3086,9.2969,9.3789,9.3867,9.4258,9.5117,9.5156,9.5156,9.5195,9.6015,9.6445,9.6445,9.7226,9.7617,9.7617,9.7617,9.7617,9.7617,9.7617,9.7617,9.7617,9.7617,9.7617,9.7617,9.7617,9.7617,9.7617,9.7617,9.7617,9.7576,9.7103,9.5845,9.4396,0.0,0.0,0.0,0.0,0.0,0.0,0.0,0.0,0.0,0.0,0.0,0.0,0.0,0.0,0.0,0.0,7.1992,7.1992,7.1992,7.1992,7.1992,7.1992,7.1992,7.1992,7.1992,7.1992,7.1992,7.1992,7.1992,7.1992,7.2031,7.289,7.3789,7.4648,7.5508,7.6367,7.7187,7.7187,7.7187,7.7187,7.7187,7.7187,7.7187,7.7187,7.7578,7.8164,0.0,7.9297,7.9453,8.0625,8.1367,8.1992,8.289,8.3359,8.3828,8.5,8.5742,8.6328,8.6914,8.7265,8.75,8.75,8.75,8.75,8.75,8.75,8.7656,8.8203,8.8281,8.8554,8.9414,9.0039,9.0508,9.082,9.1601,9.2148,9.2148,9.2422,9.2812,9.3398,9.3476,9.3789,9.4687,9.3984,9.3828,9.4687,9.4765,9.5156,9.6015,9.6054,9.6328,9.6836,9.7148,9.7304,9.7304,9.7578,9.7695,9.7695,9.7695,9.7695,9.7695,9.7695,9.7695,9.7695,9.7695,9.7695,9.7695,9.7695,9.7695,9.7695,9.7695,9.7695,9.7655,9.7368,9.6787,9.6089,0.0,0.0,0.0,0.0,0.0,0.0,0.0,0.0,0.0,0.0,0.0,0.0,0.0,0.0,0.0,0.0,0.0,7.1992,7.1992,7.1992,7.1992,7.1992,7.1992,7.1992,7.1992,7.1992,7.1992,7.1992,7.1992,7.2148,7.2461,7.3359,7.4219,7.5117,7.5976,7.668,7.7187,7.7187,7.7187,7.7187,7.7187,7.7187,7.7187,7.7187,7.7734,0.0,7.9414,7.9883,8.0312,8.1172,8.1836,8.2461,8.332,8.4023,8.4804,8.625,8.664,8.6797,8.7344,8.75,8.75,8.75,8.75,8.75,8.75,8.7734,8.8086,8.8594,8.8945,8.9414,9.0312,9.0937,9.1484,9.2148,9.2695,9.3164,9.3476,9.3515,9.375,9.4297,9.4375,9.4726,9.5586,9.5156,9.5078,9.5625,9.5664,9.6015,9.6875,9.6914,9.7187,9.7695,9.7695,9.7695,9.7695,9.7695,9.7695,9.7695,9.7695,9.7695,9.7695,9.7695,9.7695,9.7695,9.7695,9.7695,9.7695,9.7695,9.7695,9.7695,9.7695,9.7695,9.7695,9.7487,9.7233,9.6974,0.0,0.0,0.0,0.0,0.0,0.0,0.0,0.0,0.0,0.0,0.0,0.0,0.0,0.0,0.0,0.0,0.0,0.0,7.1992,7.1992,7.1992,7.1992,7.1992,7.1992,7.1992,7.1992,7.1992,7.1992,7.1992,7.2422,7.3242,7.418,7.5039,7.5859,7.6797,7.7187,7.7187,7.7187,7.7187,7.7187,7.7187,7.7187,7.7187,7.7265,7.7812,7.8672,7.9492,8.0312,8.1172,8.2031,8.2344,8.2578,8.3476,8.4883,8.6445,8.7265,8.75,8.75,8.75,8.75,8.75,8.75,8.75,8.75,8.7539,8.8164,8.8711,8.8828,8.9492,9.0312,9.1211,9.1367,9.1914,9.3554,9.3867,9.4179,9.5039,9.5156,9.5234,9.5273,9.5273,9.5625,9.6484,9.6562,9.6562,9.6562,9.6562,9.6875,9.7656,9.7695,9.7695,9.7695,9.7695,9.7695,9.7695,9.7695,9.7695,9.7695,9.7695,9.7695,9.7695,9.7695,9.7695,9.7695,9.7695,9.7695,9.7695,9.7695,9.7695,9.7695,9.7695,9.7695,9.7695,9.7487,9.7233,9.6974,0.0,0.0,0.0,0.0,0.0,0.0,0.0,0.0,0.0,0.0,0.0,0.0,0.0,0.0,0.0,0.0,0.0,0.0,7.1992,7.1992,7.1992,7.1992,7.1992,7.1992,7.1992,7.1992,7.1992,7.1992,7.1992,7.2109,7.2344,7.3906,7.4726,7.5,7.6523,7.7187,7.7187,7.7187,7.7187,7.7187,7.7187,7.7187,7.7265,7.793,7.8672,7.9492,8.0351,8.1211,8.1992,8.2226,8.3164,8.4375,8.5273,8.6289,8.7226,8.7422,8.75,8.75,8.75,8.75,8.75,8.75,8.75,8.7656,8.8242,8.8554,8.9062,9.0351,9.082,9.1211,9.2109,9.2265,9.2422,9.2851,9.3476,9.3984,9.4219,9.4804,9.5429,9.6094,9.6172,9.6484,9.7304,9.7383,9.7383,9.7383,9.7383,9.7461,9.7695,9.7695,9.7695,9.7695,9.7695,9.7695,9.7695,9.7695,9.7695,9.7695,9.7695,9.7695,9.7695,9.7695,9.7695,9.7695,9.7695,9.7695,9.7695,9.7695,9.7695,9.7695,9.7695,9.7695,9.7695,9.7487,9.7233,9.6974,0.0,0.0,0.0,0.0,0.0,0.0,0.0,0.0,0.0,0.0,0.0,0.0,0.0,0.0,0.0,0.0,0.0,0.0,0.0,7.1992,7.1992,7.1992,7.1992,7.1992,7.1992,7.1992,7.1992,7.1992,7.1992,7.2187,7.2617,7.3945,7.4805,7.5234,7.6601,7.7187,7.7187,7.7187,7.7187,0.0,0.0,7.7187,7.7305,7.8164,7.8984,7.9805,8.0703,8.1797,8.2929,8.332,8.4101,8.5039,8.5937,8.6797,8.75,8.75,8.75,8.75,8.75,8.75,8.75,8.75,8.75,8.7695,8.8515,8.8984,8.9648,9.1015,9.1601,9.2031,9.25,9.2617,9.2851,9.3633,9.414,9.4726,9.5469,9.5976,9.6484,9.6953,9.7031,9.7187,9.7656,9.7695,9.7851,9.8242,9.7929,9.7695,9.7695,9.7695,9.7695,9.7695,9.7695,9.7695,9.7695,9.7695,9.7695,9.7695,9.7695,9.7695,9.7695,9.7695,9.7695,9.7695,0.0,9.7695,9.7695,9.7695,9.7695,9.7695,9.7695,9.7653,9.7557,9.7433,9.7145,9.6804,0.0,0.0,0.0,0.0,0.0,0.0,0.0,0.0,0.0,0.0,0.0,0.0,0.0,0.0,0.0,0.0,0.0,0.0,0.0,0.0,7.1992,7.1992,7.1992,7.1992,7.1992,7.1992,7.1992,7.1992,7.1992,7.2383,7.3164,7.414,7.5,7.5781,7.6758,7.7187,7.7187,7.7187,7.7187,7.7187,7.7187,7.7265,7.7461,0.0,7.914,8.0,8.0859,8.2226,8.3711,8.4609,8.4961,8.5234,8.6094,8.6875,8.75,8.75,8.75,8.75,8.75,8.75,8.75,8.75,8.7578,8.7851,8.8672,8.9531,9.0429,9.1289,9.207,9.2656,9.2734,9.2773,9.332,9.4922,9.5312,9.5898,9.7344,9.7617,9.7695,9.7695,9.7695,9.7695,9.7695,9.7812,9.8203,9.8945,9.8398,9.8047,9.8047,9.8047,9.8008,9.789,9.7851,9.7812,9.7695,9.7695,9.7695,9.7695,9.7695,9.7695,9.7695,9.7695,9.7695,9.7695,9.7695,9.7695,9.7695,9.7695,9.7695,9.7655,9.7655,9.7589,9.7538,9.7478,9.7246,9.6923,0.0,0.0,0.0,0.0,0.0,0.0,0.0,0.0,0.0,0.0,7.1992,7.1992,0.0,0.0,0.0,0.0,0.0,0.0,0.0,0.0,0.0,7.1992,7.1992,7.1992,7.1992,7.1992,7.1992,7.1992,7.1992,7.207,7.2265,7.3867,7.4687,7.4883,7.6484,7.7187,7.7187,7.7187,7.7187,7.7187,7.7187,7.7617,7.8359,7.918,8.0039,0.0,8.1758,8.2734,8.3711,8.4609,8.539,8.6133,8.6992,8.7383,8.75,8.75,8.75,8.75,8.75,8.75,8.75,8.75,8.8008,8.8711,8.957,9.0469,9.1328,9.2187,9.25,9.2812,9.3554,9.3672,9.4023,9.5039,9.5781,9.6367,9.6679,9.7265,9.7695,9.7695,9.7695,9.7695,9.7695,9.8359,9.8828,9.8984,9.9531,9.9844,9.9844,9.9844,9.9531,9.8789,9.8789,9.8437,9.7695,9.7695,9.7695,9.7695,9.7695,9.7695,9.7695,9.7695,9.7695,9.7695,9.7695,0.0,9.7695,9.7695,9.7607,9.7437,9.7437,9.7745,9.8129,9.7903,9.8194,9.8738,0.0,0.0,0.0,0.0,0.0,0.0,0.0,7.1992,7.1992,7.1992,7.1992,7.1992,7.1992,7.1992,7.1992,0.0,0.0,0.0,0.0,0.0,0.0,7.1992,7.1992,7.1992,7.1992,7.1992,7.1992,7.1992,0.0,7.2226,7.2695,7.3984,7.4844,7.5312,7.6601,7.7187,7.7187,7.7187,7.7187,7.7187,7.7187,7.7734,7.8594,7.9375,8.0508,0.0,8.2656,8.3554,8.4414,8.5273,8.6172,8.6953,8.7383,8.75,8.75,8.75,8.75,8.75,8.75,8.75,8.7617,8.8008,8.8398,8.9062,9.0351,9.1015,9.1562,9.2422,9.2969,9.3398,9.3828,9.4258,9.4844,9.5742,9.6211,9.664,9.707,9.7461,9.7695,9.7695,9.7695,9.789,9.832,9.875,9.9375,10.0312,10.0703,10.0781,10.0312,10.0312,10.0117,9.9687,9.9687,9.9258,9.8398,9.8398,9.8164,9.7695,9.7695,9.7695,9.7695,9.7695,9.7695,9.7695,9.7695,9.7652,9.7552,9.7552,9.7655,9.7869,9.7869,9.8237,9.8736,9.8619,9.8764,9.8979,0.0,0.0,0.0,0.0,0.0,0.0,0.0,7.1992,7.1992,7.1992,7.1992,7.1992,7.1992,7.1992,7.1992,0.0,0.0,0.0,0.0,0.0,0.0,0.0,0.0,0.0,7.1992,0.0,0.0,7.1992,7.1992,0.0,0.0,0.0,0.0,0.0,7.6797,7.7187,7.7187,7.7187,7.7187,0.0,0.0,7.8008,7.8867,0.0,0.0,0.0,0.0,8.414,8.5039,8.5898,8.6797,8.75,8.75,8.75,8.75,8.75,8.75,8.75,8.75,8.7617,8.789,8.8554,8.8984,8.9609,9.0976,9.1445,9.1758,9.2461,9.3281,9.3945,9.414,9.4883,9.5742,9.6601,9.6758,9.6992,9.7617,9.7695,9.7695,9.7695,9.7695,9.8047,9.8906,9.9179,9.9922,10.1484,10.1797,10.1601,10.0898,10.0898,10.0781,10.0586,10.0586,10.0195,9.9297,9.9101,9.8672,9.7969,9.7773,9.7695,9.7695,9.7695,9.7695,9.7695,9.7654,9.7555,9.7407,9.7338,9.7683,9.8197,9.8197,9.8711,9.9383,9.9383,9.9381,9.9327,0.0,0.0,0.0,0.0,0.0,0.0,0.0,7.1992,7.1992,7.1992,7.1992,7.1992,7.1992,7.1992,7.1992,0.0,0.0,0.0,0.0,0.0,0.0,0.0,0.0,0.0,0.0,0.0,0.0,7.1992,7.1992,0.0,0.0,0.0,0.0,0.0,0.0,7.7187,7.7187,7.7187,0.0,0.0,0.0,0.0,0.0,0.0,0.0,0.0,0.0,8.414,8.5039,8.5898,8.6797,8.75,8.75,8.75,8.75,8.75,8.75,8.75,8.75,8.8047,8.8594,8.8672,8.9883,9.1094,9.125,9.1914,9.25,9.2578,9.3281,9.414,9.4922,9.5781,9.664,9.7461,9.7578,9.7617,9.7695,9.7695,9.7695,9.7695,9.7695,9.8047,9.8906,9.9726,10.0586,10.1484,10.2304,10.2695,10.2695,10.2695,10.2304,10.1484,10.1484,10.1094,10.0195,9.9414,9.8945,9.8867,9.8086,9.7695,9.7695,9.7695,9.7695,9.7695,9.7503,9.742,0.0,9.713,9.7387,9.7947,9.7947,9.8779,10.0018,10.0018,10.0481,10.1096,0.0,0.0,0.0,0.0,0.0,0.0,7.1992,7.1992,7.1992,7.1992,7.1992,7.1992,7.1992,7.1992,7.1992,7.1992,0.0,0.0,0.0,0.0,0.0,0.0,0.0,0.0,0.0,0.0,7.1992,7.1992,7.2539,0.0,0.0,0.0,0.0,0.0,0.0,7.7187,7.7187,7.7187,0.0,0.0,0.0,0.0,0.0,0.0,0.0,0.0,0.0,0.0,8.582,8.6679,8.7226,8.75,8.75,8.75,8.75,8.75,8.75,8.75,8.75,8.8086,8.8828,8.9336,9.039,9.1445,9.1953,9.2344,9.2734,9.3281,9.4062,9.4961,9.582,9.664,9.7344,9.7656,9.7695,9.7695,9.7695,9.8164,9.8281,9.7773,9.8164,9.8828,9.9687,10.0117,10.0898,10.2304,10.2695,10.289,10.289,10.289,10.2695,10.2383,10.2383,10.1992,10.1094,10.0195,9.9531,9.8984,9.8125,9.7695,9.7695,9.7695,9.7612,9.7505,9.7429,9.7227,0.0,9.6804,9.713,9.771,9.825,9.9109,10.0192,10.0596,10.1019,10.1289,0.0,0.0,0.0,0.0,0.0,7.1992,7.1992,7.1992,7.1992,7.1992,7.1992,7.1992,7.1992,7.1992,7.1992,7.1992,7.1992,0.0,0.0,0.0,0.0,0.0,0.0,0.0,0.0,0.0,7.2148,7.2383,7.3008,7.3867,0.0,0.0,7.6367,7.7187,0.0,0.0,0.0,0.0,0.0,0.0,0.0,0.0,0.0,0.0,0.0,0.0,0.0,0.0,0.0,0.0,0.0,8.75,8.75,8.75,8.75,8.75,8.75,8.7539,8.7773,8.8476,8.9297,9.0156,9.1054,9.1836,9.2461,9.2617,9.2851,9.3711,9.4609,9.5469,9.6328,9.7148,9.7695,9.7695,9.7695,9.7773,9.8047,9.8594,9.8867,9.8515,9.9023,9.9726,10.0586,10.0898,10.1601,10.2812,10.289,10.289,10.289,10.289,10.289,10.289,10.289,10.2617,10.1992,10.0898,10.0,9.9375,9.8242,9.7695,9.7695,9.7652,9.7511,9.7407,9.724,9.6964,0.0,9.6551,9.6895,9.7557,9.8173,9.9096,10.0173,10.0712,10.1096,10.1289,0.0,0.0,0.0,0.0,0.0,0.0,7.1992,7.1992,7.1992,7.1992,7.1992,7.1992,7.1992,7.1992,7.1992,7.1992,7.1992,0.0,0.0,0.0,0.0,0.0,0.0,0.0,0.0,0.0,7.2422,7.3281,7.3281,7.418,7.5898,7.5898,7.6367,7.7187,0.0,0.0,0.0,0.0,0.0,0.0,0.0,0.0,8.2304,0.0,0.0,0.0,0.0,0.0,0.0,0.0,0.0,0.0,0.0,8.75,8.75,8.75,8.75,8.7656,8.8476,8.9336,9.0195,9.1054,9.1953,9.2578,9.2617,9.2617,9.2851,9.3711,9.4609,9.5469,9.6328,9.7148,9.7695,9.7695,9.7695,9.8008,9.8867,9.8984,9.9336,10.0195,10.0312,10.0586,10.1484,10.2383,10.289,10.289,10.289,10.289,10.289,10.289,10.289,10.289,10.289,10.289,10.289,10.1211,10.0312,10.0312,9.8515,9.7695,9.7695,9.7497,9.7412,9.7358,9.6849,9.6602,0.0,9.6369,9.6788,9.7519,9.7519,9.8557,10.0096,10.0096,10.0596,10.1289,0.0,0.0,0.0,0.0,0.0,0.0,0.0,7.1992,7.1992,7.1992,7.1992,7.1992,7.1992,7.1992,7.1992,7.1992,7.1992,0.0,0.0,0.0,0.0,0.0,0.0,0.0,0.0,0.0,7.3008,7.3281,7.4492,7.5351,7.5898,7.6523,7.6953,7.7187,7.7187,7.7187,0.0,0.0,0.0,0.0,0.0,8.1523,8.2304,0.0,0.0,0.0,0.0,0.0,0.0,0.0,0.0,0.0,0.0,0.0,0.0,8.75,8.75,8.7695,8.8476,8.9336,9.0195,9.1094,9.1953,9.2617,9.2617,9.2617,9.3008,9.4492,9.5,9.5625,9.707,9.7539,9.7695,9.7695,9.7695,9.8008,9.8867,9.9492,10.0,10.0312,10.0781,10.1289,10.1601,10.2383,10.289,10.289,10.289,10.289,10.289,10.289,10.289,10.289,10.289,10.289,10.289,10.1211,10.0312,10.0312,9.8379,9.7497,9.7493,9.7246,9.7039,9.686,9.6657,9.6521,9.6386,9.6304,9.6442,9.6749,9.7288,9.8211,9.9288,9.9865,10.0596,10.1289,0.0,0.0,0.0,0.0,0.0,0.0,0.0,7.1992,7.1992,7.1992,7.1992,7.1992,7.1992,7.1992,7.1992,7.1992,7.1992,0.0,0.0,0.0,0.0,0.0,0.0,0.0,0.0,7.3008,7.3633,7.4297,7.5351,7.6055,7.6406,7.6953,7.7187,7.7187,7.7187,7.7187,0.0,0.0,0.0,0.0,8.1133,8.1836,8.2344,0.0,0.0,0.0,0.0,0.0,0.0,0.0,0.0,0.0,0.0,0.0,0.0,0.0,8.7695,8.8125,8.8984,8.9844,9.0703,9.1562,9.2187,9.2617,9.2617,9.2851,9.3476,9.4922,9.5469,9.6094,9.7461,9.7695,9.7695,9.7695,9.7969,9.8476,9.9375,10.0195,10.0898,10.1211,10.1797,10.2109,10.2109,10.2617,10.289,10.289,10.289,10.289,10.289,10.289,10.289,10.289,10.289,10.2695,10.2383,10.1015,10.0115,9.9674,9.8147,9.7343,9.724,9.6984,9.6757,9.6588,9.6506,9.6398,0.0,9.6288,9.6288,9.6365,9.6865,9.7557,9.8404,9.9288,10.0096,10.0904,0.0,0.0,0.0,0.0,0.0,0.0,0.0,7.1992,7.1992,7.1992,7.1992,7.1992,7.1992,7.1992,7.1992,7.1992,0.0,0.0,0.0,0.0,0.0,0.0,0.0,0.0,7.3359,7.3437,7.4297,7.5898,7.5976,7.6406,7.7187,7.7187,7.7187,7.7187,7.7187,7.7226,0.0,0.0,0.0,0.0,8.1953,8.2344,0.0,0.0,0.0,0.0,0.0,0.0,0.0,0.0,0.0,0.0,0.0,0.0,0.0,0.0,0.0,0.0,0.0,9.0664,9.1523,9.2383,9.2617,9.2617,9.2695,9.332,0.0,9.5117,9.5937,9.6758,9.7539,9.7695,9.7695,9.7695,9.8437,9.9297,10.0195,10.1094,10.1992,10.2812,10.289,10.289,10.289,10.289,10.289,10.289,10.289,10.289,10.289,10.289,10.289,10.2812,10.2812,10.2383,10.1601,10.0703,9.9674,9.8699,9.7783,9.7227,9.6974,9.6708,9.6585,0.0,9.6369,9.6288,9.6288,9.6288,9.6288,9.6288,9.6288,9.6788,9.7596,9.8481,9.9327,10.0212,0.0,0.0,0.0,0.0,0.0,0.0,0.0,0.0,0.0,0.0,7.1992,7.1992,7.1992,7.1992,7.1992,0.0,0.0,0.0,0.0,0.0,0.0,0.0,0.0,0.0,7.4297,7.4961,7.5508,7.5898,7.6562,7.6992,7.7187,7.7187,7.7187,7.7187,7.7187,7.7578,0.0,0.0,0.0,0.0,8.1953,8.2695,0.0,0.0,0.0,0.0,8.6133,8.6758,0.0,0.0,0.0,0.0,0.0,0.0,0.0,0.0,8.9023,8.9883,9.0742,0.0,9.1523,9.2383,9.2617,9.2773,0.0,9.375,9.4336,9.5898,9.6367,9.6758,9.7539,9.7695,9.7695,9.7695,9.8437,9.9297,10.0195,10.1601,10.2695,10.289,10.289,10.289,10.289,10.289,10.289,10.289,10.289,10.289,10.289,10.289,10.2617,10.1914,10.1914,10.1797,10.1601,9.9937,9.8959,9.8699,9.7392,9.6757,9.6708,9.6474,9.6373,9.6373,9.6343,9.6288,9.6288,9.6288,9.6288,9.6288,9.6288,9.6788,9.7596,9.8481,9.9327,10.0212,0.0,0.0,0.0,0.0,0.0,0.0,0.0,0.0,0.0,0.0,0.0,0.0,0.0,0.0,0.0,0.0,0.0,0.0,0.0,0.0,0.0,0.0,0.0,7.4297,7.5195,7.5664,7.6094,7.6484,7.6953,7.7187,7.7187,7.7187,7.7187,7.7226,7.7617,7.8242,0.0,0.0,0.0,8.164,8.2109,0.0,0.0,0.0,0.0,0.0,8.664,8.7109,0.0,8.75,8.75,8.75,0.0,0.0,0.0,0.0,8.9336,9.0195,9.1054,9.1601,9.1992,9.2461,9.2617,9.2812,9.3711,9.4219,9.4883,9.6211,9.6797,9.7187,9.7617,9.7695,9.7812,9.8242,9.9023,10.0,10.1289,10.2304,10.289,10.289,10.289,10.289,10.289,10.289,10.289,10.289,10.289,10.289,10.289,10.289,10.25,10.1601,10.1086,10.0605,10.0293,9.9236,9.8363,9.7749,9.6965,9.6542,9.6458,9.6358,9.6288,9.6288,9.6288,9.6288,9.6288,9.6288,9.6288,9.6288,9.6288,9.6557,9.7057,9.7904,9.875,9.9596,0.0,0.0,0.0,0.0,0.0,0.0,0.0,0.0,0.0,0.0,0.0,0.0,0.0,0.0,0.0,0.0,0.0,0.0,0.0,0.0,0.0,0.0,7.4883,7.5195,7.6094,7.6094,7.6445,7.7187,7.7187,7.7187,7.7187,7.7344,7.7461,7.7617,7.8476,7.9258,0.0,0.0,8.1601,8.2304,8.2422,0.0,0.0,0.0,0.0,0.0,0.0,0.0,0.0,8.75,8.75,8.75,8.75,0.0,0.0,0.0,0.0,0.0,9.125,9.2031,9.2617,9.2617,9.2695,9.3047,9.3906,9.4765,9.5625,9.6523,9.7226,9.7695,9.7695,9.7812,9.8125,9.8867,9.9844,10.1094,10.2695,10.289,10.289,10.289,10.289,10.289,10.289,10.289,10.289,10.289,10.289,10.289,10.289,10.2812,10.2304,10.1404,10.0308,9.9304,9.8402,9.8363,9.7766,9.6588,9.657,9.6474,9.6288,9.6288,9.6288,9.6288,9.6288,9.6288,9.6288,9.6288,9.6288,9.6288,9.6288,9.6288,9.6403,9.7211,9.798,9.875,0.0,0.0,0.0,0.0,0.0,0.0,0.0,0.0,0.0,0.0,0.0,0.0,0.0,0.0,0.0,0.0,0.0,0.0,0.0,0.0,0.0,7.6758,7.6094,7.6094,7.6992,7.6992,7.707,7.7187,7.7187,7.7187,7.7226,7.7969,7.8672,7.9336,8.0234,8.0664,8.0859,0.0,8.2187,8.2344,8.3086,0.0,0.0,0.0,0.0,0.0,0.0,0.0,0.0,8.75,8.75,8.75,8.75,0.0,0.0,0.0,0.0,0.0,9.2148,9.25,9.2617,9.2617,9.3164,9.3945,9.4804,9.5664,9.6523,9.7344,9.7617,9.7695,9.7695,9.8281,9.8828,9.8984,10.039,10.1797,10.2812,10.289,10.289,10.289,10.289,10.289,10.289,10.289,10.289,10.289,10.289,10.289,10.289,10.2187,10.1283,10.0212,9.9333,9.8258,9.6953,9.6914,9.6825,9.6588,9.6432,9.6322,9.6288,9.6288,9.6288,9.6288,9.6288,9.6288,9.6288,9.6288,9.6288,9.6288,9.6288,9.6288,9.6403,9.7211,9.7596,9.7942,0.0,0.0,0.0,0.0,0.0,0.0,0.0,0.0,0.0,0.0,0.0,0.0,0.0,0.0,0.0,0.0,0.0,0.0,0.0,0.0,7.6797,7.7187,7.6836,7.6797,7.7187,7.7187,7.7187,7.7187,7.7187,7.7422,7.793,7.875,7.9336,7.9726,8.0625,8.1015,8.1054,8.1914,8.2578,8.3047,0.0,0.0,0.0,0.0,0.0,0.0,0.0,0.0,0.0,0.0,8.75,8.75,8.75,0.0,0.0,0.0,0.0,0.0,9.2344,9.2929,9.3281,9.3281,9.3594,9.4258,9.5586,9.6211,9.6719,9.7539,9.7695,9.7695,9.7695,9.8398,9.9297,10.0312,10.1484,10.2383,10.2812,10.289,10.289,10.289,10.289,10.289,10.289,10.289,10.289,10.289,10.289,10.281,10.2707,10.1887,10.0911,9.9786,9.8779,9.7726,9.6588,9.6499,9.6448,9.6448,9.6358,9.6288,9.6288,9.6288,9.6288,9.6288,9.6288,9.6288,9.6288,9.6288,9.6288,9.6288,9.6288,9.6288,9.6403,9.7211,9.7788,9.8365,0.0,0.0,0.0,0.0,0.0,0.0,0.0,0.0,0.0,0.0,0.0,0.0,0.0,0.0,0.0,0.0,0.0,0.0,0.0,0.0,7.7187,7.7187,7.7187,7.7187,7.7187,7.7187,7.7187,7.7187,7.7383,7.8047,7.9101,7.9726,8.0117,8.0351,8.1015,8.1289,8.1367,8.2226,8.3008,8.3633,0.0,0.0,0.0,0.0,0.0,0.0,0.0,0.0,0.0,0.0,0.0,0.0,0.0,0.0,0.0,9.0039,9.0937,9.1758,9.2422,9.3242,9.3945,9.414,9.4375,9.4844,9.6211,9.664,9.6953,9.7578,9.7695,9.7773,9.7969,9.8867,10.0117,10.1719,10.25,10.289,10.289,10.289,10.289,10.289,10.289,10.289,10.289,10.289,10.289,10.289,10.289,10.2803,10.2485,10.1705,10.0684,9.9539,9.8453,9.7451,9.6536,9.639,9.6288,9.6288,9.6288,9.6288,9.6288,9.6288,9.6288,9.6288,9.6288,9.6288,9.6288,9.6288,9.6288,9.6288,9.6288,9.6288,9.6365,9.698,9.7904,9.8904,0.0,0.0,0.0,0.0,0.0,0.0,0.0,0.0,0.0,0.0,0.0,0.0,0.0,0.0,0.0,0.0,0.0,0.0,0.0,0.0,7.7187,7.7187,7.7187,7.7187,7.7187,7.7187,7.7187,7.7187,7.8008,7.9219,8.082,8.0898,8.1328,8.2109,8.2187,8.2226,8.2265,8.3125,8.3554,8.375,8.5351,0.0,0.0,0.0,0.0,0.0,0.0,0.0,0.0,0.0,0.0,0.0,0.0,0.0,9.0078,9.0937,9.1836,9.2539,9.2578,9.3242,9.4101,9.4883,9.5703,9.6367,9.6484,9.707,9.7617,9.7695,9.7695,9.7969,9.875,10.0312,10.1719,10.2695,10.289,10.289,10.289,10.289,10.289,10.289,10.289,10.289,10.289,10.289,10.289,10.289,10.289,10.2803,10.2485,10.17,10.0613,9.9253,9.8384,9.738,9.6343,9.6306,9.6288,9.6288,9.6288,9.6288,9.6288,9.6288,9.6288,9.6288,9.6288,9.6288,9.6288,9.6288,9.6288,9.6288,9.6288,9.6288,9.6326,9.6365,9.7403,9.8788,0.0,0.0,0.0,0.0,0.0,0.0,0.0,0.0,0.0,0.0,0.0,0.0,0.0,0.0,0.0,0.0,0.0,0.0,0.0,7.7187,7.7187,7.7187,7.7187,7.7461,7.8008,7.8008,7.8008,7.8008,7.9375,8.039,8.1015,8.1562,8.1992,8.2304,8.2304,8.2617,8.3125,8.3476,8.4219,8.5273,8.5937,8.6523,0.0,0.0,0.0,0.0,0.0,0.0,0.0,0.0,8.75,8.7656,8.8437,8.9297,9.0156,9.1054,9.1914,9.2734,9.3242,9.4023,9.4922,9.5781,9.664,9.7265,9.7265,9.7461,9.7695,9.7695,9.7695,9.8125,9.9531,10.0781,10.1914,10.2812,10.289,10.289,10.289,10.289,10.289,10.289,10.289,10.289,10.289,10.289,10.2809,10.2699,10.2696,10.2499,10.1989,10.119,10.0212,9.8979,9.8096,9.7238,9.6326,9.6288,9.6288,9.6288,9.6288,9.6288,9.6288,9.6288,9.6288,9.6288,9.6288,9.6288,9.6288,9.6288,9.6288,9.6288,9.6288,9.6288,9.6288,9.6288,9.7019,9.8057,0.0,0.0,0.0,0.0,0.0,0.0,0.0,0.0,0.0,0.0,0.0,0.0,0.0,0.0,0.0,0.0,0.0,0.0,7.7103,7.7103,7.7097,7.7002,7.7234,7.7664,7.825,7.8892,7.9098,7.8867,8.0312,8.1133,8.1406,8.2031,8.2461,8.2695,8.2695,8.3203,8.4023,8.4297,8.5117,8.6211,8.6484,8.6953,0.0,0.0,0.0,0.0,0.0,0.0,0.0,0.0,8.7656,8.8008,8.8867,8.9726,9.0586,9.1445,9.2148,9.2773,9.3672,9.4531,9.539,9.6289,9.7109,9.7695,9.7695,9.7695,9.7695,9.7695,9.8125,9.8984,10.039,10.1406,10.2187,10.2812,10.289,10.289,10.289,10.289,10.289,10.289,10.289,10.289,10.289,10.2808,10.271,10.2485,10.2398,10.2184,10.1691,10.1081,10.0202,9.8846,9.8211,9.7403,9.6326,9.6288,9.6288,9.6288,9.6288,9.6288,9.6288,9.6288,9.6288,9.6288,9.6288,9.6288,9.6288,9.6288,9.6288,9.6288,9.6288,9.6288,9.6288,9.6288,9.6826,9.7634,0.0,0.0,0.0,0.0,0.0,0.0,0.0,0.0,0.0,0.0,0.0,0.0,0.0,0.0,0.0,0.0,0.0,0.0,7.688,7.688,7.6829,7.6628,7.7392,7.782,7.782,7.97,8.0392,7.9726,8.0586,8.1445,8.2304,8.2304,8.2773,8.3594,8.3594,8.4101,8.4961,8.582,8.6211,8.6289,8.7148,8.75,8.75,0.0,0.0,0.0,0.0,0.0,0.0,0.0,8.8047,8.8867,8.9726,9.0586,9.1484,9.2344,9.2617,9.2773,9.3672,9.4531,9.539,9.6289,9.7109,9.7695,9.7695,9.7695,9.7695,9.7734,9.9101,10.0586,10.1406,10.2304,10.289,10.289,10.289,10.289,10.289,10.289,10.289,10.289,10.289,10.289,10.289,10.2696,10.2519,10.2514,10.2203,10.1984,10.1715,10.17,10.082,9.8846,9.8788,9.798,9.6326,9.6288,9.6288,9.6288,9.6288,9.6288,9.6288,9.6288,9.6288,9.6288,9.6288,9.6288,9.6288,9.6288,9.6288,9.6288,9.6288,9.6288,9.6288,9.6288,9.6788,9.7596,0.0,0.0,0.0,0.0,0.0,0.0,0.0,0.0,0.0,0.0,0.0,0.0,0.0,0.0,0.0,0.0,0.0,0.0,7.6702,7.7209,7.7495,7.7438,7.8248,7.8987,7.961,8.0805,8.1421,8.1523,8.1662,8.1896,8.2304,8.2929,8.3359,8.3633,8.4258,8.5,8.582,8.6094,8.6562,8.7148,8.7383,8.75,8.75,0.0,0.0,0.0,0.0,0.0,0.0,0.0,0.0,0.0,8.9726,9.0586,9.1484,9.2344,9.2617,9.2929,9.4414,9.5,9.5547,9.6992,9.7539,9.7695,9.7695,9.8164,9.8789,9.9414,9.9922,10.0586,10.1406,10.2304,10.289,10.289,10.289,10.289,10.289,10.289,10.289,10.289,10.289,10.2809,10.2615,10.2499,10.2309,10.2,10.188,10.17,10.1416,10.1398,10.0593,9.8865,9.8788,9.798,9.6326,9.6288,9.6288,9.6288,9.6288,9.6288,9.6288,9.6288,9.6288,9.6288,9.6288,9.6288,9.6288,9.6288,9.6288,9.6288,9.6288,9.6288,9.6288,9.6288,9.6442,9.6865,0.0,0.0,0.0,0.0,0.0,0.0,0.0,0.0,0.0,0.0,7.656,7.651,0.0,0.0,0.0,0.0,0.0,0.0,0.0,7.7455,7.7836,7.8085,7.8928,7.9833,8.0795,8.125,8.1679,8.2059,8.1958,8.2179,8.2722,8.3229,8.3901,8.4648,8.5195,8.5898,8.6719,8.6719,8.7031,8.75,8.75,8.75,8.75,0.0,0.0,0.0,0.0,0.0,0.0,0.0,0.0,0.0,9.0234,9.1094,9.1914,9.2461,9.2851,9.3437,9.4804,9.5469,9.6054,9.7383,9.7695,9.7773,9.8125,9.8633,9.9258,10.0117,10.0586,10.1094,10.1992,10.25,10.289,10.289,10.289,10.289,10.289,10.289,10.2889,10.2798,10.2718,10.2615,10.2407,10.2195,10.2021,10.1691,10.1587,10.1487,10.1308,10.1289,10.0519,9.8865,9.8788,9.798,9.6326,9.6288,9.6288,9.6288,9.6288,9.6288,9.6288,9.6288,9.6288,9.6288,9.6288,9.6288,9.6288,9.6288,9.6288,9.6288,9.6288,9.6288,9.6288,9.6288,9.6288,9.6557,0.0,0.0,0.0,0.0,0.0,0.0,0.0,0.0,0.0,0.0,7.6529,7.6475,0.0,0.0,0.0,0.0,0.0,0.0,0.0,7.7748,7.8052,7.8569,7.9438,8.0372,8.1359,8.1196,8.1323,8.174,8.1765,8.2305,8.3268,8.3432,8.4455,8.6171,8.6289,8.6758,8.75,8.75,8.75,8.75,8.75,8.75,8.75,8.75,0.0,0.0,0.0,0.0,0.0,0.0,0.0,0.0,9.1054,9.1914,9.2617,9.2617,9.3203,9.4101,9.4961,9.5859,9.6679,9.75,9.7695,9.789,9.8711,9.8984,9.9375,10.0195,10.1015,10.1914,10.2695,10.289,10.289,10.289,10.289,10.289,10.289,10.289,10.2802,10.2494,10.2509,10.24,10.21,10.1777,10.1686,10.168,10.1378,10.1289,10.1289,10.1289,10.0519,9.8865,9.8788,9.798,9.6326,9.6288,9.6288,9.6288,9.6288,9.6288,9.6288,9.6288,9.6288,9.6288,9.6288,9.6288,9.6288,9.6288,9.6288,9.6288,9.6288,9.6288,9.6288,9.6288,9.6288,9.6557,0.0,0.0,0.0,0.0,0.0,0.0,0.0,0.0,0.0,0.0,0.0,0.0,0.0,0.0,0.0,0.0,0.0,0.0,0.0,7.8941,7.936,7.9515,8.0362,8.0946,8.1137,8.1139,8.1454,8.2154,8.2312,8.265,8.3102,8.4561,8.5477,8.5927,8.6832,8.7304,8.75,8.75,8.75,8.75,8.75,8.75,8.75,8.75,8.75,0.0,0.0,0.0,0.0,0.0,0.0,0.0,9.125,9.1914,9.2617,9.2617,9.3203,9.4101,9.4961,9.5859,9.6679,9.75,9.7695,9.7734,9.7929,9.9023,10.0312,10.1094,10.1484,10.1914,10.2695,10.289,10.289,10.289,10.289,10.289,10.289,10.2714,10.2585,10.248,10.2288,10.209,10.1815,10.1705,10.1603,10.14,10.1308,10.1289,10.1289,10.1289,10.0519,9.8865,9.8788,9.798,9.6326,9.6288,9.6288,9.6288,9.6288,9.6288,9.6288,9.6288,9.6288,9.6288,9.6288,9.6288,9.6288,9.6288,9.6288,9.6288,9.6288,9.6288,9.6288,9.6288,9.6288,9.6557,0.0,0.0,0.0,0.0,0.0,0.0,0.0,0.0,0.0,0.0,0.0,0.0,0.0,0.0,0.0,0.0,0.0,0.0,0.0,0.0,7.9977,8.04,8.0862,8.1285,8.167,8.167,8.2093,8.2901,8.3527,8.3967,8.4209,8.5208,8.599,8.6659,8.7224,8.75,8.75,8.75,8.75,8.75,8.75,8.75,8.75,8.75,8.7734,8.8086,8.8086,0.0,0.0,0.0,0.0,0.0,0.0,0.0,9.2695,9.3086,9.3828,9.4726,9.5586,9.6445,9.7187,9.7617,9.7695,9.7695,9.7695,9.9062,10.039,10.0898,10.1601,10.2383,10.2812,10.289,10.289,10.289,10.2805,10.2712,10.2712,10.2509,10.2289,10.2099,10.1995,10.1802,10.1512,10.1517,10.149,10.1308,10.1289,10.1289,10.1289,10.1289,10.0519,9.8865,9.8788,9.798,9.6326,9.6288,9.6288,9.6288,9.6288,9.6288,9.6288,9.6288,9.6288,9.6288,9.6288,9.6288,9.6288,9.6288,9.6288,9.6288,9.6288,9.6288,9.6288,9.6288,9.6288,9.6557,0.0,0.0,0.0,0.0,0.0,0.0,0.0,0.0,0.0,0.0,0.0,0.0,0.0,0.0,0.0,0.0,0.0,0.0,0.0,0.0,0.0,8.1054,8.1246,8.1631,8.2285,8.2439,8.2986,8.3857,8.4752,8.5385,8.5789,8.5789,8.6361,8.7419,8.7461,8.75,8.75,8.75,8.75,8.75,8.75,8.7578,8.7695,8.7695,8.8203,8.8906,8.8906,8.9492,9.0312,9.1054,0.0,0.0,0.0,0.0,9.2773,9.3633,9.4531,9.539,9.625,9.7109,9.7695,9.7695,9.7656,9.7692,9.7809,9.9098,10.0309,10.0387,10.1796,10.289,10.281,10.2809,10.2808,10.2802,10.2593,10.2404,10.2404,10.2201,10.1911,10.1705,10.1718,10.149,10.1289,10.1289,10.1289,10.1289,10.1289,10.1289,10.1289,10.1289,10.0596,9.9058,9.8865,9.8057,9.6519,9.6365,9.6288,9.6288,9.6288,9.6288,9.6288,9.6288,9.6288,9.6288,9.6288,9.6288,9.6288,9.6288,9.6288,9.6288,9.6288,9.6288,9.6288,9.6288,9.6288,9.6557,0.0,0.0,0.0,0.0,0.0,0.0,0.0,0.0,0.0,0.0,7.764,7.7912,0.0,0.0,0.0,0.0,0.0,0.0,8.0862,0.0,0.0,8.1093,8.1785,8.217,8.2285,8.3016,8.3933,8.4985,8.5139,8.5797,8.6887,8.6887,8.6983,8.7166,8.7416,8.75,8.75,8.75,8.75,8.75,8.75,8.7929,8.8554,8.8554,8.9062,8.9844,8.9844,9.039,9.1133,9.125,9.1797,0.0,0.0,0.0,9.2773,9.3633,9.4531,9.539,9.625,9.7109,9.7695,9.7695,9.7561,9.7624,9.8322,9.9224,10.0204,10.0903,10.2094,10.2809,10.2597,10.2581,10.2509,10.2203,10.2184,10.2205,10.2205,10.1915,10.1719,10.17,10.1483,10.1327,10.1289,10.1289,10.1289,10.1289,10.1289,10.1289,10.1289,10.1289,10.0904,9.9942,9.9173,9.8327,9.7365,9.6634,9.6288,9.6288,9.6288,9.6288,9.6288,9.6288,9.6288,9.6288,9.6288,9.6288,9.6288,9.6288,9.6288,9.6288,9.6288,9.6288,9.6288,9.6288,9.6288,9.6557,0.0,0.0,0.0,0.0,0.0,0.0,0.0,0.0,0.0,0.0,0.0,7.879,0.0,0.0,0.0,8.0454,8.0516,8.0708,8.1054,8.1516,8.1785,8.1785,8.2593,8.3247,8.3747,8.4132,8.4835,8.5938,8.6034,8.6444,8.7104,8.7233,8.7327,8.7329,8.7459,8.75,8.75,8.75,8.7773,8.8164,8.8164,8.8672,8.9414,8.9414,8.9961,9.0742,9.0742,9.1289,9.2031,9.2031,9.2265,9.2617,9.2617,0.0,0.0,0.0,9.5234,9.6093,9.6817,9.7276,9.75,9.7363,9.7253,9.7387,9.8236,9.9182,10.0085,10.0799,10.189,10.2615,10.249,10.2519,10.2392,10.2118,10.2023,10.1905,10.1905,10.1611,10.1487,10.1487,10.1384,10.1289,10.1289,10.1289,10.1289,10.1289,10.1289,10.1289,10.1289,10.1289,10.0904,10.0096,9.925,9.8365,9.7519,9.6711,9.6288,9.6288,9.6288,9.6288,9.6288,9.6288,9.6288,9.6288,9.6288,9.6288,9.6288,9.6288,9.6288,9.6288,9.6288,9.6288,9.6288,9.6288,9.6288,9.6557,0.0,0.0,0.0,0.0,0.0,0.0,0.0,0.0,0.0,0.0,0.0,0.0,0.0,0.0,0.0,0.0,8.1093,8.1208,8.14,8.217,8.2631,8.2631,8.3478,8.4247,8.4901,8.5093,8.5651,8.656,8.6729,8.6943,8.7222,8.7417,8.75,8.75,8.75,8.75,8.75,8.7734,8.8164,8.8711,8.8945,8.9531,9.0312,9.0312,9.0859,9.164,9.164,9.2031,0.0,0.0,9.2617,9.2656,9.2851,9.3398,0.0,0.0,0.0,9.6913,9.7349,9.749,9.7425,9.7153,9.7057,9.7227,9.8013,9.9012,9.9904,10.061,10.1586,10.2413,10.2288,10.2312,10.221,10.1899,10.1705,10.1587,10.1587,10.1398,10.1289,10.1289,10.1289,10.1289,10.1289,10.1289,10.1289,10.1289,10.1289,10.1289,10.1289,10.1289,10.1019,10.0404,9.9365,9.8481,9.7827,9.6826,9.6288,9.6288,9.6288,9.6288,9.6288,9.6288,9.6288,9.6288,9.6288,9.6288,9.6288,9.6288,9.6288,9.6288,9.6288,9.6288,9.6288,9.6288,9.6288,9.6557,0.0,0.0,0.0,0.0,0.0,0.0,0.0,0.0,0.0,0.0,0.0,0.0,0.0,8.1031,8.1054,8.1093,8.1093,8.14,8.217,8.3054,8.3516,8.3516,8.4362,0.0,8.4901,8.567,8.6282,8.68,8.6769,8.7042,8.7461,8.75,8.75,8.75,8.75,8.75,8.7539,8.832,8.8672,8.8789,8.9609,9.0469,9.1211,9.1211,9.1758,9.2539,9.2539,0.0,0.0,0.0,0.0,9.2734,9.3554,9.3867,9.4219,0.0,0.0,0.0,9.7695,9.7695,9.7652,9.7429,9.7206,9.7178,9.7768,9.8605,9.9472,10.031,10.1394,10.201,10.1788,10.1719,10.1703,10.1402,10.1308,10.1289,10.1289,10.1308,10.1289,10.1289,10.1289,10.1289,10.1289,10.1289,10.1289,10.1289,10.1289,10.1289,10.1289,10.1289,10.1289,10.1212,9.9635,9.8788,9.8711,9.7096,9.6288,9.6288,9.6288,9.6288,9.6288,9.6288,9.6288,9.6288,9.6288,9.6288,9.6288,9.6288,9.6288,9.6288,9.6288,9.6288,9.6288,9.6288,9.6288,9.6557,0.0,0.0,0.0,0.0,0.0,0.0,0.0,0.0,0.0,0.0,0.0,0.0,0.0,8.1093,8.1323,8.1823,8.2362,8.2824,8.3131,8.3939,8.4439,8.4439,8.5247,8.567,8.567,8.6129,8.6478,8.6817,8.6943,8.7159,8.75,8.75,8.7773,8.8281,8.8281,8.8281,8.832,8.9179,8.9844,9.039,9.0703,9.1367,9.2148,9.2148,9.2344,0.0,0.0,0.0,0.0,0.0,0.0,0.0,0.0,9.5117,9.5781,9.6953,9.7461,9.7655,9.7552,9.7503,9.744,9.7181,9.6954,9.694,9.7725,9.8563,9.9396,10.0115,10.1099,10.1786,10.1483,10.1594,10.1603,10.1289,10.1289,10.1289,10.1289,10.1289,10.1289,10.1289,10.1289,10.1289,10.1289,10.1289,10.1289,10.1289,10.1289,10.1289,10.1289,10.1289,10.1289,10.1289,10.0212,9.9096,9.798,9.6865,9.6288,9.6288,9.6288,9.6288,9.6288,9.6288,9.6288,9.6288,9.6288,9.6288,9.6288,9.6288,9.6288,9.6288,9.6288,9.6288,9.6288,9.6288,9.6634,9.725,0.0,0.0,0.0,0.0,0.0,0.0,0.0,0.0,0.0,0.0,0.0,0.0,0.0,0.0,8.2131,8.267,8.3516,8.4055,8.4055,8.4824,8.5286,8.5286,8.5876,8.6223,8.6223,8.648,8.669,8.6916,8.7024,8.723,8.75,8.7773,8.8203,8.8711,8.9297,8.9414,8.9179,9.0078,9.0781,9.1328,9.1601,9.207,9.2617,9.2929,0.0,0.0,0.0,0.0,0.0,0.0,0.0,0.0,0.0,0.0,9.6992,9.7539,9.7695,9.7655,9.7552,9.75,9.7437,9.7213,9.7012,9.6982,9.7379,9.837,9.9297,9.9593,10.0701,10.1517,10.1308,10.1395,10.15,10.1308,10.1289,10.1289,10.1289,10.1289,10.1289,10.1289,10.1289,10.1289,10.1289,10.1289,10.1289,10.1289,10.1289,10.1289,10.1289,10.1289,10.1212,10.0904,10.0404,9.925,9.7519,9.698,9.6557,9.6288,9.6288,9.6288,9.6288,9.6288,9.6288,9.6288,9.6288,9.6288,9.6288,9.6288,9.6288,9.6288,9.6288,9.6288,9.6288,9.6288,9.6826,9.7634,0.0,0.0,0.0,0.0,0.0,0.0,0.0,0.0,0.0,0.0,0.0,0.0,0.0,0.0,0.0,8.3632,8.4439,8.4939,8.4939,8.567,8.6094,8.611,8.6373,8.648,8.6492,8.67,8.6884,8.7104,8.7147,8.7272,8.7539,8.8359,8.875,8.8867,9.0547,9.0859,9.0117,9.0976,9.1328,9.1406,9.2304,9.2656,9.2734,9.3594,0.0,0.0,9.4883,9.5234,0.0,9.5234,0.0,0.0,0.0,0.0,0.0,9.7695,9.7695,9.7695,0.0,0.0,0.0,9.744,9.7412,9.7259,9.6732,9.7958,9.9158,9.888,10.0115,10.1308,10.1289,10.1289,10.1289,10.1289,10.1289,10.1289,10.1289,10.1289,10.1289,10.1289,10.1289,10.1289,10.1289,10.1289,10.1289,10.1289,10.1289,10.1289,10.1289,10.1289,10.0904,10.0173,10.0096,9.9288,9.7596,9.7557,9.7134,9.6326,9.6326,9.6326,9.6288,9.6288,9.6288,9.6288,9.6288,9.6288,9.6288,9.6288,9.6288,9.6288,9.6288,9.6288,9.6288,9.6326,9.6865,9.7673,0.0,0.0,0.0,0.0,0.0,0.0,8.2862,8.2803,8.2823,0.0,0.0,0.0,0.0,0.0,8.4555,8.4555,8.5286,8.5786,8.5786,8.5978,8.6184,8.6362,8.6468,8.6588,8.671,8.689,8.7034,8.7104,8.787,8.8318,8.8398,8.9258,8.9961,9.0586,9.1094,9.1523,9.1914,9.2148,9.2226,9.2304,9.3203,9.3554,9.3633,9.4492,0.0,0.0,0.0,9.5625,9.6133,0.0,9.6523,9.7031,0.0,0.0,0.0,0.0,9.7695,9.7695,9.7695,0.0,0.0,0.0,0.0,0.0,9.7227,9.8402,9.9417,9.9134,10.0395,10.1512,10.1308,10.1289,10.1289,10.1289,10.1289,10.1289,10.1289,10.1289,10.1289,10.1289,10.1289,10.1289,10.1289,10.1289,10.1289,10.1289,10.1289,10.1289,10.1289,10.1289,10.1212,10.1019,10.0404,9.9865,9.9365,9.875,9.8019,9.7173,9.7173,9.6865,9.6288,9.6288,9.6288,9.6288,9.6288,9.6288,9.6288,9.6288,9.6288,9.6288,9.6288,9.6288,9.6365,9.6942,9.7711,9.8557,0.0,0.0,0.0,0.0,0.0,8.3362,8.3644,8.3501,8.348,0.0,0.0,0.0,0.0,0.0,0.0,8.5401,8.5824,8.6094,8.6094,8.6177,8.6346,8.6468,8.6641,8.6825,8.6936,8.7468,8.7785,8.7785,8.8746,8.9258,8.9258,9.0117,9.082,9.1328,9.1679,9.2344,9.3125,9.3125,9.3125,9.3203,9.4101,9.4453,9.4531,9.539,9.5742,0.0,0.0,0.0,9.6992,9.6992,9.7304,0.0,0.0,0.0,0.0,0.0,0.0,9.7695,0.0,0.0,9.7695,9.7695,0.0,0.0,9.7271,9.8198,9.9041,9.9035,10.0083,10.1097,10.1308,10.1289,10.1289,10.1289,10.1289,10.1289,10.1289,10.1289,10.1289,10.1289,10.1289,10.1289,10.1289,10.1289,10.1289,10.1289,10.1289,10.1289,10.1289,10.1289,10.1289,10.1289,10.0789,10.0404,10.0096,9.9596,9.8904,9.8057,9.8057,9.7788,9.7326,9.7326,9.7326,9.7326,9.7326,9.7326,9.7326,9.7326,9.6942,9.6288,9.6288,9.6519,9.6865,9.7326,9.8288,9.9404,0.0,0.0,8.375,8.371,8.4187,8.4517,8.4318,8.4192,8.4031,0.0,8.4555,8.5324,0.0,0.0,0.0,0.0,8.6094,8.6094,8.6094,8.636,8.6492,8.6529,8.6994,8.7265,8.7276,8.8313,8.8828,8.8828,8.9726,9.0156,9.0156,9.1054,9.1484,9.1601,9.2383,9.3242,9.4062,9.414,9.4179,9.4258,9.5039,9.5351,9.5429,9.6289,9.664,9.6719,9.7422,9.7695,9.7695,9.7695,9.7695,0.0,0.0,0.0,0.0,0.0,9.7695,0.0,0.0,0.0,0.0,9.7695,9.7695,0.0,9.7174,9.7744,9.8461,9.8681,9.9455,10.0305,10.1,10.1212,10.1212,10.1289,10.1289,10.1289,10.1289,10.1289,10.1289,10.1289,10.1289,10.1289,10.1289,10.1289,10.1289,10.1289,10.1289,10.1289,10.1289,10.1289,10.1289,10.1289,10.1289,10.0981,10.0212,10.0212,9.9788,9.8942,9.8942,9.8904,9.8788,9.8788,9.8788,9.8788,9.8788,9.8788,9.8788,9.8788,9.7904,9.6596,9.6596,9.7019,9.7673,9.775,9.875,10.0096,0.0,8.4062,8.4607,8.445,8.4497,8.4674,8.4965,8.5116,8.5286,8.5575,8.5747,8.594,0.0,0.0,0.0,0.0,8.6094,8.6094,8.6094,8.636,8.656,8.6738,8.7643,8.8234,8.8395,8.9296,8.9765,8.9765,9.0625,9.1054,9.1054,9.1953,9.2734,9.3398,9.3554,9.414,9.5,9.5703,9.5976,9.6015,9.6172,9.625,9.6328,9.7148,9.7461,9.75,9.7656,9.7695,9.7695,9.7695,9.7695,9.7695,0.0,0.0,0.0,9.7695,0.0,0.0,0.0,0.0,0.0,0.0,0.0,0.0,9.7568,9.8227,9.8771,9.8481,9.9102,9.9837,10.0285,10.0289,10.0481,10.1212,10.1289,10.1289,10.1289,10.1289,10.1289,10.1289,10.1289,10.1289,10.1289,10.1289,10.1289,10.1289,10.1289,10.1289,10.1289,10.1289,10.1289,10.1289,10.1289,10.1212,10.1096,10.1096,10.0712,9.9827,9.9827,9.9481,9.8788,9.8788,9.8788,9.8788,9.8788,9.8788,9.8788,9.8788,9.8596,9.8288,9.8288,9.8404,9.8634,9.9327,9.9788,10.0173,0.0,8.4961,8.5507,8.5413,8.5651,8.5927,8.6101,8.6147,8.6176,8.6282,8.6184,8.6094,8.6094,0.0,0.0,0.0,0.0,0.0,0.0,8.6928,8.7369,8.7579,8.8611,8.9249,8.9336,9.0195,9.0664,9.0664,9.1523,9.2187,9.2617,9.3047,9.3711,9.4531,9.4531,9.5039,9.5898,9.6328,9.6719,9.7109,9.7109,9.7109,9.7148,9.7539,9.7695,9.7695,9.7695,9.7695,9.7695,9.7695,9.7695,0.0,0.0,9.7695,9.7695,0.0,9.7695,9.7695,0.0,0.0,0.0,9.7695,0.0,0.0,0.0,9.7802,9.8153,9.7923,9.835,9.8892,9.936,9.9442,9.9558,9.9981,10.0404,10.0519,10.0096,10.0789,10.1289,10.1289,10.1289,10.1289,10.1289,10.1289,10.1289,10.1289,10.1289,10.1289,10.1289,10.1289,10.1289,10.1289,10.1289,10.1289,10.1289,10.1289,10.1096,10.0712,10.0712,10.0481,10.0019,10.0019,10.0019,10.0019,10.0019,10.0019,10.0019,10.0019,10.0019,9.9942,9.9135,9.9058,9.9481,9.9942,10.0404,10.0789,8.5195,0.0,8.6445,8.6364,8.6762,8.7096,8.7034,8.6949,8.68,8.6572,8.6346,8.6137,8.6094,0.0,0.0,0.0,0.0,0.0,0.0,0.0,8.8435,8.8626,8.9677,9.0234,9.0234,9.1094,9.164,9.1797,9.25,9.3281,9.414,9.414,9.4609,9.5469,9.5469,9.5937,9.6719,9.6719,9.7109,9.7695,9.7695,9.7695,9.7695,9.7695,9.7695,9.7695,9.7695,9.7695,9.7695,9.7695,9.7695,9.7695,9.7695,9.7695,0.0,0.0,0.0,0.0,0.0,0.0,0.0,0.0,0.0,9.7559,0.0,0.0,0.0,9.7395,9.7595,9.7901,9.8438,9.8557,9.8557,9.8557,9.9288,9.9558,9.8673,9.9865,10.0789,10.0789,10.1096,10.1212,10.1096,10.1212,10.1289,10.1289,10.1289,10.1289,10.1289,10.1289,10.1289,10.1289,10.1289,10.1289,10.1289,10.1289,10.1289,10.1289,10.1289,10.1289,10.1289,10.1289,10.1289,10.1289,10.1289,10.1289,10.1289,10.1289,10.1289,10.1212,9.9827,9.9712,10.0289,10.0289,10.0712,10.1289,8.6211,8.6758,8.7263,8.7059,8.7034,8.7029,8.6841,8.6974,8.6997,8.6808,8.6583,8.6373,0.0,0.0,0.0,0.0,0.0,0.0,8.8636,0.0,0.0,8.9524,9.0575,9.1133,9.1133,9.1992,9.2812,9.3594,9.3711,9.4219,9.5039,9.5039,9.5508,9.6367,9.6367,9.6797,9.7578,9.7578,9.7617,9.7695,9.7695,9.7695,9.7695,9.7695,9.7695,9.7695,9.7695,9.7695,9.7695,0.0,9.7695,9.7695,0.0,9.7695,9.7695,9.7695,0.0,0.0,0.0,0.0,0.0,0.0,9.7559,0.0,0.0,0.0,9.7322,9.711,0.0,9.7231,9.7567,0.0,0.0,9.7634,9.8365,9.8634,9.7788,9.8481,9.9096,9.9096,10.0404,10.1019,10.0289,10.0904,10.1289,10.1289,10.1289,10.1289,10.1289,10.1289,10.1289,10.1289,10.1289,10.1289,10.1289,10.1289,10.1289,10.1289,10.1289,10.1289,10.1289,10.1289,10.1289,10.1289,10.1289,10.1289,10.1289,10.1289,10.1289,10.1289,10.1096,10.1096,10.1212,10.1212,10.1212,10.1289,8.7031,8.7265,0.0,8.7332,8.7329,8.7282,8.7212,8.7155,8.7087,8.6991,8.669,8.6698,0.0,0.0,0.0,0.0,0.0,8.8728,0.0,0.0,0.0,0.0,9.1521,0.0,9.2812,9.3164,9.3789,9.4648,9.4648,9.5117,9.5937,9.5937,9.6406,9.7187,9.7187,9.7383,9.7734,9.8242,9.8437,9.8515,9.9023,9.9219,9.9101,9.8086,9.8008,9.8515,9.9023,9.9219,9.9219,0.0,9.9219,0.0,0.0,0.0,0.0,0.0,0.0,0.0,0.0,0.0,0.0,0.0,0.0,0.0,9.7358,0.0,9.724,0.0,0.0,0.0,0.0,0.0,0.0,0.0,9.7519,9.775,9.6903,9.7942,9.8788,9.8788,9.9404,9.9904,10.0096,10.0789,10.1289,10.1289,10.1289,10.1289,10.1289,10.1289,10.1289,10.1289,10.1289,10.1289,10.1289,10.1289,10.1289,10.1289,10.1289,10.1289,10.1289,10.1289,10.1289,10.1289,10.1289,10.1289,10.1289,10.1289,10.1289,10.1289,10.1289,10.1289,10.1289,10.1289,10.1289,10.1289,0.0,0.0,0.0,8.75,8.75,8.75,8.75,8.7526,8.7525,8.746,8.7417,0.0,8.8373,8.8229,0.0,0.0,8.9584,8.9787,0.0,0.0,9.1796,0.0,0.0,0.0,0.0,0.0,9.4687,9.5547,9.5547,9.5976,9.6836,9.6836,9.7265,9.8047,9.8047,9.8203,9.8437,9.9101,9.9375,9.9414,10.0,10.0312,10.0195,9.8906,9.8828,9.9453,10.0117,10.0312,10.0312,10.0312,10.0312,10.0312,10.0312,10.0312,10.0195,0.0,0.0,0.0,9.8281,0.0,0.0,0.0,0.0,0.0,0.0,0.0,0.0,0.0,0.0,0.0,0.0,0.0,0.0,9.598,0.0,9.6865,9.6057,9.7211,9.8096,9.8096,9.8288,9.8788,9.9635,10.0481,10.1019,10.1019,10.1212,10.1289,10.1289,10.1289,10.1289,10.1289,10.1289,10.1289,10.1289,10.1289,10.1289,10.1289,10.1289,10.1289,10.1289,10.1289,10.1289,10.1289,10.1289,10.1289,10.1289,10.1289,10.1289,10.1289,10.1289,10.1289,10.1289,10.1289,10.1289,10.1289,8.75,8.75,0.0,8.75,8.75,8.75,8.75,8.8164,8.8588,8.8369,8.909,0.0,0.0,0.0,0.0,0.0,0.0,9.0789,9.2042,0.0,9.3553,0.0,0.0,0.0,0.0,0.0,0.0,9.6445,9.6445,9.6875,9.7656,9.7656,9.8125,9.8945,9.8945,9.9414,10.0195,10.0195,10.0312,10.0312,10.0312,10.0312,10.0312,10.0195,10.0195,10.0312,10.0312,10.0312,10.0312,10.0312,10.0312,10.0312,10.0312,10.0312,0.0,0.0,0.0,0.0,0.0,0.0,0.0,9.789,0.0,0.0,0.0,0.0,9.6616,0.0,0.0,0.0,0.0,0.0,0.0,0.0,0.0,0.0,0.0,9.5826,9.6365,9.6365,9.7057,9.7865,9.875,9.9635,10.0096,10.0096,10.0904,10.1289,10.1289,10.1289,10.1289,10.1289,10.1289,10.1289,10.1289,10.1289,10.1289,10.1289,10.1289,10.1289,10.1289,10.1289,10.1289,10.1289,10.1289,10.1289,10.1289,10.1289,10.1289,10.1289,10.1289,10.1289,10.1289,10.1289,10.1289,10.1289,0.0,0.0,0.0,8.75,8.75,8.7695,8.8203,8.9023,8.9487,8.9302,8.937,0.0,0.0,9.0236,9.0505,0.0,0.0,9.2178,9.3001,9.3486,0.0,0.0,0.0,9.5469,0.0,0.0,0.0,0.0,9.7304,9.7734,9.8554,9.8554,9.9023,9.9844,9.9844,10.0,10.0312,10.0898,10.1211,10.1211,10.1797,10.1992,10.1992,10.1406,10.1211,10.1211,10.1797,10.1992,10.1992,10.1992,10.1992,10.1992,10.1992,10.1992,10.1914,10.1289,10.1211,10.1015,10.0117,9.9716,9.9527,9.9211,0.0,0.0,0.0,0.0,0.0,0.0,0.0,0.0,0.0,0.0,0.0,0.0,0.0,0.0,0.0,9.6095,9.6288,9.6288,9.7019,9.7634,9.7904,9.925,10.0096,10.0096,10.0789,10.1289,10.1289,10.1289,10.1289,10.1289,10.1289,10.1289,10.1289,10.1289,10.1289,10.1289,10.1289,10.1289,10.1289,10.1289,10.1289,10.1289,10.1289,10.1289,10.1289,10.1289,10.1289,10.1289,10.1289,10.1289,10.1289,10.1289,10.1289,10.1289,8.7851,8.7929,8.7929,8.7929,8.8164,8.8554,8.9062,8.984,9.0336,0.0,9.03,0.0,9.1477,0.0,9.1949,0.0,9.3146,9.3577,9.4066,9.4566,0.0,9.5625,9.5937,0.0,0.0,0.0,0.0,0.0,0.0,9.8906,9.9453,9.9453,9.9922,10.0781,10.0781,10.0898,10.1289,10.1797,10.2109,10.2109,10.2695,10.289,10.2812,10.2304,10.2109,10.2109,10.2695,10.289,10.289,10.289,10.289,10.289,10.289,10.289,10.2812,10.2187,10.2109,10.1914,10.089,10.05,10.0319,9.9872,9.9189,0.0,9.8412,0.0,0.0,0.0,0.0,0.0,0.0,0.0,0.0,0.0,0.0,0.0,0.0,9.6288,9.6288,9.6288,9.6749,9.7211,9.748,9.8788,9.975,10.0096,10.0789,10.1289,10.1289,10.1289,10.1289,10.1289,10.1289,10.1289,10.1289,10.1289,10.1289,10.1289,10.1289,10.1289,10.1289,10.1289,10.1289,10.1289,10.1289,10.1289,10.1289,10.1289,10.1289,10.1289,10.1289,10.1289,10.1289,10.1289,10.1289,10.1289,8.8594,8.8789,8.8828,8.8828,8.9492,9.0078,9.0078,9.0638,9.1123,0.0,9.1882,9.2372,9.2616,9.321,9.3664,9.3945,9.4501,0.0,9.5234,9.6054,0.0,0.0,9.7304,9.7695,9.7695,0.0,0.0,0.0,0.0,10.0312,10.039,10.039,10.0781,10.1719,10.1719,10.2109,10.289,10.289,10.289,10.289,10.289,10.289,10.289,10.289,10.289,10.289,10.289,10.289,10.289,10.289,10.289,10.289,10.289,10.289,10.289,10.289,10.289,10.2613,10.161,10.1216,10.1015,9.9881,9.9435,0.0,0.0,0.0,9.8788,0.0,0.0,0.0,0.0,0.0,0.0,0.0,0.0,0.0,0.0,9.6288,9.6288,9.6288,9.6326,9.6673,9.7442,9.8288,9.9173,9.9981,10.0789,10.1289,10.1289,10.1289,10.1289,10.1289,10.1289,10.1289,10.1289,10.1289,10.1289,10.1289,10.1289,10.1289,10.1289,10.1289,10.1289,10.1289,10.1289,10.1289,10.1289,10.1289,10.1289,10.1289,10.1289,10.1289,10.1289,10.1289,10.1289,10.1289,8.9492,9.0195,9.0625,9.0625,9.082,9.0976,9.0976,9.1678,9.2136,9.1988,9.2667,9.3205,9.327,9.3994,9.4565,9.4843,9.4998,0.0,0.0,0.0,0.0,9.7383,9.7578,9.7695,9.7695,9.8554,0.0,9.8984,0.0,10.0586,10.1289,10.1289,10.1719,10.2617,10.2617,10.2695,10.289,10.289,10.289,10.289,10.289,10.289,10.289,10.289,10.289,10.289,10.289,10.289,10.289,10.289,10.289,10.289,10.289,10.289,10.289,10.289,10.28,10.2519,10.2217,10.1898,10.1478,10.1194,10.0504,9.9859,9.9859,0.0,0.0,0.0,0.0,0.0,0.0,0.0,0.0,0.0,0.0,0.0,0.0,0.0,9.6288,9.6288,9.6826,9.7288,9.748,9.8288,9.9173,9.9981,10.0789,10.1289,10.1289,10.1289,10.1289,10.1289,10.1289,10.1289,10.1289,10.1289,10.1289,10.1289,10.1289,10.1289,10.1289,10.1289,10.1289,10.1289,10.1289,10.1289,10.1289,10.1289,10.1289,10.1289,10.1289,10.1289,10.1289,10.1289,10.1289,10.1289,9.039,9.1289,9.1875,9.1875,9.2187,9.2304,9.1914,9.2494,9.299,9.2942,9.3615,0.0,9.4228,9.5011,9.561,9.5742,9.6094,0.0,9.6992,0.0,0.0,9.8242,9.8281,9.8437,9.8828,9.9687,0.0,10.0117,0.0,10.1719,10.2187,10.2187,10.2383,10.289,10.289,10.289,10.289,10.289,10.289,10.289,10.289,10.289,0.0,10.289,10.289,10.289,10.289,10.289,10.289,10.289,10.289,10.289,10.289,10.289,10.289,10.28,10.2608,10.2415,10.221,10.1888,10.1695,10.1584,10.111,10.0596,10.0596,10.0212,9.9904,0.0,9.9596,9.9481,0.0,0.0,0.0,0.0,0.0,0.0,0.0,0.0,0.0,9.7403,9.7788,9.8211,9.8596,9.9058,9.9712,10.0596,10.1019,10.1289,10.1289,10.1289,10.1289,10.1289,10.1289,10.1289,10.1289,10.1289,10.1289,10.1289,10.1289,10.1289,10.1289,10.1289,10.1289,10.1289,10.1289,10.1289,10.1289,10.1289,10.1289,10.1289,10.1289,10.1289,10.1289,10.1289,10.1289,10.1404,9.1289,9.2187,9.2773,9.2773,9.3476,9.3828,9.3047,9.3378,9.379,9.4023,9.4626,9.5121,9.5351,9.6133,9.664,9.664,0.0,9.7734,9.7851,9.7851,9.8242,9.914,9.9179,9.9531,10.0312,10.1211,0.0,0.0,0.0,10.289,10.289,10.289,10.289,10.289,10.289,10.289,10.289,10.289,10.289,10.289,10.289,10.289,10.289,10.289,10.289,10.289,10.289,10.289,10.289,10.289,10.289,10.289,10.289,10.289,10.2806,10.259,10.2493,10.2312,10.1802,10.1695,10.161,10.1404,10.1289,10.1289,10.1289,10.1289,10.1289,10.1289,10.0712,10.0481,10.1212,0.0,0.0,0.0,0.0,0.0,0.0,0.0,0.0,0.0,9.8904,0.0,9.9981,10.0096,10.0404,10.1212,10.1289,10.1289,10.1289,10.1289,10.1289,10.1289,10.1289,10.1289,10.1289,10.1289,10.1289,10.1289,10.1289,10.1289,10.1289,10.1289,10.1289,10.1289,10.1289,10.1289,10.1289,10.1289,10.1289,10.1289,10.1289,10.1289,10.1289,10.1289,10.1404,10.1597,9.2187,9.3086,9.3672,9.3672,9.4375,9.4922,9.4765,9.4843,9.492,9.4961,9.5702,9.6209,9.6289,9.6992,9.75,9.75,9.7617,0.0,0.0,0.0,0.0,10.0,10.0117,10.0117,10.0312,10.1211,10.1601,0.0,0.0,10.289,10.289,10.289,10.289,10.289,10.289,10.289,10.289,10.289,10.289,10.289,10.289,10.289,10.289,10.289,10.289,10.289,10.289,10.289,10.289,10.289,10.289,10.289,10.289,10.2681,10.2585,10.2485,10.2193,10.1789,10.1691,10.149,10.1404,10.1308,10.1289,10.1289,10.1289,10.1289,10.1289,10.1289,10.1212,10.1096,10.1289,0.0,0.0,0.0,0.0,0.0,0.0,0.0,0.0,0.0,0.0,9.9904,10.0096,10.0096,10.0404,10.1212,10.1289,10.1289,10.1289,10.1289,10.1289,10.1289,10.1289,10.1289,10.1289,10.1289,10.1289,10.1289,10.1289,10.1289,10.1289,10.1289,10.1289,10.1289,10.1289,10.1289,10.1289,10.1289,10.1289,10.1289,10.1289,10.1289,10.1289,10.1289,10.1789,10.2404,9.3203,9.3984,9.457,9.457,9.5312,9.5859,9.5859,9.6211,9.6367,9.5937,9.6601,9.7109,9.7109,9.7461,9.789,9.832,9.8359,9.875,9.9609,9.9687,10.0117,10.0898,10.1015,0.0,10.1601,10.2109,10.2304,10.2304,0.0,0.0,10.289,10.289,10.289,10.289,10.289,10.289,10.289,10.289,10.289,10.289,10.289,10.289,10.289,10.289,10.289,10.289,10.289,10.289,10.289,10.289,10.289,10.289,10.289,10.2714,10.2504,10.2302,10.2017,10.1695,10.1512,10.14,10.1289,10.1289,10.1289,10.1289,10.1289,10.1289,10.1289,10.1289,10.1289,10.1289,10.1289,10.1289,0.0,0.0,0.0,0.0,0.0,0.0,0.0,0.0,0.0,0.0,10.0712,10.0712,10.0904,10.1289,10.1289,10.1289,10.1289,10.1289,10.1289,10.1289,10.1289,10.1289,10.1289,10.1289,10.1289,10.1289,10.1289,10.1289,10.1289,10.1289,10.1289,10.1289,10.1289,10.1091,10.07,10.07,10.0987,10.1289,10.1289,10.1289,10.1404,10.1789,10.252,10.3289,9.4179,9.4883,9.5469,9.5469,9.6172,9.6758,9.6758,9.7304,9.7461,9.6836,9.7304,9.7773,9.7969,9.7969,9.832,9.9219,9.9297,9.9648,10.0508,10.0586,10.1015,10.1797,10.1914,10.2187,10.289,10.289,10.289,0.0,0.0,0.0,10.2617,10.2812,10.289,10.289,10.289,10.289,10.289,10.289,10.289,10.289,10.289,10.289,10.289,10.289,10.289,10.289,10.281,10.2807,10.2807,10.2681,10.2802,10.2806,10.2681,10.2503,10.2312,10.209,10.1802,10.1616,10.1404,10.1289,10.1289,10.1289,10.1289,10.1289,10.1289,10.1289,10.1289,10.1289,10.1289,10.1289,10.1289,10.1289,0.0,0.0,0.0,0.0,0.0,0.0,0.0,0.0,0.0,0.0,10.1289,10.1289,10.1289,10.1289,10.1289,10.1289,10.1289,10.1289,10.1289,10.1289,10.1289,10.1289,10.1289,10.1289,10.1289,10.1289,10.1289,10.1289,10.1289,10.1289,10.1289,10.1308,10.1093,10.0595,9.9949,9.9949,10.0319,10.0787,10.099,10.1109,10.1206,10.2211,10.3212,10.3905,9.5078,9.5781,9.6367,9.6367,9.7031,9.7578,9.7578,9.7656,9.7656,9.7617,9.7656,9.8008,9.8789,9.8867,9.9219,10.0117,10.0195,10.0508,10.1406,10.1484,10.1914,10.2695,10.2812,10.2812,10.289,10.289,10.289,0.0,0.0,10.25,10.1719,10.25,10.289,10.289,10.289,10.289,10.289,10.289,10.289,10.289,10.289,10.289,10.289,10.289,10.289,10.289,10.2608,10.2499,10.2519,10.2289,10.2309,10.2514,10.2281,10.1995,10.18,10.168,10.149,10.1308,10.1289,10.1289,10.1289,10.1289,10.1289,10.1289,10.1289,10.1289,10.1289,10.1289,10.1289,10.1289,10.1289,10.1289,10.1289,0.0,0.0,0.0,0.0,0.0,0.0,0.0,0.0,0.0,10.1289,10.1289,10.1289,10.1289,10.1289,10.1289,10.1289,10.1289,10.1289,10.1289,10.1289,10.1289,10.1289,10.1289,10.1289,10.1289,10.1289,10.1289,10.1289,10.1289,10.1289,10.1288,10.0589,9.9873,9.9122,9.9122,9.915,9.9291,9.9999,10.0319,10.0504,10.1992,10.3212,10.3982,9.5976,9.664,9.7226,9.7226,9.75,9.789,9.8398,9.8476,9.8672,9.9179,9.8828,9.8828,9.9687,9.9765,10.0117,10.1015,10.1094,10.1484,10.2304,10.2383,10.25,10.289,10.289,10.289,10.289,10.289,10.289,0.0,0.0,0.0,10.3203,10.3008,10.289,10.289,10.3398,10.3711,10.3711,10.4219,10.4492,10.4492,10.4492,10.4408,10.418,10.418,10.4104,10.3901,10.3785,10.3489,10.2989,10.2688,10.2516,10.2195,10.2109,10.1915,10.17,10.17,10.1517,10.1289,10.1289,10.1289,10.1289,10.1289,10.1289,10.1289,10.1289,10.1289,10.1289,10.1289,10.1289,10.1289,10.1289,10.1289,10.1289,10.1289,0.0,0.0,0.0,0.0,0.0,0.0,0.0,0.0,10.1289,10.1289,10.1289,10.1289,10.1289,10.1289,10.1289,10.1289,10.1289,10.1289,10.1789,10.2097,10.2097,10.2597,10.2904,10.2904,10.2904,10.2904,10.2904,10.2904,10.2606,10.1996,10.0804,10.03,10.042,9.9968,10.0025,10.0516,10.0795,10.1213,10.1811,10.3029,10.3881,10.4713,9.6836,9.7304,9.7695,9.7695,9.789,9.8281,9.8906,9.9219,9.9687,10.0586,10.0117,10.0,10.0586,10.0703,10.1015,10.1914,10.1992,10.2187,10.289,10.289,10.289,10.289,10.289,0.0,10.289,10.289,10.3008,10.3281,10.3281,0.0,10.4219,10.3594,10.3398,10.3711,10.4297,10.449,10.4483,10.5195,10.5385,10.5201,10.5298,10.5185,10.5019,10.5019,10.4814,10.4609,10.4483,10.411,10.3597,10.3321,10.2993,10.2501,10.1996,10.1705,10.1594,10.1594,10.1413,10.1289,10.1289,10.1289,10.1289,10.1289,10.1289,10.1289,10.1289,10.1289,10.1289,10.1289,10.1289,10.1289,10.1289,10.1289,10.1289,10.1289,0.0,0.0,0.0,0.0,0.0,0.0,10.152,10.1712,10.1712,10.1904,10.2097,10.2097,10.2097,10.202,10.1712,10.1712,10.1789,10.2097,10.2712,10.2981,10.2981,10.3597,10.3905,10.3905,10.3905,10.3905,10.3905,10.3626,10.292,10.1873,10.0826,10.0497,10.0723,10.0189,10.0329,10.0713,10.1007,10.1586,10.2395,10.3503,10.4408,10.5213,9.7695,9.7695,9.7695,9.7695,9.8398,9.8984,9.8984,9.9726,10.0586,10.1484,10.1601,10.1601,10.1601,10.1601,10.1914,10.2812,10.289,10.289,10.289,10.289,10.289,0.0,0.0,10.289,10.289,10.289,10.3281,10.4219,0.0,0.0,10.4219,10.4219,10.4609,10.5508,10.5508,10.5298,10.51,10.5383,10.5213,10.461,10.4993,10.4914,10.458,10.458,10.458,10.4588,10.4309,10.4218,10.4195,10.4002,10.3886,10.3617,10.1885,10.1289,10.1289,10.1289,10.1289,10.1289,10.1289,10.1289,10.1289,10.1289,10.1289,10.1289,10.1289,10.1289,10.1289,10.1289,10.1289,10.1289,10.1289,10.1289,10.1289,10.1289,0.0,0.0,0.0,0.0,0.0,0.0,10.2097,10.2597,10.2597,10.3405,10.3905,10.3905,10.3905,10.3482,10.2597,10.2597,0.0,10.3789,10.3905,0.0,10.3905,10.3905,10.3905,10.3905,10.3905,10.3905,10.3885,10.2991,10.1788,10.0289,10.0326,9.9869,9.9147,9.9108,9.9108,9.9189,10.0012,10.0788,10.1728,10.3284,10.4408,10.5213,9.7695,9.8164,9.8594,9.8594,9.9297,10.0117,10.0703,10.1015,10.1484,10.2383,10.25,10.25,10.25,10.25,10.2617,10.289,10.289,10.289,10.289,10.289,10.289,10.289,10.3515,10.3789,10.3789,10.4414,10.4804,10.5117,10.5117,10.5117,10.5117,10.5586,10.5781,10.5508,10.6093,10.6287,10.6198,10.6685,10.6788,10.6611,10.6614,10.6388,10.6095,10.6095,10.5999,10.5799,10.5695,10.5292,10.4811,10.4695,10.4405,10.3789,10.3212,10.3097,10.2981,10.2404,10.2212,10.2097,10.152,10.1289,10.1289,10.1289,10.1289,10.1289,10.1289,10.1289,10.1289,10.1289,10.1289,10.1289,10.1289,10.1789,10.2212,10.2212,10.2712,0.0,0.0,0.0,0.0,0.0,10.3289,10.3482,10.3482,10.3712,10.3905,10.3905,10.3905,10.3789,10.3482,10.3482,10.3597,0.0,10.4405,0.0,10.4713,10.529,10.5597,10.5597,10.4997,10.4493,10.3884,10.3104,10.2403,10.1893,10.1425,10.1002,10.0686,10.0686,10.0686,10.0806,10.1572,10.2474,10.3285,10.4387,10.5288,10.602,9.8125,9.8633,9.9101,9.9414,10.0195,10.1015,10.1484,10.1914,10.2304,10.2812,10.289,10.289,10.289,10.289,10.289,10.289,10.289,10.3008,10.3398,10.3398,10.3515,10.3906,10.4414,10.4687,10.4687,10.5195,10.5586,10.6015,10.6289,10.6406,10.6406,10.6992,10.6914,10.6484,10.6992,10.7101,10.6892,10.7412,10.7402,10.7105,10.7103,10.6907,10.6607,10.6607,10.6486,10.6405,10.6405,10.6097,10.5597,10.5597,10.529,10.4789,10.4789,10.4789,10.4597,10.3405,10.3097,10.2981,10.2404,10.2289,10.2289,10.2289,10.2289,10.2289,10.2289,10.2289,10.2289,10.2289,10.2289,10.2289,10.2289,10.2712,10.3097,10.3097,10.3482,10.3905,10.3905,0.0,0.0,0.0,0.0,10.4405,10.4405,10.4597,10.4789,10.4789,10.4789,10.4789,10.4789,10.4482,10.4482,10.4789,10.529,10.5597,10.5597,10.6097,10.6224,10.5908,10.5091,10.4315,10.3486,10.288,10.2496,10.2204,10.1699,10.1494,10.1494,10.1494,10.1494,10.1614,10.2425,10.3185,10.4116,10.4882,10.571,10.6405,9.8906,9.914,9.9453,10.0195,10.1094,10.1719,10.1719,10.2383,10.289,10.289,10.289,10.289,10.3008,10.3008,10.3008,10.3086,10.3008,10.3398,10.4219,10.4297,10.4687,10.5508,10.5586,10.5586,10.5586,10.5586,10.6015,10.6797,10.7617,10.8008,10.8008,10.8008,10.8008,10.8008,10.8007,10.7715,10.7208,10.7501,10.711,10.6409,10.6697,10.6593,10.6405,10.6405,10.6405,10.6405,10.6405,10.6405,10.6405,10.6405,10.6405,10.6405,10.6405,10.6405,10.6097,10.4482,10.3982,10.3982,10.3905,10.3905,10.3905,10.3905,10.3905,10.3905,10.3905,10.3905,10.3905,10.3905,10.3905,10.3905,10.3905,10.3905,10.3982,10.3982,10.3982,10.4097,10.4097,0.0,0.0,0.0,10.4713,0.0,10.5213,10.5905,10.6405,10.6405,10.6405,10.6405,10.6405,10.5597,10.5597,10.6405,10.6405,10.6405,10.6405,10.6287,10.5886,10.4987,10.4294,10.3491,10.2604,10.2604,10.2204,10.1494,10.1494,10.1494,10.1494,10.1494,10.1494,10.1578,10.2498,10.3289,10.4078,10.4973,10.5794,10.6405,9.9804,10.0508,10.1015,10.1289,10.1992,10.2617,10.2617,10.2812,10.289,10.289,10.289,10.3203,10.3789,10.3906,10.4219,10.4804,10.4297,10.4297,10.5117,10.5195,10.5312,10.5508,10.6093,10.6406,10.6406,10.7109,10.75,10.7695,10.789,10.8008,10.8008,10.8008,10.8008,10.8007,10.7784,10.7603,10.7483,10.7094,10.6892,10.6713,10.6621,10.6506,10.6405,10.6405,10.6405,10.6405,10.6405,10.6405,10.6405,10.6405,10.6405,10.6405,10.6405,10.6405,10.6213,10.5097,10.4789,10.4713,10.4097,10.3905,10.3905,10.3905,10.3905,10.3905,10.3905,10.3905,10.3905,10.3905,10.3905,10.3905,10.3905,10.4405,10.4789,10.4789,10.5405,10.579,10.579,10.579,10.579,10.579,10.602,10.6097,10.6097,10.629,10.6405,0.0,10.6405,10.6405,10.6405,10.6213,10.6213,10.6405,10.6405,10.6405,10.6405,10.5817,10.4698,10.3322,10.3088,10.257,10.1817,10.1817,10.1697,10.1494,10.1494,10.1494,10.1494,10.1494,10.1494,10.162,10.3088,10.3803,10.4206,10.5615,10.6203,10.6405,10.0703,10.1289,10.1719,10.2109,10.2617,10.289,10.289,10.289,10.289,10.289,10.3203,10.3711,10.4101,10.4609,10.5117,10.6015,10.5312,10.5195,10.6015,10.6015,10.6211,10.6601,10.7109,10.7304,10.7304,10.7812,10.8008,10.8008,10.8008,10.8008,10.8008,10.8008,10.7887,10.7789,10.7703,10.7508,10.7179,10.691,10.6702,10.6596,10.6526,10.6405,10.6405,10.6405,10.6405,10.6405,10.6405,10.6405,10.6405,10.6405,10.6405,10.6405,10.6405,10.6405,10.629,10.579,10.5713,10.5597,10.5213,10.502,10.502,10.502,10.502,10.502,10.502,10.502,10.502,10.502,10.502,10.502,10.502,10.5405,10.5713,10.5713,10.6097,10.6405,10.6405,10.6405,10.6405,10.6405,10.6405,10.6405,10.6405,10.6405,10.6405,10.6405,10.6405,10.6405,10.6405,10.6405,10.6405,10.6405,10.6405,10.6203,10.5901,10.4692,10.3608,10.2711,10.2278,10.1899,10.1494,10.1494,10.1494,10.1494,10.1494,10.1494,10.1494,10.1494,10.1494,10.1697,10.3322,10.4025,10.4206,10.5817,10.6405,10.6405,10.1601,10.1797,10.1992,10.2812,10.289,10.289,10.289,10.3008,10.3086,10.3086,10.3906,10.4414,10.4609,10.5195,10.6015,10.6797,10.6289,10.6211,10.6914,10.6914,10.7187,10.8008,10.8008,10.8008,10.8008,10.8008,10.8008,10.8008,10.8008,10.8008,10.8008,10.8007,10.7791,10.7593,10.7502,10.7189,10.6797,10.6812,10.6596,10.6405,10.6405,10.6405,10.6405,10.6405,10.6405,10.6405,10.6405,10.6405,10.6405,10.6405,10.6405,10.6405,10.6405,10.6405,10.6405,10.6405,10.6405,10.6405,10.6405,10.6405,10.6405,10.6405,10.6405,10.6405,10.6405,10.6405,10.6405,10.6405,10.6405,10.6405,10.6405,10.6405,10.6402,10.6203,10.6305,10.6402,10.6203,0.0,10.6405,10.6405,10.6405,10.6405,10.6405,10.6405,10.6405,10.6405,10.6405,10.6405,10.6405,10.6284,10.6203,10.6203,10.6203,10.5794,10.479,10.3416,10.2602,10.2534,10.1819,10.1494,10.1494,10.1494,10.1494,10.1494,10.1494,10.1494,10.1494,10.1494,10.1614,10.1782,10.3393,10.4086,10.4419,10.5901,10.6405,10.6405,10.25,10.2695,10.2695,10.289,10.289,10.289,10.289,10.3515,10.3984,10.3984,10.4804,10.5586,10.6211,10.6406,10.6914,10.7695,10.7695,10.7695,10.7812,10.7812,10.789,10.8008,10.8008,10.8008,10.8008,10.8008,10.8008,10.8008,10.8008,10.8008,10.8008,10.7817,10.7612,10.7582,10.7083,10.6892,10.6782,10.6601,10.6389,10.6405,10.6405,10.6405,10.6405,10.6405,10.6405,10.6405,10.6405,10.6405,10.6405,10.6405,10.6405,10.6405,10.6405,10.6405,10.6405,10.6405,10.6405,10.6405,10.6405,10.6405,10.6405,10.6405,10.6405,10.6405,10.6405,10.6405,10.6405,10.6405,10.6405,10.6405,10.6405,10.6405,10.6199,10.5505,10.6007,10.6199,10.5505,0.0,10.6405,10.6405,10.6405,10.6405,10.6405,10.6405,10.6405,10.6405,10.6405,10.6405,10.6405,10.5794,10.5407,10.5407,10.5407,10.4588,10.3122,10.2814,10.2426,10.1697,10.1574,10.1494,10.1494,10.1494,10.1494,10.1494,10.1494,10.1494,10.1494,10.1494,10.1897,10.2604,10.3614,10.4401,10.5129,10.6074,10.6405,10.6405,10.2812,10.289,10.289,10.289,10.289,10.3086,10.3515,10.3906,10.4414,10.4804,10.5586,10.6289,10.6719,10.7109,10.7617,10.8008,10.8008,10.8008,10.8008,10.8008,10.8008,10.8008,10.8008,10.8008,10.8008,10.8008,10.8008,10.8008,10.8008,10.7887,10.7781,10.7699,10.7377,10.7204,10.6896,10.6724,10.658,10.6506,10.6405,10.6405,10.6405,10.6405,10.6405,10.6405,10.6405,10.6405,10.6405,10.6405,10.6405,10.6405,10.6405,10.6405,10.6405,10.6405,10.6405,10.6405,10.6405,10.6405,10.6405,10.6405,10.6405,10.6405,10.6405,10.6405,10.6405,10.6405,10.6405,10.6405,10.6405,10.6405,10.6405,10.6405,10.6322,10.5886,10.6199,10.6301,10.5886,10.6199,10.6405,10.6405,10.6405,10.6405,10.6405,10.6405,10.6405,10.6405,10.6405,10.6182,10.5794,10.5394,10.4801,10.3889,10.3896,10.348,10.2711,10.2315,10.1934,10.1494,10.1494,10.1494,10.1494,10.1494,10.1494,10.1494,10.1494,10.1494,10.1494,10.1494,10.2012,10.2816,10.3684,10.4496,10.5294,10.6117,10.6405,10.6405,10.289,10.289,10.289,10.289,10.3086,10.3398,10.4101,10.4492,10.5,10.5703,10.6484,10.6992,10.6992,10.7617,10.8008,10.8008,10.8008,10.8008,10.8008,10.8008,10.8008,10.8008,10.8008,10.8008,10.8008,10.8008,10.8007,10.7885,10.7885,10.7817,10.7502,10.7416,10.7197,10.6797,10.6702,10.6617,10.6405,10.6405,10.6405,10.6405,10.6405,10.6405,10.6405,10.6405,10.6405,10.6405,10.6405,10.6405,10.6405,10.6405,10.6405,10.6405,10.6405,10.6405,10.6405,10.6405,10.6405,10.6405,10.6405,10.6405,10.6405,10.6405,10.6405,10.6405,10.6405,10.6405,10.6405,10.6405,10.6301,10.6079,10.6079,10.6007,10.5794,10.5615,0.0,10.5794,10.5615,10.571,10.5886,10.6117,10.6007,10.5908,10.6117,10.6079,10.6079,10.6079,10.6079,10.5901,10.5206,10.479,10.3912,10.2498,10.2425,10.2425,10.2425,10.178,10.1494,10.1494,10.1494,10.1494,10.1494,10.1494,10.1494,10.1494,10.1494,10.1494,10.1497,10.1699,10.2278,10.3088,10.392,10.4812,10.5591,10.6199,10.6405,10.6405,10.289,10.289,10.289,10.289,10.3594,10.4101,10.4219,10.5508,10.6484,10.6601,10.7383,10.789,10.789,10.8008,10.8008,10.8008,10.8008,10.8008,10.8008,10.8008,10.8008,10.8008,10.8008,10.8008,10.8008,10.8008,10.7881,10.7607,10.7607,10.7489,10.7189,10.6977,10.678,10.6797,10.6525,10.6407,10.6405,10.6405,10.6405,10.6405,10.6405,10.6405,10.6405,10.6405,10.6405,10.6405,10.6405,10.6405,10.6405,10.6405,10.6405,10.6405,10.6405,10.6405,10.6405,10.6405,10.6405,10.6405,10.6405,10.6405,10.6405,10.6405,10.6405,10.6405,10.6405,10.6405,10.6405,10.6405,10.5779,10.5294,10.5294,10.4692,10.3927,10.3122,0.0,0.0,10.3088,10.3715,10.4505,10.518,10.4599,10.4496,10.5206,10.5294,10.5294,10.5294,10.5294,10.5307,10.518,10.3697,10.2497,10.1581,10.1578,10.1578,10.1578,10.1497,10.1494,10.1494,10.1494,10.1494,10.1494,10.1494,10.1494,10.1494,10.1494,10.1494,10.1574,10.2315,10.3122,10.3995,10.4801,10.5577,10.6305,10.6385,10.6405,10.6405,10.289,10.3281,10.3711,10.3711,10.4414,10.5195,10.5703,10.6289,10.6914,10.7383,10.7812,10.8008,10.8008,10.8008,10.8008,10.8008,10.8008,10.8008,10.8008,10.8008,10.8008,10.8008,10.8008,10.7886,10.7814,10.7811,10.7603,10.7385,10.7385,10.7179,10.6912,10.6795,10.6708,10.6486,10.6409,10.6405,10.6405,10.6405,10.6405,10.6405,10.6405,10.6405,10.6405,10.6405,10.6405,10.6405,10.6405,10.6405,10.6405,10.6405,10.6405,10.6405,10.6405,10.6405,10.6405,10.6405,10.6405,10.6405,10.6405,10.6405,10.6322,10.5794,10.5701,10.5491,10.4987,10.4882,10.4882,10.4882,10.4702,10.4505,10.4505,10.4197,10.3903,10.3588,0.0,10.3903,10.3588,10.3772,10.4078,10.4401,10.4206,10.4108,10.4401,10.4505,10.4505,10.4505,10.4505,10.4189,10.3672,10.257,10.1819,10.1497,10.1494,10.1494,10.1494,10.1494,10.1494,10.1494,10.1494,10.1494,10.1494,10.1494,10.1494,10.1497,10.2015,10.2204,10.2315,10.3193,10.3988,10.4812,10.5078,10.5686,10.6405,10.6405,10.6405,10.6405,10.3281,10.3789,10.4297,10.4609,10.5312,10.6093,10.6601,10.6914,10.7304,10.789,10.8008,10.8008,10.8008,10.8008,10.8008,10.8008,10.8008,10.8008,10.8008,10.7886,10.788,10.788,10.788,10.7694,10.7483,10.7515,10.7299,10.7103,10.7103,10.6885,10.668,10.668,10.658,10.6405,10.6405,10.6405,10.6405,10.6405,10.6405,10.6405,10.6405,10.6405,10.6405,10.6405,10.6405,10.6405,10.6405,10.6405,10.6405,10.6405,10.6405,10.6405,10.6405,10.6405,10.6405,10.6405,10.6203,10.5975,10.5975,10.5802,10.5591,10.5294,10.4987,10.4692,10.4108,10.4025,10.4025,10.4025,10.381,10.3582,10.3582,10.3393,10.3227,10.3227,10.3227,10.3227,10.3227,10.3227,10.3289,10.3588,10.3393,10.3289,10.362,10.3582,10.3582,10.3582,10.3582,10.3223,10.2389,10.178,10.1494,10.1494,10.1494,10.1494,10.1494,10.1494,10.1494,10.1494,10.1494,10.1494,10.1494,10.1494,10.162,10.1899,10.2498,10.2923,10.3227,10.398,10.4692,10.5206,10.5481,10.5716,10.602,10.602,10.579,10.5597,10.3984,10.4219,10.4492,10.539,10.6211,10.6719,10.6719,10.7383,10.8008,10.8008,10.8008,10.8008,10.8008,10.8008,10.8008,10.8008,10.8008,10.8008,10.8007,10.7691,10.7593,10.7587,10.7593,10.7515,10.7207,10.7207,10.7091,10.6797,10.6797,10.6701,10.6405,10.6405,10.6405,10.6405,10.6405,10.6405,10.6405,10.6405,10.6405,10.6405,10.6405,10.6405,10.6405,10.6405,10.6405,10.6405,10.6405,10.6405,10.6405,10.6405,10.6405,10.6405,10.6405,10.6405,10.6405,10.6385,10.5802,10.518,10.5219,10.4609,10.4206,10.4999,10.4581,10.3995,10.3995,10.3995,10.3995,10.3995,10.3289,10.2711,10.2711,10.2015,10.1494,10.1494,10.1494,10.1494,10.1494,10.1494,10.178,10.2568,10.1975,10.1819,10.2604,10.2711,10.2711,10.2711,10.2711,10.2315,10.1501,10.1494,10.1494,10.1494,10.1494,10.1494,10.1494,10.1494,10.1494,10.1494,10.1494,10.1494,10.1494,10.1534,10.19,10.2711,10.2673,10.3223,10.4086,10.4893,10.5206,10.5294,10.6096,10.5905,10.5097,10.5097,10.4597,10.3905,10.4883,10.5586,10.6015,10.6289,10.6992,10.7617,10.7617,10.7812,10.8008,10.8008,10.8008,10.8008,10.8008,10.8008,10.7886,10.7691,10.7684,10.7612,10.7501,10.7394,10.7199,10.6989,10.7189,10.7197,10.691,10.691,10.6782,10.6526,10.6526,10.6526,10.6405,10.6405,10.6405,10.6405,10.6405,10.6405,10.6405,10.6405,10.6405,10.6405,10.6405,10.6405,10.6405,10.6405,10.6405,10.6405,10.6405,10.6405,10.6405,10.6405,10.6405,10.6405,10.6405,10.6405,10.6284,10.571,10.5407,10.5116,10.4487,10.3703,10.3118,10.3421,10.3289,10.2918,10.2389,10.2204,10.2204,10.2204,10.2015,10.1895,10.1895,10.1697,10.1494,10.1494,10.1494,10.1494,10.1494,10.1494,10.1578,10.1782,10.1584,10.1578,10.1782,10.1895,10.1895,10.1895,10.1895,10.1815,10.1497,10.1494,10.1494,10.1494,10.1494,10.1494,10.1494,10.1494,10.1494,10.1494,10.1494,10.1494,10.1497,10.2128,10.2498,10.2781,10.3912,10.4599,10.4882,10.571,10.5997,10.6019,10.5613,10.529,10.4982,10.4482,10.4097,10.3905,10.5781,10.6406,10.6797,10.7187,10.7617,10.8008,10.8008,10.8008,10.8008,10.8008,10.8008,10.8007,10.7915,10.7796,10.7687,10.7508,10.7416,10.7291,10.7091,10.6989,10.691,10.6684,10.6797,10.6812,10.6589,10.6589,10.6601,10.6405,10.6405,10.6405,10.6405,10.6405,10.6405,10.6405,10.6405,10.6405,10.6405,10.6405,10.6405,10.6405,10.6405,10.6405,10.6405,10.6405,10.6405,10.6405,10.6405,10.6405,10.6405,10.6405,10.6405,10.6287,10.5975,10.5908,10.5794,10.5011,10.4524,10.41,10.3576,10.2923,10.2204,10.2204,10.2204,10.2091,10.1617,10.1494,10.1494,10.1494,10.1494,10.1494,10.1494,10.1494,10.1494,10.1494,10.1494,10.1494,10.1494,10.1494,10.1494,10.1494,10.1494,10.1494,10.1494,10.1494,10.1494,10.1494,10.1494,10.1494,10.1494,10.1494,10.1494,10.1494,10.1494,10.1494,10.1494,10.1494,10.1494,10.1494,10.1494,10.1697,10.1975,10.2497,10.3126,10.3697,10.4812,10.5407,10.571,10.6182,10.6213,10.579,10.529,10.4713,10.4097,10.3597,10.3212,10.2905,10.6719,10.6797,10.7109,10.789,10.8008,10.8008,10.8008,10.8008,10.8008,10.8008,10.8007,10.7919,10.7607,10.7582,10.7508,10.7197,10.7105,10.7003,10.682,10.6789,10.6684,10.6387,10.6405,10.6405,10.6405,10.6405,10.6405,10.6405,10.6405,10.6405,10.6405,10.6405,10.6405,10.6405,10.6405,10.6405,10.6405,10.6405,10.6405,10.6405,10.6405,10.6405,10.6405,10.6405,10.6405,10.6405,10.6405,10.6405,10.6405,10.6405,10.6405,10.6301,10.5519,10.518,10.4987,10.41,10.3322,10.2675,10.2604,10.209,10.1494,10.1494,10.1494,10.1494,10.1494,10.1494,10.1494,10.1494,10.1494,10.1494,10.1494,10.1494,10.1494,10.1494,10.1494,10.1494,10.1494,10.1494,10.1494,10.1494,10.1494,10.1494,10.1494,10.1494,10.1494,10.1494,10.1494,10.1494,10.1494,10.1494,10.1494,10.1494,10.1494,10.1494,10.1494,10.1494,10.1494,10.1494,10.1614,10.1975,10.2711,10.2886,10.3803,10.518,10.5294,10.5671,10.629,10.629,10.579,10.4982,10.4905,10.3905,10.2597,10.2501,10.2001,10.1384,10.75,10.7695,10.7812,10.8008,10.8008,10.8008,10.8008,10.8008,10.8008,10.8008,10.7791,10.7699,10.7598,10.7394,10.7187,10.6896,10.6713,10.6486,10.6507,10.6488,10.6487,10.6405,10.6405,10.6405,10.6405,10.6405,10.6405,10.6405,10.6405,10.6405,10.6405,10.6405,10.6405,10.6405,10.6405,10.6405,10.6405,10.6405,10.6405,10.6405,10.6405,10.6405,10.6405,10.6405,10.6405,10.6405,10.6405,10.6405,10.6405,10.6405,10.6405,10.6301,10.5519,10.518,10.4908,10.3416,10.2776,10.257,10.1899,10.162,10.1494,10.1494,10.1494,10.1494,10.1494,10.1494,10.1494,10.1494,10.1494,10.1494,10.1494,10.1494,10.1494,10.1494,10.1494,10.1494,10.1494,10.1494,10.1494,10.1494,10.1494,10.1494,10.1494,10.1494,10.1494,10.1494,10.1494,10.1494,10.1494,10.1494,10.1494,10.1494,10.1494,10.1494,10.1494,10.1494,10.1494,10.1534,10.2091,10.2496,10.2709,10.4108,10.4893,10.5206,10.5901,10.5917,10.5405,10.5405,10.4905,10.4097,10.3405,10.2904,10.2482,10.2091,10.1796,10.1703,10.789,10.8008,10.8008,10.8008,10.8008,10.8008,10.8008,10.7883,10.7789,10.7789,10.7621,10.7394,10.7199,10.7087,10.6921,10.6611,10.6488,10.6405,10.6405,10.6405,10.6405,10.6405,10.6405,10.6405,10.6405,10.6405,10.6405,10.6405,10.6405,10.6405,10.6405,10.6405,10.6405,10.6405,10.6405,10.6405,10.6405,10.6405,10.6405,10.6405,10.6405,10.6405,10.6405,10.6405,10.6405,10.6405,10.6405,10.6405,10.6405,10.6405,10.6405,10.622,10.4999,10.4599,10.4285,10.2604,10.2091,10.2015,10.1581,10.1494,10.1494,10.1494,10.1494,10.1494,10.1494,10.1494,10.1494,10.1494,10.1494,10.1494,10.1494,10.1494,10.1494,10.1494,10.1494,10.1494,10.1494,10.1494,10.1494,10.1494,10.1494,10.1494,10.1494,10.1494,10.1494,10.1494,10.1494,10.1494,10.1494,10.1494,10.1494,10.1494,10.1494,10.1494,10.1494,10.1494,10.1494,10.1534,10.1899,10.2496,10.3318,10.4189,10.5014,10.5817,10.5819,10.5482,10.5097,10.4713,10.3982,10.3194,10.29,10.2486,10.2113,10.1982,10.2012,10.211,10.8008,10.8008,10.8008,10.8008,10.8007,10.7887,10.7887,10.7715,10.7515,10.7515,10.7303,10.6989,10.6804,10.6789,10.6589,10.6407,10.6405,10.6405,10.6405,10.6405,10.6405,10.6405,10.6405,10.6405,10.6405,10.6405,10.6405,10.6405,10.6405,10.6405,10.6405,10.6405,10.6405,10.6405,10.6405,10.6405,10.6405,10.6405,10.6405,10.6405,10.6405,10.6405,10.6405,10.6405,10.6405,10.6405,10.6405,10.6405,10.6385,10.6203,10.6182,10.5908,10.4285,10.381,10.3491,10.1899,10.1494,10.1494,10.1494,10.1494,10.1494,10.1494,10.1494,10.1494,10.1494,10.1494,10.1494,10.1494,10.1494,10.1494,10.1494,10.1494,10.1494,10.1494,10.1494,10.1494,10.1494,10.1494,10.1494,10.1494,10.1494,10.1494,10.1494,10.1494,10.1494,10.1494,10.1494,10.1494,10.1494,10.1494,10.1494,10.1494,10.1494,10.1494,10.1494,10.1494,10.1494,10.1494,10.162,10.2535,10.3988,10.4294,10.5091,10.6097,10.5405,10.4905,10.4597,10.3982,10.3194,10.25,10.2686,10.2402,10.1802,10.208,10.2309,10.259,10.8008,10.8008,10.8008,10.8008,10.7789,10.7695,10.7695,10.7409,10.7296,10.7296,10.7003,10.6795,10.6812,10.6617,10.6409,10.6405,10.6405,10.6405,10.6405,10.6405,10.6405,10.6405,10.6405,10.6405,10.6405,10.6405,10.6405,10.6405,10.6405,10.6405,10.6405,10.6405,10.6405,10.6405,10.6405,10.6405,10.6405,10.6405,10.6405,10.6405,10.6405,10.6405,10.6405,10.6405,10.6405,10.6405,10.6405,10.6405,10.6284,10.5577,10.5407,10.5078,10.3383,10.2886,10.2675,10.1778,10.1494,10.1494,10.1494,10.1494,10.1494,10.1494,10.1494,10.1494,10.1494,10.1494,10.1494,10.1494,10.1494,10.1494,10.1494,10.1494,10.1494,10.1494,10.1494,10.1494,10.1494,10.1494,10.1494,10.1494,10.1494,10.1494,10.1494,10.1494,10.1494,10.1494,10.1494,10.1494,10.1494,10.1494,10.1494,10.1494,10.1494,10.1494,10.1494,10.1494,10.1494,10.1534,10.2167,10.3129,10.398,10.5418,10.5798,10.529,10.5174,10.4289,10.2904,10.2789,10.238,10.1819,10.1903,10.1893,10.209,10.2315,10.2605,10.2811,10.8008,10.8008,10.8006,10.7787,10.7708,10.7487,10.7387,10.7116,10.6977,10.6977,10.6718,10.658,10.658,10.6507,10.6405,10.6405,10.6405,10.6405,10.6405,10.6405,10.6405,10.6405,10.6405,10.6405,10.6405,10.6405,10.6405,10.6405,10.6405,10.6405,10.6405,10.6405,10.6405,10.6405,10.6405,10.6405,10.6405,10.6405,10.6405,10.6405,10.6405,10.6405,10.6405,10.6405,10.6405,10.6405,10.6405,10.6079,10.5686,10.5281,10.4882,10.4315,10.3088,10.2711,10.2532,10.1702,10.1494,10.1494,10.1494,10.1494,10.1494,10.1494,10.1494,10.1494,10.1494,10.1494,10.1494,10.1494,10.1494,10.1494,10.1494,10.1494,10.1494,10.1494,10.1494,10.1494,10.1494,10.1494,10.1494,10.1494,10.1494,10.1494,10.1494,10.1494,10.1494,10.1494,10.1494,10.1494,10.1494,10.1494,10.1494,10.1494,10.1494,10.1494,10.1494,10.1494,10.1494,10.1497,10.2781,10.3576,10.4018,10.4723,10.4994,10.4982,10.4097,10.3289,10.2597,10.2097,10.1817,10.1676,10.1892,10.2184,10.2585,10.2705,10.2806,10.289]}]]